MPMG - Transparência

Contra-cheque - Remuneração de todos os servidores ativos - Pré Resolução CNMP 200/2019

Período: 2012 - Dezembro

Ordem Matrícula Nome Cargo Efetivo Situação Unidade Administrativa Rendimentos Descontos Rendimento Líquido Total Indenizações Outras Remunerações Retroativas/Temporárias Data de Referência
Remuneração Básica Remuneração Eventual ou Temporária Total de Rendimentos Brutos Obrigatórios/Legais Total de Descontos
Remuneração do Cargo Efetivo Outras Verbas Remuneratórias Função de Confiança ou Cargo em Comissão Gratificação Natalina Férias Abono de Permanência Contribuição Previdenciária Imposto de Renda Retenção por Teto Constitucional
1 498900 ABDON MARCIO BARBOSA DA SILVA OFICIAL DO MP ATIVO ABRE CAMPO - COMARCA; ABRE CAMPO-PJ-02PJ 2.637,71 0,00 0,00 1.360,43 0,00 0,00 3.998,14 439,80 77,18 0,00 516,98 3.481,16 1.237,63 0,00 31/12/2012
2 177800 ADALBERTO MENEZES FARIA SAMORA OFICIAL DO MP ATIVO BELO HORIZONTE - COMARCA; DIRET DE PLANOS PROJETOS E PROGRAMAS INST 7.356,10 1.471,22 0,00 4.413,66 2.942,44 0,00 16.183,42 1.942,02 3.397,94 0,00 5.339,96 10.843,46 822,00 0,00 31/12/2012
3 306400 ADALBERTO MOREIRA GONCALVES ANALISTA DO MP ATIVO CONTAGEM - COMARCA; CONTAGEM-PJ-01PJ 7.595,56 759,56 0,00 4.177,56 0,00 0,00 12.532,68 1.838,12 2.542,73 0,00 4.380,85 8.151,83 352,00 0,00 31/12/2012
4 179300 ADENISE AUXILIADORA SOUZA SAD OFICIAL DO MP ATIVO BARBACENA - COMARCA; EXTINTA-BARBACENA - 06ª PJ EXECUÇÃO PENAL 7.124,13 1.424,83 0,00 4.788,61 2.849,65 0,00 16.187,22 1.467,14 2.739,34 0,00 4.206,48 11.980,74 352,00 0,00 31/12/2012
5 77700 ADIL EXPEDITO DE OLIVEIRA JUNIOR ASSESSOR ATIVO BELO HORIZONTE - COMARCA; CAO-CRIANCAS E ADOLESCENTES-SECRETARIA 0,00 5.699,30 7.124,13 6.767,92 4.274,48 0,00 23.865,83 4.231,74 5.720,35 0,00 9.952,09 13.913,74 779,45 13.100,03 31/12/2012
6 272200 ADILSON BATISTA ORNELAS OFICIAL DO MP ATIVO LAVRAS - COMARCA; LAVRAS-PJ-02PJ 3.519,31 351,93 0,00 1.935,62 1.290,41 0,00 7.097,27 851,68 445,05 0,00 1.296,73 5.800,54 352,00 0,00 31/12/2012
7 380100 ADILSON GONCALVES DE MELO JUNIOR ANALISTA DO MP ATIVO ARAXÁ - COMARCA; ARAXA-PJ-05PJ 5.598,22 335,89 0,00 3.238,94 1.978,04 0,00 11.151,09 1.305,50 1.716,51 0,00 3.022,01 8.129,08 822,00 0,00 31/12/2012
8 148800 ADILSON JANUARIO OFICIAL DO MP ATIVO BELO HORIZONTE - COMARCA; BH-22PJ PES COM DEF E IDOSOS 8.361,90 4.180,95 0,00 6.073,65 4.180,95 0,00 22.797,45 2.847,93 5.367,93 0,00 8.215,86 14.581,59 352,00 1.200,21 31/12/2012
9 322600 ADMILSON SILVEIRA OFICIAL DO MP ATIVO BOCAIÚVA - COMARCA; BOCAIUVA-PJ-01PJ 3.811,39 381,14 0,00 2.096,26 1.397,51 0,00 7.686,30 922,36 907,26 0,00 1.829,62 5.856,68 352,00 0,00 31/12/2012
10 333700 ADRIANA ABRITTA TEIXEIRA OFICIAL DO MP ATIVO BELO HORIZONTE - COMARCA; DIRET DE PESSOAL DO MINISTERIO PUBLICO - DPMP 5.085,23 508,52 0,00 3.053,19 1.864,58 0,00 10.511,52 1.404,64 2.090,99 0,00 3.495,63 7.015,89 352,00 1.582,02 31/12/2012
11 468500 ADRIANA APARECIDA FIRMINO ANALISTA DO MP ATIVO CARATINGA - COMARCA; CARATINGA-PJ-04PJ 4.473,58 0,00 0,00 2.236,79 0,00 0,00 6.710,37 984,18 511,08 0,00 1.495,26 5.215,11 587,00 0,00 31/12/2012
12 326100 ADRIANA AUGUSTA AMARAL BELO OFICIAL DO MP ATIVO BARBACENA - COMARCA; BARBACENA-PJ-08PJ 5.085,23 508,52 0,00 3.053,19 0,00 0,00 8.646,94 1.230,62 1.005,94 0,00 2.236,56 6.410,38 822,00 0,00 31/12/2012
13 254800 ADRIANA DAS GRACAS FERNANDES ANALISTA DO MP ATIVO UBERABA - COMARCA; UBERABA-PJ-07PJ 8.634,11 4.317,05 0,00 6.679,73 0,00 0,00 19.630,89 2.849,26 4.792,49 0,00 7.641,75 11.989,14 352,00 0,00 31/12/2012
14 246900 ADRIANA DE ALMEIDA ANTONINI ASSESSOR ATIVO BELO HORIZONTE - COMARCA; PROCON-MG-SECRETARIA DE FISCALIZACOES 0,00 421,56 2.107,81 1.370,07 843,12 0,00 4.742,56 595,18 183,79 0,00 778,97 3.963,59 352,00 0,00 31/12/2012
15 217400 ADRIANA DE CARVALHO CATAO BRAGA ASSESSOR ATIVO BELO HORIZONTE - COMARCA; EXTINTA - DIRETORIA DE CONTRATOS E CONVÊNIOS 0,00 1.119,64 5.598,22 3.358,93 0,00 0,00 10.076,79 861,56 1.910,79 0,00 2.772,35 7.304,44 352,00 0,00 31/12/2012
16 434600 ADRIANA FERREIRA DA SILVA ANALISTA DO MP ATIVO BELO HORIZONTE - COMARCA; BH-19PJ SAUDE 5.085,23 305,11 0,00 2.927,91 0,00 0,00 8.318,25 1.185,88 1.091,47 0,00 2.277,35 6.040,90 352,00 0,00 31/12/2012
17 499800 ADRIANA FERREIRA TIAGO OFICIAL DO MP ATIVO SALINAS - COMARCA; SALINAS-PJ-02PJ 2.637,71 0,00 0,00 1.360,43 0,00 0,00 3.998,14 580,30 101,05 0,00 681,35 3.316,79 352,00 0,00 31/12/2012
18 471500 ADRIANA HORTA DE CARVALHO RODRIGUES DE SOUSA ANALISTA DO MP ATIVO NOVA LIMA - COMARCA; NOVA LIMA-PJ-03PJ 4.924,85 0,00 0,00 2.462,42 1.641,62 0,00 9.028,89 1.083,46 1.222,50 0,00 2.305,96 6.722,93 587,00 0,00 31/12/2012
19 86400 ADRIANA MOREIRA CALDEIRA BRANT OFICIAL DO MP ATIVO BELO HORIZONTE - COMARCA; EXTINTA-TUTELA DAS FUNDACOES-21 PJ- GABINETE 7.356,10 2.942,44 0,00 4.986,89 0,00 0,00 15.285,43 2.337,13 3.322,00 0,00 5.659,13 9.626,30 352,00 974,28 31/12/2012
20 480700 ADRIANA MOREIRA DE AVELLAR CEZILIO OFICIAL DO MP ATIVO BELO HORIZONTE - COMARCA; EXTINTA - DIVISAO DE MATERIAL DE CONSUMO 2.637,71 0,00 0,00 1.318,85 0,00 0,00 3.956,56 580,30 50,56 0,00 630,86 3.325,70 822,00 0,00 31/12/2012
21 326000 ADRIANA PEREIRA CARNEIRO RESENDE OFICIAL DO MP ATIVO BELO HORIZONTE - COMARCA; BH-18PJ VIOLENCIA DOMESTICA 4.332,50 433,25 0,00 4.615,46 0,00 0,00 9.381,21 1.081,52 598,00 0,00 1.679,52 7.701,69 418,13 455,83 31/12/2012
22 502200 ADRIANA PETRUCCI DAVINA OFICIAL DO MP ATIVO UBERABA - COMARCA; UBERABA-PJ-14PJ 2.903,86 0,00 0,00 1.497,72 0,00 0,00 4.401,58 638,84 147,94 0,00 786,78 3.614,80 352,00 0,00 31/12/2012
23 201900 ADRIANA REIS PIMENTA OFICIAL DO MP ATIVO TEÓFILO OTONI - COMARCA; TEOFILO OTONI-PJ-03PJ 7.124,13 1.424,83 0,00 4.788,61 2.849,65 0,00 16.187,22 1.880,78 3.421,26 0,00 5.302,04 10.885,18 352,00 0,00 31/12/2012
24 278700 ADRIANA RODRIGUES PINTO COELHO AMARAL ANALISTA DO MP ATIVO BELO HORIZONTE - COMARCA; EXTINTA-MEIO AMB PATRIM HIST CULTURAL-15PJGAB 8.361,90 836,19 0,00 5.020,53 0,00 0,00 14.218,62 2.023,58 2.770,26 0,00 4.793,84 9.424,78 352,00 0,00 31/12/2012
25 468000 ADRIANA SANTOS DE SANTANA MOREIRA ANALISTA DO MP ATIVO ARAÇUAÍ - COMARCA; ARACUAI-PJ-01PJ 4.473,58 894,72 0,00 4.876,33 1.789,43 0,00 12.034,06 1.264,42 1.404,87 0,00 2.669,29 9.364,77 587,00 1.250,00 31/12/2012
26 194700 ADRIANA TSUKIDE OFICIAL DO MP ATIVO UBERABA - COMARCA; COORD REG BACIAS PARANAIBA BAIXO RIO GRANDE 7.124,13 1.424,83 0,00 4.788,61 2.849,65 0,00 16.187,22 1.467,14 2.879,18 0,00 4.346,32 11.840,90 352,00 0,00 31/12/2012
27 206400 ADRIANE MENDES DE SOUZA ANALISTA DO MP ATIVO BELO HORIZONTE - COMARCA; BH-23PJ CIVEL-FISC AC POL PUB II 9.814,62 4.907,31 0,00 7.593,05 0,00 0,00 22.314,98 3.238,82 5.474,19 0,00 8.713,01 13.601,97 352,00 0,00 31/12/2012
28 465500 ADRIANO CASSIANO MATOS ANALISTA DO MP ATIVO ARAXÁ - COMARCA; ARAXA-02 PJ/PROCON 4.473,58 0,00 0,00 2.031,80 0,00 0,00 6.505,38 1.048,83 580,43 0,00 1.629,26 4.876,12 352,00 997,59 31/12/2012
29 500500 ADRIANO DE ALMEIDA SILVA OFICIAL DO MP ATIVO UBERABA - COMARCA; UBERABA-PJ-12PJ 2.637,71 0,00 0,00 1.360,43 879,24 0,00 4.877,38 580,30 216,71 0,00 797,01 4.080,37 352,00 0,00 31/12/2012
30 187200 ADRIANO DE FREITAS MARON OFICIAL DO MP ATIVO PONTE NOVA - COMARCA; PONTE NOVA-PJ-03PJ 5.421,69 3.795,19 0,00 4.872,18 0,00 0,00 14.089,06 2.416,03 3.589,59 0,00 6.005,62 8.083,44 352,00 3.820,75 31/12/2012
31 477900 ADRIANO FERREIRA DE ALMEIDA OFICIAL DO MP ATIVO MONTES CLAROS - COMARCA; MONTES CLAROS-PJ-01PJ 2.637,71 0,00 0,00 1.318,85 0,00 0,00 3.956,56 580,30 50,56 0,00 630,86 3.325,70 352,00 0,00 31/12/2012
32 269101 ADRIANO PEREIRA SILVA ANALISTA DO MP ATIVO UBERABA - COMARCA; UBERABA-PJ-02PJ 5.421,69 0,00 0,00 2.959,26 1.807,23 0,00 10.188,18 1.192,78 1.603,80 0,00 2.796,58 7.391,60 587,00 0,00 31/12/2012
33 414200 ADRIANO RODRIGUES FERNANDES ANALISTA DO MP ATIVO CARANDAÍ - COMARCA; CARANDAI-PJ-UNPJ 5.085,23 305,11 0,00 2.448,17 0,00 0,00 7.838,51 1.359,97 930,25 0,00 2.290,22 5.548,29 587,00 2.076,64 31/12/2012
34 514300 ADRIENE DAMASCENO BRAGA ANALISTA DO MP ATIVO ALFENAS - COMARCA; ALFENAS-PJ-03PJ 4.332,50 0,00 0,00 2.166,25 0,00 0,00 6.498,75 953,16 606,01 0,00 1.559,17 4.939,58 3.567,68 241,18 31/12/2012
35 254600 ADRIENE DOMINGUES COSTA ANALISTA DO MP ATIVO BELO HORIZONTE - COMARCA; PROC. JUSTICA DIR. DIFUSOS E COLETIVOS-SEC 7.356,10 1.471,22 0,00 4.630,69 0,00 0,00 13.458,01 2.005,81 2.705,74 0,00 4.711,55 8.746,46 0,00 951,07 31/12/2012
36 252001 ADRIENE GOMES BARRETO ANALISTA DO MP ATIVO BELO HORIZONTE - COMARCA; BH-19PJ SAUDE-ASS TECNICA 6.069,59 1.820,88 0,00 3.945,23 0,00 0,00 11.835,70 1.780,54 2.414,60 0,00 4.195,14 7.640,56 352,00 405,84 31/12/2012
37 118100 AGENOR ALCIR RODRIGUES DA SILVA OFICIAL DO MP ATIVO SÃO JOÃO NEPOMUCENO - COMARCA; SAO JOAO NEPOMUCENO-PJ-01PJ 9.205,45 6.443,83 0,00 8.541,66 5.216,43 0,00 29.407,37 3.442,84 7.547,73 0,00 10.990,57 18.416,80 352,00 0,00 31/12/2012
38 302500 AGENOR JOSE DA SILVA JUNIOR ANALISTA DO MP ATIVO JUIZ DE FORA - COMARCA; JUIZ DE FORA-PJ-07PJ 7.595,56 759,56 0,00 4.177,56 2.785,04 0,00 15.317,72 1.838,12 3.123,52 0,00 4.961,64 10.356,08 352,00 0,00 31/12/2012
39 357500 AILSON WAGNER DE ALENCAR SILVA OFICIAL DO MP ATIVO BELO HORIZONTE - COMARCA; DIRETORIA DO COLEGIO E DA CAMARA DE PJ 4.619,20 923,84 0,00 2.684,15 1.847,68 0,00 10.074,87 1.065,40 1.433,96 0,00 2.499,36 7.575,51 822,00 1.458,36 31/12/2012
40 366400 AILTON ALEXSSANDRO ALVES OFICIAL DO MP ATIVO PARÁ DE MINAS - COMARCA; PARA DE MINAS-PJ-05PJ 4.063,61 812,72 0,00 4.429,40 1.625,44 0,00 10.931,17 1.146,53 1.184,74 0,00 2.331,27 8.599,90 352,00 1.117,32 31/12/2012
41 318900 AILTON DE CASTRO RIBEIRO JUNIOR OFICIAL DO MP ATIVO POUSO ALEGRE - COMARCA; POUSO ALEGRE-PJ-03PJ 3.811,39 381,14 0,00 2.096,26 0,00 0,00 6.288,79 691,77 251,14 0,00 942,91 5.345,88 352,00 0,00 31/12/2012
42 464400 ALAN MONTEIRO GASPAR ANALISTA DO MP ATIVO SETE LAGOAS - COMARCA; SETE LAGOAS-PJ-03PJ 4.473,58 0,00 0,00 2.236,79 0,00 0,00 6.710,37 984,18 662,53 0,00 1.646,71 5.063,66 3.567,68 241,18 31/12/2012
43 492000 ALANA DE CASTRO FREITAS OFICIAL DO MP ATIVO BOM SUCESSO - COMARCA; BOM SUCESSO-PJ-UNPJ 2.637,71 0,00 0,00 1.360,43 0,00 0,00 3.998,14 580,30 101,05 0,00 681,35 3.316,79 352,00 0,00 31/12/2012
44 306700 ALANA MARCIA DE OLIVEIRA OFICIAL DO MP ATIVO BELO HORIZONTE - COMARCA; DIRETORIA DE ADMINISTRACAO FINANCEIRA 4.769,54 476,95 0,00 2.938,76 1.748,83 0,00 9.934,08 1.154,22 1.224,34 0,00 2.378,56 7.555,52 352,00 0,00 31/12/2012
45 324500 ALANMAR COUTINHO COSTA OFICIAL DO MP ATIVO LEOPOLDINA - COMARCA; LEOPOLDINA-PJ-02PJ 3.811,39 381,14 0,00 2.096,26 1.397,51 0,00 7.686,30 922,36 438,33 0,00 1.360,69 6.325,61 587,00 0,00 31/12/2012
46 508200 ALBERTO DA SILVA VIEIRA ASSESSOR ATIVO BELO HORIZONTE - COMARCA; SEC ESPECIAL DE PLANEJAMENTO ESTRATEGICO 0,00 0,00 7.842,84 3.921,42 0,00 0,00 11.764,26 861,56 2.529,53 0,00 3.391,09 8.373,17 352,00 0,00 31/12/2012
47 407300 ALBERTO LUIZ SOARES DE OLIVEIRA ANALISTA DO MP ATIVO BELO HORIZONTE - COMARCA; SUPERINTENDÊNCIA DE ENGENHARIA E ARQUITETURA 5.598,22 335,89 0,00 5.934,11 0,00 0,00 11.868,22 1.305,50 1.357,63 0,00 2.663,13 9.205,09 352,00 0,00 31/12/2012
48 118200 ALBERTO PEREIRA DA COSTA OFICIAL DO MP ATIVO DORES DO INDAIÁ - COMARCA; DORES DO INDAIA-PJ-UNPJ 7.595,56 5.316,90 0,00 6.456,23 0,00 0,00 19.368,69 2.840,74 4.680,99 0,00 7.521,73 11.846,96 352,00 0,00 31/12/2012
49 282400 ALCILENE MARISE DE ARAUJO ANALISTA DO MP ATIVO BELO HORIZONTE - COMARCA; BH-23PJ INF-FISC MED SOC FEC 8.361,90 836,19 0,00 5.020,53 0,00 0,00 14.218,62 2.023,58 2.770,26 0,00 4.793,84 9.424,78 352,00 0,00 31/12/2012
50 112600 ALCIONE DA MOTA JARDIM OFICIAL DO MP ATIVO BELO HORIZONTE - COMARCA; BELO HORIZONTE- SECRETARIA DAS PROMOTORIAS 6.267,25 2.506,91 0,00 4.248,71 2.924,72 0,00 15.947,59 1.991,20 3.391,86 0,00 5.383,06 10.564,53 587,00 830,19 31/12/2012
51 396400 ALCIONE DE FREITAS E SILVA ANALISTA DO MP ATIVO BELO HORIZONTE - COMARCA; DIRET DE PESSOAL DO MINISTERIO PUBLICO - DPMP 6.069,59 1.213,92 0,00 3.641,75 2.427,84 0,00 13.353,10 1.201,78 2.172,76 0,00 3.374,54 9.978,56 352,00 0,00 31/12/2012
52 161600 ALCIONE NERY SOUZA ASSESSOR ATIVO BELO HORIZONTE - COMARCA; BH-15PJ M AMB PAT HIST CULT 0,00 1.679,47 5.598,22 3.638,84 0,00 0,00 10.916,53 861,56 2.218,69 0,00 3.080,25 7.836,28 352,00 0,00 31/12/2012
53 376000 ALDA GOMES LANA OFICIAL DO MP ATIVO BELO HORIZONTE - COMARCA; BH-18PJ VIOLENCIA DOMESTICA 4.332,50 259,95 0,00 2.506,66 0,00 0,00 7.099,11 1.010,34 634,40 0,00 1.644,74 5.454,37 352,00 0,00 31/12/2012
54 148000 ALDA MARTINS SIMOES OFICIAL DO MP ATIVO BELO HORIZONTE - COMARCA; BH-23PJ CIVEL- FISC ENT AB POL 8.361,90 2.508,57 0,00 5.933,35 0,00 0,00 16.803,82 2.391,50 3.773,99 0,00 6.165,49 10.638,33 352,00 0,00 31/12/2012
55 318400 ALDO CREPALDI JUNIOR OFICIAL DO MP ATIVO BELO HORIZONTE - COMARCA; EXTINTA - DIVISAO DE MATERIAL DE CONSUMO 4.332,50 433,25 0,00 2.307,73 0,00 0,00 7.073,48 827,67 506,18 0,00 1.333,85 5.739,63 737,29 512,24 31/12/2012
56 118400 ALECIO JOSE GUIMARAES DE OLIVEIRA ANALISTA DO MP ATIVO BOM SUCESSO - COMARCA; BOM SUCESSO-PJ-UNPJ 11.931,59 9.545,28 0,00 10.738,43 0,00 0,00 32.215,30 4.724,92 8.688,18 0,00 13.413,10 18.802,20 352,00 0,00 31/12/2012
57 197900 ALESSA DE SOUSA E SILVA OFICIAL DO MP ATIVO OLIVEIRA - COMARCA; OLIVEIRA-PJ-02PJ 7.356,10 1.471,22 0,00 4.413,66 0,00 0,00 13.240,98 1.942,02 2.681,31 0,00 4.623,33 8.617,65 406,00 0,00 31/12/2012
58 428500 ALESSANDRA ALVES DINIZ OFICIAL DO MP ATIVO BELO HORIZONTE - COMARCA; BH-17PJ PATRIMONIO PUBLICO 2.998,37 899,51 0,00 3.897,88 0,00 0,00 7.795,76 857,54 431,95 0,00 1.289,49 6.506,27 352,00 0,00 31/12/2012
59 286801 ALESSANDRA BOTELHO JUNQUEIRA DE MENEZES ANALISTA DO MP ATIVO PASSOS - COMARCA; PASSOS-PJ-05PJ 5.598,22 1.119,64 0,00 3.358,93 2.239,29 0,00 12.316,08 1.477,92 2.264,54 0,00 3.742,46 8.573,62 352,00 0,00 31/12/2012
60 307000 ALESSANDRA CRISTINA SANTOS MENDES ANALISTA DO MP ATIVO OURO PRETO - COMARCA; OURO PRETO-PJ-02PJ 5.878,19 587,82 0,00 3.286,73 0,00 0,00 9.752,74 1.072,80 1.218,14 0,00 2.290,94 7.461,80 352,00 0,00 31/12/2012
61 264400 ALESSANDRA DE SOUZA SANTOS COORDENADOR/ANALISTA ATIVO BELO HORIZONTE - COMARCA; DIRETORIA DE PRODUCAO EDITORIAL 8.634,11 4.431,32 0,00 6.709,65 0,00 0,00 19.775,08 2.469,36 4.959,81 0,00 7.429,17 12.345,91 352,00 0,00 31/12/2012
62 441500 ALESSANDRA DRUMMOND DE FIGUEIREDO ROSSI ANALISTA DO MP ATIVO BELO HORIZONTE - COMARCA; DIVIS DE PROJETOS DE ENGENHARIA E ARQUITETURA 4.619,20 277,15 0,00 2.659,56 0,00 0,00 7.555,91 1.077,20 849,65 0,00 1.926,85 5.629,06 352,00 0,00 31/12/2012
63 524000 ALESSANDRA LUCIOLI DE BARROS GUERRA ANALISTA DO MP ATIVO BELO HORIZONTE - COMARCA; BH-12PJ JUIZO CRIMINAL-GAB 094PJ 3.935,44 0,00 0,00 1.967,72 1.311,81 0,00 7.214,97 829,73 708,17 0,00 1.537,90 5.677,07 352,00 0,00 31/12/2012
64 479900 ALESSANDRA MARA ANDRADE DE FARIA OFICIAL DO MP ATIVO UBERABA - COMARCA; UBERABA-PJ-05PJ 2.903,86 0,00 0,00 2.903,86 0,00 0,00 5.807,72 638,84 147,94 0,00 786,78 5.020,94 3.145,09 116,15 31/12/2012
65 226700 ALESSANDRA MARA VASCONCELOS REZENDE OFICIAL DO MP ATIVO CONSELHEIRO LAFAIETE - COMARCA; CONSELHEIRO LAFAIETE-PJ-07PJ 4.195,87 839,17 0,00 2.517,52 0,00 0,00 7.552,56 1.107,70 917,55 0,00 2.025,25 5.527,31 352,00 0,00 31/12/2012
66 112100 ALESSANDRA MARCIA FERREIRA OFICIAL DO MP ATIVO BELO HORIZONTE - COMARCA; BELO HORIZONTE- SECRETARIA DAS PROMOTORIAS 6.471,28 2.588,51 0,00 4.529,89 0,00 0,00 13.589,68 1.993,16 2.795,11 0,00 4.788,27 8.801,41 352,00 0,00 31/12/2012
67 196500 ALESSANDRA MARIA RIBEIRO LUCIANO OFICIAL DO MP ATIVO RIO PARANAÍBA - COMARCA; RIO PARANAIBA-PJ-UNPJ 7.356,10 2.206,83 0,00 4.630,68 0,00 0,00 14.193,61 2.170,18 3.060,14 0,00 5.230,32 8.963,29 587,00 904,68 31/12/2012
68 91400 ALESSANDRA MENDES VASCONCELOS DE SOUZA OFICIAL DO MP ATIVO BELO HORIZONTE - COMARCA; BH-23PJ INF-FISC MED SOC AB 9.814,62 4.907,31 0,00 7.593,05 4.907,31 0,00 27.222,29 3.238,82 6.823,70 0,00 10.062,52 17.159,77 352,00 0,00 31/12/2012
69 384900 ALESSANDRA RODRIGUES ANALISTA DO MP ATIVO VISCONDE DO RIO BRANCO - COMARCA; VISCONDE DO RIO BRANCO-PJ-03PJ 6.069,59 364,18 0,00 3.216,88 2.144,59 0,00 11.795,24 1.415,42 2.006,90 0,00 3.422,32 8.372,92 352,00 0,00 31/12/2012
70 390000 ALESSANDRA SPADANO MASSARA VASCONCELOS OFICIAL DO MP ATIVO BETIM - COMARCA; BETIM-PJ-SECRETARIA 4.332,50 259,95 0,00 2.085,78 0,00 0,00 6.678,23 1.102,93 625,85 0,00 1.728,78 4.949,45 352,00 1.262,64 31/12/2012
71 426500 ALESSANDRO CAMPOS DE PAIVA ASSESSOR/ANALISTA ATIVO BELO HORIZONTE - COMARCA; DIRETORIA DE PUBLICIDADE INSTITUCIONAL 0,00 427,45 7.124,13 3.775,79 0,00 0,00 11.327,37 1.305,50 2.247,25 0,00 3.552,75 7.774,62 352,00 0,00 31/12/2012
72 420600 ALESSANDRO SILVA OFICIAL DO MP ATIVO VISCONDE DO RIO BRANCO - COMARCA; VISCONDE DO RIO BRANCO-PJ-02PJ 2.998,37 599,67 0,00 1.799,02 1.199,35 0,00 6.596,41 923,87 599,87 0,00 1.523,74 5.072,67 352,00 1.202,76 31/12/2012
73 375300 ALETHEIA PATRICIA ASSIS MORAIS MOREIRA OFICIAL DO MP ATIVO ITABIRA - COMARCA; ITABIRA-PJ-02PJ 4.332,50 259,95 0,00 4.592,45 0,00 0,00 9.184,90 1.010,34 710,13 0,00 1.720,47 7.464,43 352,00 0,00 31/12/2012
74 382300 ALEX CARVALHO LIMA ANALISTA DO MP ATIVO UBERLÂNDIA - COMARCA; UBERLANDIA-PJ-14PJ 5.085,23 305,11 0,00 5.390,34 0,00 0,00 10.780,68 1.185,88 988,84 0,00 2.174,72 8.605,96 352,00 0,00 31/12/2012
75 195201 ALEX DE CASTRO PEREIRA ANALISTA DO MP ATIVO UBERABA - COMARCA; UBERABA-PJ-09PJ 8.361,90 1.672,38 0,00 10.034,28 3.344,76 0,00 23.413,32 2.207,54 4.284,48 0,00 6.492,02 16.921,30 352,00 0,00 31/12/2012
76 358900 ALEX DE PAULA LANZA ASSESSOR ATIVO BELO HORIZONTE - COMARCA; SUPERINTENDENCIA DE COMUNICACAO INTEGRADA 0,00 0,00 5.598,22 2.799,11 0,00 0,00 8.397,33 861,56 1.294,99 0,00 2.156,55 6.240,78 352,00 0,00 31/12/2012
77 178400 ALEX RODRIGO SALDANHA GUIMARAES OFICIAL DO MP ATIVO BELO HORIZONTE - COMARCA; DIRETORIA DE SISTEMAS DE INFORMACAO 4.195,87 839,17 0,00 2.517,52 0,00 0,00 7.552,56 1.107,70 917,55 0,00 2.025,25 5.527,31 352,00 0,00 31/12/2012
78 289200 ALEX SANDRO PEREIRA DE MATOS OFICIAL DO MP ATIVO BELO HORIZONTE - COMARCA; EXTINTA - SECRETARIA ADMINISTRATIVA 4.195,87 419,59 0,00 2.307,73 0,00 0,00 6.923,19 761,55 533,80 0,00 1.295,35 5.627,84 352,00 0,00 31/12/2012
79 413500 ALEX VILELA OLIVEIRA ANALISTA DO MP ATIVO GOVERNADOR VALADARES - COMARCA; COORD REG PJ DEF EDU DIR CRIANCA ADOL RIODOCE 6.069,59 364,18 0,00 5.934,11 0,00 0,00 12.367,88 1.488,70 1.479,93 0,00 2.968,63 9.399,25 352,00 1.165,85 31/12/2012
80 264300 ALEXANDRA FATIMA SARAIVA SOARES ANALISTA DO MP ATIVO BELO HORIZONTE - COMARCA; CENTRAL DE APOIO TECN-SETOR DE MEIO AMBIENTE 8.634,11 863,41 0,00 4.898,47 3.165,84 0,00 17.561,83 2.089,46 3.972,53 0,00 6.061,99 11.499,84 352,00 0,00 31/12/2012
81 488000 ALEXANDRA LARA PAIS DE CARVALHO ANALISTA DO MP ATIVO GUANHÃES - COMARCA; GUANHAES-PJ-SECRETARIA 4.473,58 0,00 0,00 4.473,58 0,00 0,00 8.947,16 984,18 511,08 0,00 1.495,26 7.451,90 587,00 0,00 31/12/2012
82 256300 ALEXANDRA SANTOS GOMES OFICIAL DO MP ATIVO BELO HORIZONTE - COMARCA; EXTINTA - DIVISÃO DE COMPRAS 4.619,20 923,84 0,00 3.002,48 0,00 0,00 8.545,52 1.355,34 1.468,54 0,00 2.823,88 5.721,64 352,00 1.235,26 31/12/2012
83 403300 ALEXANDRE AUGUSTO RODRIGUES ANALISTA DO MP ATIVO ÁGUAS FORMOSAS - COMARCA; AGUAS FORMOSAS-PJ-UNPJ 5.598,22 335,89 0,00 3.238,94 0,00 0,00 9.173,05 1.305,50 1.357,63 0,00 2.663,13 6.509,92 352,00 0,00 31/12/2012
84 311700 ALEXANDRE BARCELOS RESENDE OFICIAL DO MP ATIVO BELO HORIZONTE - COMARCA; GAECO - SECRETARIA 3.691,17 369,12 0,00 2.471,15 1.353,43 0,00 7.884,87 893,26 836,29 0,00 1.729,55 6.155,32 352,00 0,00 31/12/2012
85 285600 ALEXANDRE CAMPOS DE OLIVEIRA OFICIAL DO MP ATIVO UBERABA - COMARCA; COORD REG BACIAS PARANAIBA BAIXO RIO GRANDE 5.250,75 525,08 0,00 2.978,95 1.925,28 0,00 10.680,06 1.270,68 1.624,52 0,00 2.895,20 7.784,86 587,00 0,00 31/12/2012
86 509200 ALEXANDRE CAPUANO DE REZENDE ANALISTA DO MP ATIVO BELO HORIZONTE - COMARCA; PROC. JUSTICA DE HABEAS CORPUS 4.924,85 0,00 0,00 4.924,85 0,00 0,00 9.849,70 1.083,46 863,61 0,00 1.947,07 7.902,63 352,00 0,00 31/12/2012
87 229400 ALEXANDRE CARLOS BOTREL DIRETOR/OFICIAL ATIVO BELO HORIZONTE - COMARCA; SUPERINTENDENCIA DOS ORGAOS COLEGIADOS 0,00 2.386,32 11.931,59 7.158,95 4.772,64 0,00 26.249,50 1.342,50 7.271,03 0,00 8.613,53 17.635,97 352,00 0,00 31/12/2012
88 411900 ALEXANDRE CARVALHO SANTOS RIBEIRO ANALISTA DO MP ATIVO PERDÕES - COMARCA; PERDOES-PJ-UNPJ 6.069,59 364,18 0,00 5.934,11 0,00 0,00 12.367,88 1.490,53 1.479,93 0,00 2.970,46 9.397,42 352,00 1.182,51 31/12/2012
89 201200 ALEXANDRE DE ALENCAR CORDEIRO OFICIAL DO MP ATIVO ÁGUAS FORMOSAS - COMARCA; AGUAS FORMOSAS-PJ-UNPJ 4.195,87 1.258,76 0,00 2.727,31 0,00 0,00 8.181,94 1.200,02 937,84 0,00 2.137,86 6.044,08 352,00 0,00 31/12/2012
90 288200 ALEXANDRE DE VASCONCELOS COSTA KER ANALISTA DO MP ATIVO BELO HORIZONTE - COMARCA; BH-03PJ EMPRESARIAL-SECRETARIA 7.595,56 759,56 0,00 4.177,56 2.785,04 0,00 15.317,72 1.838,12 3.216,06 0,00 5.054,18 10.263,54 352,00 0,00 31/12/2012
91 445000 ALEXANDRE DIOGENES OLIVEIRA ANALISTA DO MP ATIVO SALINAS - COMARCA; SALINAS-PJ-02PJ 5.598,22 335,89 0,00 3.036,14 0,00 0,00 8.970,25 1.331,57 1.311,84 0,00 2.643,41 6.326,84 352,00 424,13 31/12/2012
92 463400 ALEXANDRE LEAL WINKELSTROTER ANALISTA DO MP ATIVO TEÓFILO OTONI - COMARCA; TEOFILO OTONI-PJ-04PJ 4.473,58 0,00 0,00 2.031,80 1.491,19 0,00 7.996,57 1.063,86 976,00 0,00 2.039,86 5.956,71 515,99 1.146,55 31/12/2012
93 356900 ALEXANDRE MOISES MENDONCA E ARAUJO OFICIAL DO MP ATIVO UBERABA - COMARCA; UBERABA-PJ-13PJ 3.691,17 369,12 0,00 2.253,85 1.353,43 0,00 7.667,57 893,26 751,98 0,00 1.645,24 6.022,33 352,00 0,00 31/12/2012
94 469900 ALEXANDRE PEREIRA GUEDES ANALISTA DO MP ATIVO CATAGUASES - COMARCA; CATAGUASES-PJ-03PJ 4.924,85 0,00 0,00 2.462,42 0,00 0,00 7.387,27 1.083,46 863,61 0,00 1.947,07 5.440,20 352,00 0,00 31/12/2012
95 208700 ALEXANDRE RESENDE FRAGA ANALISTA DO MP ATIVO BELO HORIZONTE - COMARCA; BH-19PJ SAUDE 9.814,62 1.962,92 0,00 5.888,77 3.925,85 0,00 21.592,16 2.591,06 5.205,06 0,00 7.796,12 13.796,04 822,00 0,00 31/12/2012
96 216401 ALEXANDRE RIBEIRO DE LIMA MAIORINO ANALISTA DO MP ATIVO UBERABA - COMARCA; UBERABA-PJ-03PJ 7.595,56 1.519,11 0,00 4.557,33 0,00 0,00 13.672,00 2.005,22 2.821,97 0,00 4.827,19 8.844,81 587,00 0,00 31/12/2012
97 475100 ALEXANDRE TEOTONIO COSTA ANALISTA DO MP ATIVO ARAGUARI - COMARCA; ARAGUARI-PJ-01PJ 4.473,58 0,00 0,00 2.236,79 1.491,19 0,00 8.201,56 984,18 1.058,10 0,00 2.042,28 6.159,28 822,00 0,00 31/12/2012
98 339000 ALEXANDRE VITOR CARDOSO OFICIAL DO MP ATIVO BELO HORIZONTE - COMARCA; BH-17PJ PATRIMONIO PUBLICO 3.811,39 381,14 0,00 2.162,38 1.397,51 0,00 7.752,42 922,36 656,83 0,00 1.579,19 6.173,23 587,00 0,00 31/12/2012
99 513300 ALFSON MIRANDA BRAGA ANALISTA DO MP ATIVO BELO HORIZONTE - COMARCA; BH-12PJ JUIZO CRIMINAL-GAB 092PJ 4.473,58 0,00 0,00 2.166,25 0,00 0,00 6.639,83 1.002,81 634,27 0,00 1.637,08 5.002,75 352,00 310,38 31/12/2012
100 471000 ALICE TITONELI MOREIRA ANALISTA DO MP ATIVO MIRADOURO - COMARCA; MIRADOURO-PJ-UNPJ 5.421,69 0,00 0,00 2.462,42 0,00 0,00 7.884,11 1.435,09 1.211,24 0,00 2.646,33 5.237,78 885,10 2.892,66 31/12/2012
101 373000 ALINE BOTELHO RESENDE OFICIAL DO MP ATIVO PASSA QUATRO - COMARCA; PASSA QUATRO-PJ-SECRETARIA 3.574,80 214,49 0,00 1.894,64 1.263,10 0,00 6.947,03 833,64 690,86 0,00 1.524,50 5.422,53 352,00 0,00 31/12/2012
102 407700 ALINE CRISTINA RODRIGUES PEREIRA ANALISTA DO MP ATIVO BELO HORIZONTE - COMARCA; DIVIS DE PROJETOS DE ENGENHARIA E ARQUITETURA 5.085,23 305,11 0,00 2.448,17 0,00 0,00 7.838,51 1.285,50 970,56 0,00 2.256,06 5.582,45 587,00 1.399,64 31/12/2012
103 193100 ALINE CRISTINA SENA OLIVEIRA OFICIAL DO MP ATIVO UBERLÂNDIA - COMARCA; UBERLANDIA-PJ-03PJ 7.124,13 1.424,83 0,00 3.878,94 2.849,65 0,00 15.277,55 2.107,00 3.077,05 0,00 5.184,05 10.093,50 352,00 3.084,78 31/12/2012
104 505500 ALINE DA CUNHA MARREIROS OLIVEIRA ANALISTA DO MP ATIVO CARANGOLA - COMARCA; CARANGOLA-PJ-SECRETARIA 4.924,85 0,00 0,00 2.540,08 0,00 0,00 7.464,93 1.083,46 863,61 0,00 1.947,07 5.517,86 587,00 0,00 31/12/2012
105 433500 ALINE DE MELO QUEIROZ OFICIAL DO MP ATIVO BELO HORIZONTE - COMARCA; PROCON-MG-SECRETARIA DE FISCALIZACOES 3.574,80 214,49 0,00 2.029,63 0,00 0,00 5.818,92 833,64 391,93 0,00 1.225,57 4.593,35 352,00 0,00 31/12/2012
106 474800 ALINE DINIZ FERREIRA ANALISTA DO MP ATIVO OURO PRETO - COMARCA; OURO PRETO-PJ-02PJ 4.924,85 0,00 0,00 2.462,42 0,00 0,00 7.387,27 1.083,46 863,61 0,00 1.947,07 5.440,20 352,00 0,00 31/12/2012
107 330000 ALINE DIORIO MAYRINK OFICIAL DO MP ATIVO SETE LAGOAS - COMARCA; SETE LAGOAS-PJ-SECRETARIA 4.332,50 433,25 0,00 2.382,87 1.588,58 0,00 8.737,20 1.048,46 1.222,59 0,00 2.271,05 6.466,15 352,00 0,00 31/12/2012
108 499000 ALINE FERREIRA LOPES NEIVA ANALISTA DO MP ATIVO TEÓFILO OTONI - COMARCA; COORD. DE DEF. DO PAT. PUBLICO-JEQUIT./MUCURI 4.924,85 0,00 0,00 2.540,08 0,00 0,00 7.464,93 821,13 658,20 0,00 1.479,33 5.985,60 352,00 0,00 31/12/2012
109 405300 ALINE LAIA CARDOZO ANALISTA DO MP ATIVO BELO HORIZONTE - COMARCA; EXTINTA - DIRETORIA DE CONTRATOS E CONVÊNIOS 6.069,59 364,18 0,00 3.238,94 0,00 0,00 9.672,71 1.523,51 1.479,93 0,00 3.003,44 6.669,27 352,00 1.482,30 31/12/2012
110 278200 ALINE MARCIA FARIA BARBOSA OFICIAL DO MP ATIVO BARBACENA - COMARCA; BARBACENA-PJ-SECRETARIA 4.195,87 419,59 0,00 2.307,73 1.538,49 0,00 8.461,68 1.015,40 881,28 0,00 1.896,68 6.565,00 822,00 0,00 31/12/2012
111 496600 ALINE MENDES DE GODOY ANALISTA DO MP ATIVO BELO HORIZONTE - COMARCA; ASSESS TECNICO-JUR JUNTO AS PROC. DE JUST 4.924,85 0,00 0,00 2.758,60 0,00 0,00 7.683,45 1.083,46 863,61 0,00 1.947,07 5.736,38 352,00 0,00 31/12/2012
112 389000 ALINE NERI NOBRE ANALISTA DO MP ATIVO MONTES CLAROS - COMARCA; COORD REG PJ DEF EDUC DIR CRIANCA ADOL NORTE 6.069,59 1.213,92 0,00 3.641,75 0,00 0,00 10.925,26 1.739,72 2.323,76 0,00 4.063,48 6.861,78 352,00 1.248,60 31/12/2012
113 294600 ALINE PATRICIA SILVA VIEIRA OFICIAL DO MP ATIVO UBERLÂNDIA - COMARCA; UBERLANDIA-PJ-03PJ 5.250,75 525,08 0,00 2.978,95 1.925,28 0,00 10.680,06 1.270,68 1.717,07 0,00 2.987,75 7.692,31 587,00 0,00 31/12/2012
114 420000 ALINE RODRIGUES CAMOROPIN ANALISTA DO MP ATIVO SABARÁ - COMARCA; SABARA-PJ-02PJ 5.598,22 335,89 0,00 2.967,05 0,00 0,00 8.901,16 1.305,50 1.357,63 0,00 2.663,13 6.238,03 352,00 0,00 31/12/2012
115 408300 ALINE SILVA ARAUJO DE PAULA ANALISTA DO MP ATIVO SÃO SEBASTIÃO DO PARAÍSO - COMARCA; SAO SEBASTIAO DO PARAISO-PJ-02PJ 6.069,59 364,18 0,00 2.967,05 0,00 0,00 9.400,82 1.516,18 1.479,93 0,00 2.996,11 6.404,71 352,00 1.415,68 31/12/2012
116 425400 ALINE TRINDADE DE FREITAS CAMPOS OFICIAL DO MP ATIVO BETIM - COMARCA; BETIM-PJ-11PJ 3.574,80 214,49 0,00 1.894,64 0,00 0,00 5.683,93 894,38 499,04 0,00 1.393,42 4.290,51 352,00 552,16 31/12/2012
117 517200 ALISSOM PEREIRA DA SILVA ANALISTA DO MP ATIVO BORDA DA MATA - COMARCA; BORDA DA MATA-PJ-UNPJ 4.332,50 0,00 0,00 2.166,25 0,00 0,00 6.498,75 953,16 606,01 0,00 1.559,17 4.939,58 352,00 0,00 31/12/2012
118 442400 ALISSON LABRE ANALISTA DO MP ATIVO VARGINHA - COMARCA; VARGINHA-PJ-02PJ 5.598,22 335,89 0,00 3.036,14 1.978,04 0,00 10.948,29 1.338,43 1.855,81 0,00 3.194,24 7.754,05 352,00 486,51 31/12/2012
119 349000 ALLEC RODRIGUES VIEIRA ASSESSOR/OFICIAL ATIVO BELO HORIZONTE - COMARCA; PROCURADOR-GERAL DE JUSTICA- GABINETE 0,00 784,28 7.842,84 4.313,56 0,00 0,00 12.940,68 1.933,20 2.666,18 0,00 4.599,38 8.341,30 352,00 0,00 31/12/2012
120 297300 ALLYSON SALIBA MONTEIRO LAIZO ANALISTA DO MP ATIVO CONSELHEIRO LAFAIETE - COMARCA; CONSELHEIRO LAFAIETE-PJ-03PJ 7.595,56 759,56 0,00 4.045,85 2.785,04 0,00 15.186,01 1.896,08 3.244,14 0,00 5.140,22 10.045,79 352,00 790,23 31/12/2012
121 303700 ALMIR LOPES LOURES ANALISTA DO MP ATIVO BELO HORIZONTE - COMARCA; CENTRAL DE APOIO TECN-SETOR DE MEIO AMBIENTE 8.361,90 836,19 0,00 4.599,04 3.066,03 0,00 16.863,16 1.517,68 2.911,32 0,00 4.429,00 12.434,16 352,00 0,00 31/12/2012
122 515900 ALTAIR NEVES JUNIOR OFICIAL DO MP ATIVO BELO HORIZONTE - COMARCA; BH-03PJ EMPRESARIAL-SECRETARIA 2.812,27 0,00 0,00 2.812,27 0,00 0,00 5.624,54 618,70 128,05 0,00 746,75 4.877,79 352,00 0,00 31/12/2012
123 233300 ALVARINDO BATISTA ANALISTA DO MP ATIVO BELO HORIZONTE - COMARCA; SUPERINTENDENCIA DE COMUNICACAO INTEGRADA 9.814,62 1.962,92 0,00 6.074,44 0,00 0,00 17.851,98 2.591,06 4.125,45 0,00 6.716,51 11.135,47 352,00 0,00 31/12/2012
124 274100 ALYSSON CARVALHO VIDAL DE LACERDA OFICIAL DO MP ATIVO MANHUAÇU - COMARCA; MANHUACU-PJ-01PJ 5.421,69 542,17 0,00 2.887,91 0,00 0,00 8.851,77 1.353,41 1.326,18 0,00 2.679,59 6.172,18 352,00 564,09 31/12/2012
125 521700 AMANDA CRISTINA AGUIAR MACHADO OFICIAL DO MP ATIVO BARBACENA - COMARCA; BARBACENA-PJ-03PJ 2.554,55 0,00 0,00 1.277,27 851,52 0,00 4.683,34 562,00 195,90 0,00 757,90 3.925,44 352,00 0,00 31/12/2012
126 520800 AMANDA DE SOUZA MACHADO ANALISTA DO MP ATIVO BAEPENDI - COMARCA; BAEPENDI-PJ-UNPJ 4.332,50 0,00 0,00 2.166,25 0,00 0,00 6.498,75 953,16 606,01 0,00 1.559,17 4.939,58 587,00 0,00 31/12/2012
127 501800 AMANDA LIMA TEIXEIRA COSTA OFICIAL DO MP ATIVO CATAGUASES - COMARCA; CATAGUASES-PJ-04PJ 2.903,86 0,00 0,00 1.497,72 0,00 0,00 4.401,58 638,84 147,94 0,00 786,78 3.614,80 587,00 0,00 31/12/2012
128 434400 AMARILIS ASSIS SIMAO CURCIO ANALISTA DO MP ATIVO BELO HORIZONTE - COMARCA; ASSESS TECNICO-JUR JUNTO AS PROC. DE JUST 5.085,23 305,11 0,00 3.153,55 0,00 0,00 8.543,89 1.185,88 1.091,47 0,00 2.277,35 6.266,54 587,00 0,00 31/12/2012
129 273700 AMBROLINA CARNEIRO DE VASCONCELOS OFICIAL DO MP ATIVO FRUTAL - COMARCA; FRUTAL-PJ-03PJ 5.085,23 2.034,09 0,00 3.559,66 2.373,11 0,00 13.052,09 1.666,94 2.721,88 0,00 4.388,82 8.663,27 352,00 915,30 31/12/2012
130 58000 AMELIA GUARIZE DE CASTRO OFICIAL DO MP ATIVO JUIZ DE FORA - COMARCA; JUIZ DE FORA-PJ-SECRETARIA 4.619,20 4.157,28 0,00 4.388,24 0,00 965,41 14.130,13 1.930,82 3.279,95 0,00 5.210,77 8.919,36 352,00 965,41 31/12/2012
131 324301 AMERICA SUELI FERREIRA DA SILVA ANALISTA DO MP ATIVO MONTE CARMELO - COMARCA; MONTE CARMELO-PJ-02PJ 5.421,69 0,00 0,00 2.462,42 0,00 0,00 7.884,11 1.263,82 985,21 0,00 2.249,03 5.635,08 352,00 1.142,73 31/12/2012
132 273300 AMUJACY DE BRITO ASSIZ OFICIAL DO MP ATIVO BELO HORIZONTE - COMARCA; BH-12PJ JUIZO CRIMINAL-SECRETARIA 4.332,50 433,25 0,00 2.458,02 0,00 0,00 7.223,77 1.286,62 1.223,61 0,00 2.510,23 4.713,54 587,00 2.165,05 31/12/2012
133 482200 ANA ALICE LOPES ACHTSCHIN ANALISTA DO MP ATIVO BELO HORIZONTE - COMARCA; PROC JUST RECURSOS ESP E EXTRAORD CRIMINAIS 4.473,58 0,00 0,00 4.473,58 0,00 0,00 8.947,16 984,18 662,53 0,00 1.646,71 7.300,45 352,00 0,00 31/12/2012
134 490400 ANA AMELIA PAULINO GARCIA OFICIAL DO MP ATIVO GRAO MOGOL - COMARCA; GRAO MOGOL-PJ-UNPJ 3.196,81 0,00 0,00 1.648,81 0,00 0,00 4.845,62 703,30 226,14 0,00 929,44 3.916,18 352,00 0,00 31/12/2012
135 279100 ANA CAROLINA ARAUJO PEREIRA ANALISTA DO MP ATIVO BELO HORIZONTE - COMARCA; DIVIS DE PROJETOS DE ENGENHARIA E ARQUITETURA 7.356,10 735,61 0,00 4.045,85 0,00 0,00 12.137,56 1.335,13 1.801,83 0,00 3.136,96 9.000,60 352,00 0,00 31/12/2012
136 359400 ANA CAROLINA DE ABREU FARIA ASSESSOR ATIVO BELO HORIZONTE - COMARCA; SUPERINTENDÊNCIA DE ENGENHARIA E ARQUITETURA 0,00 0,00 3.519,31 1.759,65 1.173,10 0,00 6.452,06 812,96 546,01 0,00 1.358,97 5.093,09 352,00 0,00 31/12/2012
137 408500 ANA CAROLINA DE CASTRO CARVALHO ANALISTA DO MP ATIVO BARBACENA - COMARCA; BARBACENA-PJ-SECRETARIA 6.069,59 364,18 0,00 2.967,05 0,00 0,00 9.400,82 1.516,18 1.479,93 0,00 2.996,11 6.404,71 352,00 1.415,68 31/12/2012
138 420200 ANA CAROLINA FERNANDES SILVA ANALISTA DO MP ATIVO BELO HORIZONTE - COMARCA; PROC. JUSTICA DE HABEAS CORPUS 5.085,23 305,11 0,00 2.695,17 0,00 0,00 8.085,51 1.185,88 1.091,47 0,00 2.277,35 5.808,16 352,00 0,00 31/12/2012
139 522100 ANA CAROLINA FERNANDINO VIDAL PEREIRA SANTOS OFICIAL DO MP ATIVO BELO HORIZONTE - COMARCA; EXTINTA - SECRETARIA ADMINISTRATIVA 2.554,55 0,00 0,00 2.554,55 0,00 0,00 5.109,10 562,00 89,95 0,00 651,95 4.457,15 587,00 0,00 31/12/2012
140 502400 ANA CAROLINA GONCALVES FERNANDES ANALISTA DO MP ATIVO IPATINGA - COMARCA; IPATINGA-PJ-SECRETARIA 4.924,85 0,00 0,00 2.540,08 0,00 0,00 7.464,93 1.083,46 863,61 0,00 1.947,07 5.517,86 352,00 0,00 31/12/2012
141 431900 ANA CAROLINA MOTTA GUATIMOSIM ANALISTA DO MP ATIVO BELO HORIZONTE - COMARCA; PROC. JUSTICA DE HABEAS CORPUS 5.598,22 335,89 0,00 3.060,61 0,00 0,00 8.994,72 1.305,50 1.357,63 0,00 2.663,13 6.331,59 352,00 0,00 31/12/2012
142 322500 ANA CAROLINA TOSTES DIB OFICIAL DO MP ATIVO BELO HORIZONTE - COMARCA; GAECO - SECRETARIA 3.811,39 381,14 0,00 2.096,26 0,00 0,00 6.288,79 922,36 549,95 0,00 1.472,31 4.816,48 352,00 0,00 31/12/2012
143 490600 ANA CAROLINA XAVIER GODOY ANALISTA DO MP ATIVO BELO HORIZONTE - COMARCA; BH-18PJ VIOLENCIA DOMESTICA 4.924,85 0,00 0,00 2.540,08 0,00 0,00 7.464,93 821,13 658,20 0,00 1.479,33 5.985,60 352,00 0,00 31/12/2012
144 324800 ANA CECILIA MENDES DA SILVA OFICIAL DO MP ATIVO OURO FINO - COMARCA; OURO FINO-PJ-01PJ 5.085,23 1.017,05 0,00 6.102,28 0,00 0,00 12.204,56 1.342,50 1.439,95 0,00 2.782,45 9.422,11 587,00 0,00 31/12/2012
145 219400 ANA CELIA DE ALMEIDA SOARES COORDENADOR/OFICIAL ATIVO BELO HORIZONTE - COMARCA; DIVISAO DE DOCUMENTACAO JURIDICA 0,00 1.619,64 8.098,20 4.858,92 3.239,28 0,00 17.816,04 1.526,06 4.268,83 0,00 5.794,89 12.021,15 352,00 0,00 31/12/2012
146 441300 ANA CLAUDIA ALKIMIM MIRANDA BOMTEMPO ANALISTA DO MP ATIVO MONTES CLAROS - COMARCA; MONTES CLAROS-PJ-11PJ 5.598,22 335,89 0,00 3.223,26 0,00 0,00 9.157,37 1.305,50 1.265,09 0,00 2.570,59 6.586,78 587,00 0,00 31/12/2012
147 461200 ANA CRISTINA ALVES ANALISTA DO MP ATIVO SANTA LUZIA - COMARCA; SANTA LUZIA-PJ-03PJ 4.473,58 0,00 0,00 2.236,79 1.491,19 0,00 8.201,56 984,18 1.058,10 0,00 2.042,28 6.159,28 587,00 0,00 31/12/2012
148 379300 ANA CRISTINA ALVES FLAVIO ANALISTA DO MP ATIVO SÃO GOTARDO - COMARCA; SAO GOTARDO-PJ-01PJ 6.069,59 364,18 0,00 3.216,88 0,00 0,00 9.650,65 1.415,42 1.509,67 0,00 2.925,09 6.725,56 354,41 0,22 31/12/2012
149 514100 ANA CRISTINA ARAUJO ASSUNCAO ANALISTA DO MP ATIVO BELO HORIZONTE - COMARCA; BH-14PJ DEFESA CONSUMIDOR-SECRETARIA 4.332,50 0,00 0,00 4.332,50 0,00 0,00 8.665,00 953,16 606,01 0,00 1.559,17 7.105,83 352,00 0,00 31/12/2012
150 113400 ANA CRISTINA BRAGA ALBUQUERQUE ASSESSOR/ANALISTA ATIVO BELO HORIZONTE - COMARCA; ASSESS ESP ADM E FINANCEIRA DO PGJ ADJ ADM 20.616,95 11.969,71 0,00 12.058,81 8.039,21 0,00 52.684,68 5.305,88 12.469,25 8.469,04 26.244,17 26.440,51 352,00 0,00 31/12/2012
151 233800 ANA CRISTINA BRAGA SOARES RIOS OFICIAL DO MP ATIVO CONTAGEM - COMARCA; CONTAGEM-PJ-SECRETARIA 4.924,85 984,97 0,00 3.048,09 0,00 0,00 8.957,91 1.300,16 1.345,75 0,00 2.645,91 6.312,00 352,00 0,00 31/12/2012
152 186400 ANA CRISTINA DE AZEVEDO LOPES OFICIAL DO MP ATIVO UBÁ - COMARCA; UBA-PJ-01PJ 7.124,13 1.424,83 0,00 4.788,61 2.849,65 0,00 16.187,22 1.467,14 2.739,34 0,00 4.206,48 11.980,74 352,00 0,00 31/12/2012
153 465100 ANA CRISTINA DE OLIVEIRA GUIMARAES ANALISTA DO MP ATIVO BRASÓPOLIS - COMARCA; BRASOPOLIS-PJ-UNPJ 4.924,85 0,00 0,00 2.236,79 0,00 0,00 7.161,64 1.159,57 758,47 0,00 1.918,04 5.243,60 352,00 1.143,22 31/12/2012
154 500600 ANA CRISTINA LATADO SUDARIO ANALISTA DO MP ATIVO UBERLÂNDIA - COMARCA; UBERLANDIA-PJ-07PJ 4.473,58 0,00 0,00 2.307,33 0,00 0,00 6.780,91 984,18 662,53 0,00 1.646,71 5.134,20 352,00 0,00 31/12/2012
155 331400 ANA CRISTINA RIBEIRO ALVES OFICIAL DO MP ATIVO BAMBUÍ - COMARCA; BAMBUI-PJ-SECRETARIA 4.473,58 447,36 0,00 2.460,47 0,00 0,00 7.381,41 1.082,60 861,69 0,00 1.944,29 5.437,12 352,00 0,00 31/12/2012
156 249300 ANA ELOINA MARTINS DO PINHO OFICIAL DO MP ATIVO BETIM - COMARCA; BETIM-PJ-06PJ 5.780,51 1.734,15 0,00 4.209,26 0,00 0,00 11.723,92 1.653,22 2.038,77 0,00 3.691,99 8.031,93 352,00 0,00 31/12/2012
157 257400 ANA FLAVIA CAMBRAIA ANALISTA DO MP ATIVO BELO HORIZONTE - COMARCA; BH-19PJ SAUDE-ASS TECNICA 8.634,11 1.726,82 0,00 4.898,47 3.453,64 0,00 18.713,04 2.374,39 4.381,77 0,00 6.756,16 11.956,88 352,00 1.726,82 31/12/2012
158 248201 ANA FLAVIA DE MORAIS SOUZA ANALISTA DO MP ATIVO DIVINÓPOLIS - COMARCA; DIVINOPOLIS-PJ-01PJ 5.421,69 1.084,34 0,00 2.954,91 2.168,68 0,00 11.629,62 1.555,93 2.088,06 0,00 3.643,99 7.985,63 352,00 1.729,01 31/12/2012
159 238600 ANA FLAVIA FRANCO CAMPOS OFICIAL DO MP ATIVO BELO HORIZONTE - COMARCA; DIRETORIA DE PESSOAL ADMINISTRATIVO - DPAD 5.780,51 1.156,10 0,00 3.577,68 0,00 0,00 10.514,29 1.526,06 1.755,81 0,00 3.281,87 7.232,42 352,00 0,00 31/12/2012
160 402900 ANA FLAVIA PORTES DE CARVALHO ANALISTA DO MP ATIVO BELO HORIZONTE - COMARCA; DIRET DE PLANOS PROJETOS E PROGRAMAS INST 6.069,59 364,18 0,00 3.466,71 0,00 0,00 9.900,48 1.415,42 1.509,67 0,00 2.925,09 6.975,39 3.802,68 294,77 31/12/2012
161 382700 ANA KARENINA SALDANHA GONTIJO ANALISTA DO MP ATIVO BELO HORIZONTE - COMARCA; ASSESS TECNICO-JUR JUNTO AS PROC. DE JUST 5.598,22 335,89 0,00 2.967,05 0,00 0,00 8.901,16 1.305,50 1.357,63 0,00 2.663,13 6.238,03 352,00 0,00 31/12/2012
162 220000 ANA LUCIA AMORIM OFICIAL DO MP ATIVO MARTINHO CAMPOS - COMARCA; MARTINHO CAMPOS-PJ-SECRETARIA 5.085,23 2.034,10 0,00 3.885,89 0,00 0,00 11.005,22 1.566,26 1.937,81 0,00 3.504,07 7.501,15 352,00 0,00 31/12/2012
163 462200 ANA LUCIA ANDRADE TOMICH OTTONI ANALISTA DO MP ATIVO TEÓFILO OTONI - COMARCA; TEOFILO OTONI-PJ-06PJ 5.421,69 0,00 0,00 2.688,06 1.807,23 0,00 9.916,98 1.269,28 1.298,78 0,00 2.568,06 7.348,92 587,00 1.192,42 31/12/2012
164 504100 ANA LUCIA CATAO DE CARVALHO OFICIAL DO MP ATIVO BELO HORIZONTE - COMARCA; BH-09PJ AUDITORIA MILITAR 2.903,86 0,00 0,00 1.497,72 0,00 0,00 4.401,58 638,84 147,94 0,00 786,78 3.614,80 587,00 0,00 31/12/2012
165 274700 ANA LUCIA DE ALENCAR BRAGATO OFICIAL DO MP ATIVO UBERABA - COMARCA; UBERABA-PJ-04PJ 5.085,23 508,52 0,00 2.796,87 1.864,58 0,00 10.255,20 922,96 1.327,60 0,00 2.250,56 8.004,64 352,00 0,00 31/12/2012
166 258600 ANA LUCIA DE FREITAS AZEVEDO ANALISTA DO MP ATIVO BELO HORIZONTE - COMARCA; BH-19PJ SAUDE-ASS TECNICA 8.361,90 836,19 0,00 4.599,04 0,00 0,00 13.797,13 2.023,58 2.955,35 0,00 4.978,93 8.818,20 352,00 0,00 31/12/2012
167 509400 ANA LUCIA DORNELAS MALLOSTO ANALISTA DO MP ATIVO JUIZ DE FORA - COMARCA; JUIZ DE FORA-PJ-08PJ 4.063,61 0,00 0,00 2.095,89 1.354,54 0,00 7.514,04 894,00 838,08 0,00 1.732,08 5.781,96 352,00 0,00 31/12/2012
168 524600 ANA LUCIA DOS SANTOS FERNANDES COELHO ASSESSOR ATIVO BELO HORIZONTE - COMARCA; DIRET DE FORMACAO, APERFEIC. E POS-GRADUACAO 0,00 0,00 3.519,31 1.759,65 1.173,10 0,00 6.452,06 246,56 677,89 0,00 924,45 5.527,61 352,00 0,00 31/12/2012
169 302600 ANA LUCIA LOPES SANTOS OFICIAL DO MP ATIVO BELO HORIZONTE - COMARCA; PROCON-MG-SECRETARIA DE FISCALIZACOES 5.085,23 508,52 0,00 3.053,19 1.864,58 0,00 10.511,52 1.262,26 1.681,65 0,00 2.943,91 7.567,61 587,00 287,64 31/12/2012
170 493400 ANA LUISA NOGUEIRA MOREIRA ANALISTA DO MP ATIVO BELO HORIZONTE - COMARCA; TRIBUNAL DO JURI-07 PJ-02 TRIBUNAL 4.924,85 0,00 0,00 4.924,85 0,00 0,00 9.849,70 1.083,46 863,61 0,00 1.947,07 7.902,63 352,00 0,00 31/12/2012
171 389300 ANA LUISA REUTER LIMA ANALISTA DO MP ATIVO BELO HORIZONTE - COMARCA; DIRETORIA DE SISTEMAS DE INFORMACAO 5.085,23 305,11 0,00 2.695,17 1.796,78 0,00 9.882,29 1.185,88 1.585,58 0,00 2.771,46 7.110,83 352,00 0,00 31/12/2012
172 480600 ANA LUIZA FERNANDES FRAGA E GRECO OFICIAL DO MP ATIVO SANTO ANTÔNIO DO MONTE - COMARCA; SANTO ANTONIO DO MONTE-PJ-UNPJ 2.637,71 0,00 0,00 1.318,85 0,00 0,00 3.956,56 580,30 101,05 0,00 681,35 3.275,21 352,00 0,00 31/12/2012
173 517800 ANA LUIZA MAGALHAES CIRINO PIOTO BRAGA OFICIAL DO MP ATIVO BELO HORIZONTE - COMARCA; DIRETORIA DE MANUTENCAO PREDIAL 2.554,55 0,00 0,00 2.554,55 851,52 0,00 5.960,62 562,00 195,90 0,00 757,90 5.202,72 352,00 0,00 31/12/2012
174 481400 ANA MARCIA CANDIDA FERREIRA OFICIAL DO MP ATIVO BRUMADINHO - COMARCA; BRUMADINHO-PJ-01PJ 2.637,71 0,00 0,00 1.318,85 879,24 0,00 4.835,80 580,30 216,71 0,00 797,01 4.038,79 352,00 0,00 31/12/2012
175 409600 ANA OLIVIA FARIA ROSENBURG ANALISTA DO MP ATIVO BELO HORIZONTE - COMARCA; DIRETORIA DO COLEGIO E DA CAMARA DE PJ 6.069,59 1.213,92 0,00 3.638,84 0,00 0,00 10.922,35 1.712,29 1.879,73 0,00 3.592,02 7.330,33 587,00 1.564,94 31/12/2012
176 374600 ANA PATRICIA FERREIRA FRANCA OFICIAL DO MP ATIVO TIROS - COMARCA; TIROS-PJ-SECRETARIA 4.332,50 259,95 0,00 0,00 0,00 0,00 4.592,45 505,17 303,94 0,00 809,11 3.783,34 0,00 0,00 31/12/2012
177 461500 ANA PAULA ALVES CARVALHO ANALISTA DO MP ATIVO UBERLÂNDIA - COMARCA; UBERLANDIA-PJ-08PJ 5.421,69 0,00 0,00 2.688,06 0,00 0,00 8.109,75 1.296,61 985,21 0,00 2.281,82 5.827,93 352,00 1.440,84 31/12/2012
178 523200 ANA PAULA ALVES DA SILVA OFICIAL DO MP ATIVO GOVERNADOR VALADARES - COMARCA; GOVERNADOR VALADARES-PJ-15PJ 2.812,27 0,00 0,00 1.406,13 0,00 0,00 4.218,40 618,70 128,05 0,00 746,75 3.471,65 352,00 0,00 31/12/2012
179 381200 ANA PAULA BARROS PEREIRA ASSESSOR/ANALISTA ATIVO BELO HORIZONTE - COMARCA; PROC JUST RECURSOS ESP E EXTRAORD CRIMINAIS 0,00 427,45 7.124,13 3.775,79 0,00 0,00 11.327,37 1.415,42 2.217,01 0,00 3.632,43 7.694,94 352,00 0,00 31/12/2012
180 227200 ANA PAULA DA SILVA CAMPOLINA ANALISTA DO MP ATIVO BELO HORIZONTE - COMARCA; EXTINTA - DIVISÃO DE MATERIAL PERMANENTE 9.814,62 2.944,39 0,00 6.580,65 4.253,00 0,00 23.592,66 2.806,98 5.868,00 0,00 8.674,98 14.917,68 352,00 0,00 31/12/2012
181 84200 ANA PAULA DE SOUZA ROCHA OFICIAL DO MP ATIVO BELO HORIZONTE - COMARCA; ASSESS ESP ADM E FINANCEIRA DO PGJ ADJ ADM 19.377,21 7.750,88 0,00 12.058,81 8.039,21 0,00 47.226,11 5.305,88 12.284,16 3.010,47 20.600,51 26.625,60 352,00 0,00 31/12/2012
182 278500 ANA PAULA DIAS CAPANEMA COORDENADOR/OFICIAL ATIVO BELO HORIZONTE - COMARCA; EXTINTA - DIRETORIA DE MATERIAL E PATRIMONIO 0,00 920,55 9.205,45 5.063,00 3.375,33 0,00 18.564,33 1.230,62 4.611,99 0,00 5.842,61 12.721,72 352,00 0,00 31/12/2012
183 327300 ANA PAULA GARCIA MAXIMO OFICIAL DO MP ATIVO UNAÍ - COMARCA; UNAI-PJ-01PJ 5.085,23 1.017,05 0,00 3.330,76 2.034,09 0,00 11.467,13 1.342,50 1.721,69 0,00 3.064,19 8.402,94 587,00 0,00 31/12/2012
184 270000 ANA PAULA GOULART CRUZ DE MAGALHAES ANALISTA DO MP ATIVO BELO HORIZONTE - COMARCA; COMB CRIMES PRAT POR AG POL MUN-ASSESSORIA 6.681,94 668,19 0,00 3.559,20 0,00 0,00 10.909,33 1.668,01 1.994,07 0,00 3.662,08 7.247,25 352,00 695,19 31/12/2012
185 262100 ANA PAULA KOMATSUZAKI ABIJAUDI ANALISTA DO MP ATIVO BELO HORIZONTE - COMARCA; BH-17PJ PATRIMONIO PUBLICO-SECRETARIA 8.634,11 2.590,23 0,00 5.789,10 3.741,45 0,00 20.754,89 2.469,36 4.791,01 0,00 7.260,37 13.494,52 587,00 0,00 31/12/2012
186 278900 ANA PAULA MOREIRA GURGEL ANALISTA DO MP ATIVO BELO HORIZONTE - COMARCA; EXTINTA - DIRETORIA DE CONTRATOS E CONVÊNIOS 8.361,90 1.672,38 0,00 5.017,14 3.344,76 0,00 18.396,18 2.207,54 4.284,48 0,00 6.492,02 11.904,16 352,00 0,00 31/12/2012
187 425700 ANA PAULA ROCHA ASSESSOR/OFICIAL ATIVO BELO HORIZONTE - COMARCA; SUPERINTENDENCIA DE COMUNICACAO INTEGRADA 0,00 335,89 5.598,22 5.934,11 0,00 0,00 11.868,22 833,64 1.487,39 0,00 2.321,03 9.547,19 2.725,64 217,58 31/12/2012
188 395601 ANA PAULA SALGE OLIVEIRA ANALISTA DO MP ATIVO UBERABA - COMARCA; COORD REG PJ DEF EDUC DIR CRIANCA ADOL TRIANG 4.769,54 476,95 0,00 2.623,24 1.748,83 0,00 9.618,56 1.154,22 1.501,98 0,00 2.656,20 6.962,36 352,00 0,00 31/12/2012
189 473200 ANA PAULA SCOTTON BRASIL ANALISTA DO MP ATIVO JUIZ DE FORA - COMARCA; JUIZ DE FORA-PJ-09PJ 4.473,58 0,00 0,00 2.236,79 1.491,19 0,00 8.201,56 984,18 1.058,10 0,00 2.042,28 6.159,28 352,00 0,00 31/12/2012
190 470900 ANA PAULA VALADARES ANALISTA DO MP ATIVO PITANGUI - COMARCA; PITANGUI-PJ-01PJ 5.421,69 0,00 0,00 2.462,42 1.807,23 0,00 9.691,34 980,20 1.187,85 0,00 2.168,05 7.523,29 587,00 1.026,80 31/12/2012
191 447000 ANA PAULA VALENTIM DE ARAUJO ANALISTA DO MP ATIVO BELO HORIZONTE - COMARCA; BH-08PJ JUIZADO ESPECIAL 5.421,69 325,30 0,00 2.710,84 0,00 0,00 8.457,83 1.264,34 1.186,43 0,00 2.450,77 6.007,06 352,00 325,30 31/12/2012
192 505400 ANA PAULA VIEIRA SOUTO OFICIAL DO MP ATIVO ALMENARA - COMARCA; COORD. PAT. PUBLICO-MUCURI/JEQUIT - ALMENARA 2.637,71 527,54 0,00 1.887,97 0,00 0,00 5.053,22 555,86 112,03 0,00 667,89 4.385,33 587,00 0,00 31/12/2012
193 280200 ANA RACHEL BRANDAO LADEIRA ROLAND DIRETOR/ANALISTA ATIVO BELO HORIZONTE - COMARCA; SUPRIN DE FORMACAO E APERFEICOAMENTO-SFA/CEAF 0,00 1.193,16 11.931,59 13.124,75 4.374,92 0,00 30.624,42 2.023,58 6.318,12 0,00 8.341,70 22.282,72 587,00 0,00 31/12/2012
194 384700 ANA RODRIGUES PEREIRA MARRA ANALISTA DO MP ATIVO COROMANDEL - COMARCA; COROMANDEL-PJ-SECRETARIA 5.085,23 305,11 0,00 2.695,17 1.796,78 0,00 9.882,29 1.185,88 1.493,03 0,00 2.678,91 7.203,38 605,52 1,70 31/12/2012
195 232700 ANA SILVIA SEMBLANO NAKAMURA ASSESSOR/OFICIAL ATIVO BELO HORIZONTE - COMARCA; CENT DE APOIO TEC-SETOR DEF,IDOSO E INFANC 0,00 1.424,83 7.124,13 4.274,48 2.849,65 0,00 15.673,09 1.431,32 3.544,86 0,00 4.976,18 10.696,91 352,00 0,00 31/12/2012
196 326700 ANA TERCIA DE FATIMA COSTA OFICIAL DO MP ATIVO NOVA SERRANA - COMARCA; NOVA SERRANA-PJ-01PJ 4.619,20 461,92 0,00 2.540,56 0,00 558,92 8.180,60 1.117,84 1.062,41 0,00 2.180,25 6.000,35 352,00 558,92 31/12/2012
197 310400 ANADEJE DO CARMO DINIZ ARAUJO OFICIAL DO MP ATIVO BELO HORIZONTE - COMARCA; CENT DE ATENDIMENTO E ORIENTACAO DE PESSOAL 4.619,20 461,92 0,00 2.540,56 0,00 0,00 7.621,68 1.117,84 940,11 0,00 2.057,95 5.563,73 587,00 0,00 31/12/2012
198 395000 ANAIDE PEREIRA LOPES ANALISTA DO MP ATIVO BELO HORIZONTE - COMARCA; DIRETORIA DE GESTAO DOCUMENTAL 5.085,23 305,11 0,00 2.695,17 0,00 0,00 8.085,51 1.185,88 1.091,47 0,00 2.277,35 5.808,16 352,00 0,00 31/12/2012
199 337000 ANAILDES MARIA MENDES OFICIAL DO MP ATIVO JANAÚBA - COMARCA; JANAUBA-PJ-02PJ 3.811,39 381,14 0,00 2.162,38 1.397,51 0,00 7.752,42 922,36 907,26 0,00 1.829,62 5.922,80 352,00 0,00 31/12/2012
200 192900 ANATALIA CERQUEIRA LIMA PERES OFICIAL DO MP ATIVO UBERABA - COMARCA; COORD REG PJ DEF EDUC DIR CRIANCA ADOL TRIANG 4.619,20 923,84 0,00 2.771,52 1.847,68 0,00 10.162,24 1.219,46 1.674,32 0,00 2.893,78 7.268,46 352,00 0,00 31/12/2012
201 377400 ANDEIRSON DA MATTA BARBOSA ANALISTA DO MP ATIVO POUSO ALEGRE - COMARCA; POUSO ALEGRE-PJ-01PJ 5.598,22 335,89 0,00 2.967,05 0,00 0,00 8.901,16 1.305,50 1.357,63 0,00 2.663,13 6.238,03 352,00 0,00 31/12/2012
202 317400 ANDERSON DA SILVA BICALHO OFICIAL DO MP ATIVO CONTAGEM - COMARCA; CONTAGEM-PJ-03PJ 4.619,20 461,92 0,00 2.540,56 1.693,71 0,00 9.315,39 838,38 1.162,34 0,00 2.000,72 7.314,67 587,00 0,00 31/12/2012
203 506900 ANDERSON DE SOUZA DAMIANI ANALISTA DO MP ATIVO BELO HORIZONTE - COMARCA; DIRETORIA DE PAGAMENTO DE PESSOAL-DPAG 4.063,61 812,72 0,00 2.515,06 0,00 0,00 7.391,39 1.072,80 839,85 0,00 1.912,65 5.478,74 352,00 0,00 31/12/2012
204 410000 ANDERSON DE SOUZA NETO ASSESSOR ATIVO BELO HORIZONTE - COMARCA; DIRETORIA DE ADMINISTRACAO FINANCEIRA 0,00 0,00 3.519,31 1.759,65 1.173,10 0,00 6.452,06 812,96 546,01 0,00 1.358,97 5.093,09 352,00 0,00 31/12/2012
205 181900 ANDERSON FLAVIO DE OLIVEIRA OFICIAL DO MP ATIVO ITAGUARA - COMARCA; ITAGUARA-PJ-SECRETARIA 5.598,22 1.119,64 0,00 3.358,93 0,00 0,00 10.076,79 1.477,92 1.741,29 0,00 3.219,21 6.857,58 352,00 0,00 31/12/2012
206 119500 ANDERSON FUNGHI DE AZEVEDO ROCHA COORDENADOR/OFICIAL ATIVO BELO HORIZONTE - COMARCA; DIR ESTRUTURA E PROCESSOS ORGANIZACIONAIS 0,00 6.443,83 9.205,45 7.824,64 0,00 0,00 23.473,92 3.028,72 5.949,46 0,00 8.978,18 14.495,74 352,00 0,00 31/12/2012
207 333200 ANDERSON JOSE DE FREITAS OFICIAL DO MP ATIVO IPATINGA - COMARCA; IPATINGA-PJ-02PJ 3.811,39 381,14 0,00 2.162,38 1.397,51 0,00 7.752,42 922,36 907,26 0,00 1.829,62 5.922,80 352,00 0,00 31/12/2012
208 462100 ANDERSON LUIZ GUIMARAES CARDOSO ANALISTA DO MP ATIVO BARBACENA - COMARCA; BARBACENA-PJ-SECRETARIA 5.421,69 0,00 0,00 2.462,42 1.807,23 0,00 9.691,34 1.022,10 1.257,78 0,00 2.279,88 7.411,46 352,00 1.407,71 31/12/2012
209 429700 ANDERSON MELO DE SOUZA OFICIAL DO MP ATIVO BELO HORIZONTE - COMARCA; DIRET DE ESTAGIOS E CONVENIOS ACADEMICOS 2.998,37 179,90 0,00 1.589,13 0,00 0,00 4.767,40 699,22 221,20 0,00 920,42 3.846,98 352,00 0,00 31/12/2012
210 519900 ANDERSON MOREIRA DOEHLER ANALISTA DO MP ATIVO NOVO CRUZEIRO - COMARCA; NOVO CRUZEIRO-PJ-UNPJ 4.332,50 866,50 0,00 3.032,75 1.733,00 0,00 9.964,75 1.143,78 1.474,38 0,00 2.618,16 7.346,59 352,00 0,00 31/12/2012
211 103000 ANDERSON TADEU DE DEUS ASSESSOR ATIVO BELO HORIZONTE - COMARCA; EXTINTA - PROTOCOLO DA PGJ 0,00 1.407,72 3.519,31 2.463,51 0,00 0,00 7.390,54 861,56 925,83 0,00 1.787,39 5.603,15 587,00 0,00 31/12/2012
212 309200 ANDITYAS SOARES DE MOURA COSTA MATOS ANALISTA DO MP ATIVO BELO HORIZONTE - COMARCA; GABINETE DE PROCURADOR DE JUSTIÇA - SALA 909 7.124,13 712,41 0,00 3.794,71 2.612,18 0,00 14.243,43 1.778,41 2.946,74 0,00 4.725,15 9.518,28 352,00 741,39 31/12/2012
213 338701 ANDRE BARBUTO VITORINO ANALISTA DO MP ATIVO AIMORÉS - COMARCA; AIMORES-PJ-UNPJ 6.069,59 364,18 0,00 2.967,05 0,00 0,00 9.400,82 1.503,36 1.479,93 0,00 2.983,29 6.417,53 352,00 1.299,09 31/12/2012
214 519200 ANDRE BORJA LANA ANALISTA DO MP ATIVO BELO HORIZONTE - COMARCA; SUPERINTENDENCIA DE COMUNICACAO INTEGRADA 4.332,50 0,00 0,00 2.166,25 0,00 0,00 6.498,75 953,16 606,01 0,00 1.559,17 4.939,58 352,00 0,00 31/12/2012
215 521900 ANDRE LUIS GOMES SILVA ANALISTA DO MP ATIVO FORMIGA - COMARCA; FORMIGA-PJ-01PJ 3.935,44 0,00 0,00 1.967,72 1.311,81 0,00 7.214,97 865,80 769,29 0,00 1.635,09 5.579,88 352,00 0,00 31/12/2012
216 304300 ANDRE LUIZ AVELAR ANALISTA DO MP ATIVO BELO HORIZONTE - COMARCA; DIRETORIA DE REDES E BANCOS DE DADOS 5.421,69 542,17 0,00 2.981,93 1.987,95 0,00 10.933,74 1.312,04 1.918,89 0,00 3.230,93 7.702,81 352,00 0,00 31/12/2012
217 397400 ANDRE PATARO MYRRHA DE PAULA E SILVA ASSESSOR/ANALISTA ATIVO BELO HORIZONTE - COMARCA; ASSESSORIA JURIDICO-ADMINISTRATIVA 0,00 427,45 7.124,13 3.775,79 2.517,19 0,00 13.844,56 979,12 2.299,22 0,00 3.278,34 10.566,22 352,00 0,00 31/12/2012
218 297200 ANDRE WILLE ROSARIO ANALISTA DO MP ATIVO BELO HORIZONTE - COMARCA; ASSESSORIA ESPECIAL DO PGJ 8.361,90 836,19 0,00 5.020,53 3.066,03 0,00 17.284,65 2.023,58 3.520,88 0,00 5.544,46 11.740,19 587,00 0,00 31/12/2012
219 423600 ANDREA COSTA GUALBERTO ANALISTA DO MP ATIVO GOVERNADOR VALADARES - COMARCA; COORD REG PJ DEF EDU DIR CRIANCA ADOL RIODOCE 5.085,23 2.542,62 0,00 4.394,41 0,00 0,00 12.022,26 1.678,12 2.186,73 0,00 3.864,85 8.157,41 587,00 0,00 31/12/2012
220 198600 ANDREA CRISTINA ANDRADE COSTA E SOUZA OFICIAL DO MP ATIVO MONTES CLAROS - COMARCA; MONTES CLAROS-PJ-SECRETARIA 7.356,10 1.471,22 0,00 4.274,48 2.942,44 0,00 16.044,24 2.003,26 3.329,81 0,00 5.333,07 10.711,17 352,00 835,08 31/12/2012
221 467300 ANDREA DE CASSIA PENNA ALVERNAZ ANALISTA DO MP ATIVO PONTE NOVA - COMARCA; PONTE NOVA-PJ-SECRETARIA 5.421,69 0,00 0,00 2.462,42 0,00 0,00 7.884,11 1.256,53 985,21 0,00 2.241,74 5.642,37 587,00 1.076,49 31/12/2012
222 308000 ANDREA DE CASSIA SANTOS OLIVEIRA ANALISTA DO MP ATIVO BELO HORIZONTE - COMARCA; ASSESS TECNICO-JUR JUNTO AS PROC. DE JUST 7.595,56 759,56 0,00 4.177,56 2.785,04 0,00 15.317,72 1.838,12 3.308,61 0,00 5.146,73 10.170,99 587,00 0,00 31/12/2012
223 349500 ANDREA DE OLIVEIRA OFICIAL DO MP ATIVO IGUATAMA - COMARCA; IGUATAMA-PJ-UNPJ 4.332,50 433,25 0,00 2.439,82 0,00 0,00 7.205,57 1.113,54 644,58 0,00 1.758,12 5.447,45 587,00 887,34 31/12/2012
224 254700 ANDREA EMISE REIS DE AZEVEDO COORDENADOR/OFICIAL ATIVO BELO HORIZONTE - COMARCA; COMB CRIMES PRAT POR AG POL MUN-SECRETARIA 0,00 1.619,64 8.098,20 5.263,83 0,00 0,00 14.981,67 1.342,50 3.428,51 0,00 4.771,01 10.210,66 352,00 0,00 31/12/2012
225 287900 ANDREA FERNANDES PENA OFICIAL DO MP ATIVO MONTES CLAROS - COMARCA; MONTES CLAROS-PJ-09PJ 5.250,75 525,08 0,00 2.978,95 1.925,28 0,00 10.680,06 1.270,68 1.624,52 0,00 2.895,20 7.784,86 352,00 0,00 31/12/2012
226 300800 ANDREA FERREIRA ANALISTA DO MP ATIVO LAVRAS - COMARCA; LAVRAS-PJ-04PJ 7.356,10 735,61 0,00 8.091,71 0,00 0,00 16.183,42 1.780,18 2.413,79 0,00 4.193,97 11.989,45 3.567,68 294,77 31/12/2012
227 316700 ANDREA FRANCISCA DIAS DE SOUZA ASSESSOR ATIVO BELO HORIZONTE - COMARCA; BH-22PJ PES COM DEF E IDOSOS-SECRETARIA 0,00 0,00 2.107,81 2.107,81 702,60 0,00 4.918,22 502,44 80,10 0,00 582,54 4.335,68 352,00 0,00 31/12/2012
228 395100 ANDREA LANNA MENDES NOVAIS ANALISTA DO MP ATIVO BELO HORIZONTE - COMARCA; PROMOT ESTADUAL DE DEF PATRI CULT E TUR DE MG 6.069,59 364,18 0,00 6.433,77 0,00 0,00 12.867,54 1.415,42 1.509,67 0,00 2.925,09 9.942,45 822,00 0,00 31/12/2012
229 67300 ANDREA LEAO MAGALHAES ROQUE ASSESSOR ATIVO BELO HORIZONTE - COMARCA; COORD DE CONT. DA CONSTITUCIONALIDADE-SEC 0,00 3.562,07 7.124,13 5.343,10 3.562,07 0,00 19.591,37 861,56 5.072,94 0,00 5.934,50 13.656,87 352,00 0,00 31/12/2012
230 335700 ANDREA LOPES PEREIRA ANALISTA DO MP ATIVO GOVERNADOR VALADARES - COMARCA; COORD REG DO MA DA BACIA DO RIO DOCE 7.595,56 759,56 0,00 4.045,85 0,00 0,00 12.400,97 1.896,08 2.478,26 0,00 4.374,34 8.026,63 352,00 790,23 31/12/2012
231 389200 ANDREA TUPINI DOS SANTOS TRISTAO DA ROCHA OFICIAL DO MP ATIVO DIVINO - COMARCA; DIVINO-PJ-UNPJ 3.300,91 198,05 0,00 1.749,48 0,00 0,00 5.248,44 786,27 326,84 0,00 1.113,11 4.135,33 352,00 149,95 31/12/2012
232 419000 ANDREIA BARBOSA DE ALMEIDA ANALISTA DO MP ATIVO BELO HORIZONTE - COMARCA; PROC. JUSTICA DE HABEAS CORPUS 5.598,22 335,89 0,00 2.967,05 0,00 0,00 8.901,16 1.305,50 1.357,63 0,00 2.663,13 6.238,03 352,00 0,00 31/12/2012
233 281501 ANDREIA CARLA COSTA FILGUEIRAS ANALISTA DO MP ATIVO VISCONDE DO RIO BRANCO - COMARCA; VISCONDE DO RIO BRANCO-PJ-02PJ 6.069,59 364,18 0,00 2.967,05 0,00 0,00 9.400,82 1.655,45 1.564,75 0,00 3.220,20 6.180,62 352,00 2.681,70 31/12/2012
234 477100 ANDREIA DE ALMEIDA RIBEIRO MELO OFICIAL DO MP ATIVO CONTAGEM - COMARCA; CONTAGEM-PJ-07PJ 2.903,86 0,00 0,00 1.451,93 0,00 0,00 4.355,79 479,13 107,50 0,00 586,63 3.769,16 352,00 0,00 31/12/2012
235 100200 ANDREIA FERREIRA MATTOZINHOS COORDENADOR/ANALISTA ATIVO BELO HORIZONTE - COMARCA; DIRET DE ESTAGIOS E CONVENIOS ACADEMICOS 15.061,73 12.752,52 0,00 12.058,81 8.039,21 2.652,94 50.565,21 5.305,88 14.876,79 3.696,63 23.879,30 26.685,91 352,00 6.101,76 31/12/2012
236 424000 ANDREIA LUCIA COUTO ANALISTA DO MP ATIVO BELO HORIZONTE - COMARCA; BH-18PJ DIREITOS HUMANOS 5.598,22 335,89 0,00 2.967,05 0,00 0,00 8.901,16 1.305,50 1.357,63 0,00 2.663,13 6.238,03 587,00 0,00 31/12/2012
237 370100 ANDREIA MARIA SILVA PINTO OFICIAL DO MP ATIVO CORONEL FABRICIANO - COMARCA; CORONEL FABRICIANO-PJ-01PJ 4.473,58 447,36 0,00 2.382,87 0,00 0,00 7.303,81 1.116,74 823,71 0,00 1.940,45 5.363,36 352,00 465,57 31/12/2012
238 382100 ANDREIA NATALI PEREIRA OFICIAL DO MP ATIVO PRADOS - COMARCA; PRADOS-PJ-UNPJ 4.332,50 259,95 0,00 2.506,66 1.530,82 0,00 8.629,93 1.010,34 1.121,89 0,00 2.132,23 6.497,70 352,00 0,00 31/12/2012
239 198700 ANDREIA NUNES DURAES OFICIAL DO MP ATIVO MONTES CLAROS - COMARCA; MONTES CLAROS-PJ-06PJ 7.356,10 1.471,22 0,00 4.413,66 2.942,44 0,00 16.183,42 1.942,02 3.583,04 0,00 5.525,06 10.658,36 352,00 0,00 31/12/2012
240 275200 ANDREIA RIBEIRO FREITAS OFICIAL DO MP ATIVO VIÇOSA - COMARCA; VICOSA-PJ-03PJ 5.085,23 1.017,05 0,00 3.051,14 2.034,09 0,00 11.187,51 1.342,50 1.814,24 0,00 3.156,74 8.030,77 587,00 0,00 31/12/2012
241 352200 ANDREIA XAVIER PEREIRA OFICIAL DO MP ATIVO CLÁUDIO - COMARCA; CLAUDIO-PJ-UNPJ 4.332,50 433,25 0,00 2.439,82 1.588,58 0,00 8.794,15 1.113,54 1.155,66 0,00 2.269,20 6.524,95 352,00 887,34 31/12/2012
242 383700 ANDRESSA EDUARDO SOUZA ANALISTA DO MP ATIVO OURO BRANCO - COMARCA; OURO BRANCO-PJ-SECRETARIA 6.069,59 364,18 0,00 3.216,88 2.144,59 0,00 11.795,24 1.061,56 1.782,92 0,00 2.844,48 8.950,76 352,00 0,00 31/12/2012
243 426200 ANDRESSA MENDES CASAL ASSESSOR/OFICIAL ATIVO BELO HORIZONTE - COMARCA; BH-12PJ JUIZO CRIMINAL-SECRETARIA 0,00 335,89 4.979,89 2.967,05 0,00 0,00 8.282,83 577,33 950,16 0,00 1.527,49 6.755,34 352,00 0,00 31/12/2012
244 390100 ANDRESSA RIBEIRO PUCCI OFICIAL DO MP ATIVO UBERABA - COMARCA; UBERABA-PJ-14PJ 3.574,80 214,49 0,00 1.894,64 0,00 0,00 5.683,93 625,23 288,60 0,00 913,83 4.770,10 352,00 0,00 31/12/2012
245 462500 ANDREZA APARECIDA COSTA E SILVA ANALISTA DO MP ATIVO CONSELHEIRO LAFAIETE - COMARCA; CONSELHEIRO LAFAIETE-PJ-02PJ 5.421,69 0,00 0,00 2.462,42 1.807,23 0,00 9.691,34 1.278,39 1.482,20 0,00 2.760,59 6.930,75 352,00 1.275,22 31/12/2012
246 491600 ANE PATRICIA RIBEIRO ANALISTA DO MP ATIVO SETE LAGOAS - COMARCA; SETE LAGOAS-PJ-10PJ 4.473,58 0,00 0,00 2.307,33 0,00 0,00 6.780,91 984,18 662,53 0,00 1.646,71 5.134,20 587,00 0,00 31/12/2012
247 465800 ANELISE GAMA ASSESSOR ATIVO BELO HORIZONTE - COMARCA; BH-18PJ VIOLENCIA DOMESTICA 0,00 0,00 3.519,31 2.034,73 0,00 0,00 5.554,04 812,96 306,45 0,00 1.119,41 4.434,63 352,00 0,00 31/12/2012
248 197200 ANGELA COELHO SALDANHA OLIVEIRA OFICIAL DO MP ATIVO PARÁ DE MINAS - COMARCA; PARA DE MINAS-PJ-03PJ 7.356,10 1.471,22 0,00 4.413,66 2.942,44 0,00 16.183,42 1.942,02 3.583,04 0,00 5.525,06 10.658,36 352,00 0,00 31/12/2012
249 307400 ANGELA CRISTINA GONCALVES MUNIZ ANALISTA DO MP ATIVO UBERLÂNDIA - COMARCA; UBERLANDIA-COORD CONJ-FAMÍLIA E JUIZ ESP CRIM 8.361,90 1.672,38 0,00 5.476,94 3.344,76 0,00 18.855,98 2.207,54 4.284,48 0,00 6.492,02 12.363,96 587,00 0,00 31/12/2012
250 191800 ANGELA MARIA DE OLIVEIRA OFICIAL DO MP ATIVO GUARANÉSIA - COMARCA; GUARANESIA-PJ-SECRETARIA 7.356,10 2.206,83 0,00 4.781,46 0,00 0,00 14.344,39 2.103,84 3.041,40 0,00 5.145,24 9.199,15 352,00 0,00 31/12/2012
251 69900 ANGELA MARIA DE PAULA CUNHA OFICIAL DO MP ATIVO JUIZ DE FORA - COMARCA; JUIZ DE FORA-PJ-11PJ 7.595,56 3.797,78 0,00 5.696,67 3.797,78 0,00 20.887,79 2.506,54 4.796,68 0,00 7.303,22 13.584,57 352,00 0,00 31/12/2012
252 497400 ANGELA MARIA HENRIQUES ANALISTA DO MP ATIVO BELO HORIZONTE - COMARCA; COORD REG BACIAS RIO VELHAS E PARAOPEBA 4.473,58 0,00 0,00 2.307,33 0,00 0,00 6.780,91 984,18 662,53 0,00 1.646,71 5.134,20 352,00 0,00 31/12/2012
253 260700 ANGELICA CRISTINA AZEVEDO MOREIRA MOUCO OFICIAL DO MP ATIVO UBÁ - COMARCA; UBA-PJ-02PJ 5.421,69 542,17 0,00 3.075,94 0,00 0,00 9.039,80 1.312,04 1.187,11 0,00 2.499,15 6.540,65 587,00 0,00 31/12/2012
254 334600 ANGELICA PANISSA DE FREITAS OFICIAL DO MP ATIVO GUAXUPÉ - COMARCA; GUAXUPE-PJ-02PJ 3.811,39 762,28 0,00 2.358,97 1.524,56 0,00 8.457,20 1.006,20 1.111,81 0,00 2.118,01 6.339,19 352,00 0,00 31/12/2012
255 521100 ANGELICA SALES MOREIRA OFICIAL DO MP ATIVO BELO HORIZONTE - COMARCA; BH-02PJ FAMILIA-SECRETARIA 2.554,55 0,00 0,00 1.277,27 0,00 0,00 3.831,82 562,00 89,95 0,00 651,95 3.179,87 352,00 0,00 31/12/2012
256 466500 ANGELLO MARQUES AGRELLI ANALISTA DO MP ATIVO MAR DE ESPANHA - COMARCA; MAR DE ESPANHA-PJ-UNPJ 5.421,69 0,00 0,00 2.893,04 0,00 0,00 8.314,73 1.267,46 985,21 0,00 2.252,67 6.062,06 352,00 1.175,85 31/12/2012
257 363300 ANGELO VERDOLIN HENRIQUES ANALISTA DO MP ATIVO SETE LAGOAS - COMARCA; SETE LAGOAS-PJ-04PJ 7.356,10 1.471,22 0,00 4.274,48 2.942,44 0,00 16.044,24 2.003,26 3.514,91 0,00 5.518,17 10.526,07 587,00 835,08 31/12/2012
258 250900 ANISIO APARECIDO SANTOS OFICIAL DO MP ATIVO CONTAGEM - COMARCA; CONTAGEM-PJ-19PJ 4.195,87 839,17 0,00 2.517,52 1.678,35 0,00 9.230,91 1.107,70 1.194,00 0,00 2.301,70 6.929,21 352,00 0,00 31/12/2012
259 253400 ANNA FLAVIA LEHMAN BATTAGLIA COORDENADOR/ANALISTA ATIVO BELO HORIZONTE - COMARCA; ASSESSORIA JURIDICO-ADMINISTRATIVA 0,00 2.386,32 11.931,59 7.755,53 0,00 0,00 22.073,44 2.279,40 5.423,27 0,00 7.702,67 14.370,77 822,00 0,00 31/12/2012
260 447600 ANNGELUCE ALCANTARA DE CAMPOS OFICIAL DO MP ATIVO DIVINÓPOLIS - COMARCA; DIVINOPOLIS-PJ-10PJ 2.903,86 290,39 0,00 1.742,32 1.064,75 0,00 6.001,32 702,74 421,85 0,00 1.124,59 4.876,73 352,00 0,00 31/12/2012
261 119600 ANSELMO BORGES PARREIRAS OFICIAL DO MP ATIVO BONFIM - COMARCA; BONFIM-PJ-UNPJ 4.769,54 3.338,67 0,00 4.054,10 2.702,74 0,00 14.865,05 1.783,80 2.980,03 0,00 4.763,83 10.101,22 352,00 0,00 31/12/2012
262 194800 ANTONIA MARIA AFONSO DE SOUZA OFICIAL DO MP ATIVO ITAPAGIPE - COMARCA; ITAPAGIPE-PJ-SECRETARIA 7.124,13 3.562,07 0,00 4.853,46 0,00 0,00 15.539,66 2.566,40 3.351,57 0,00 5.917,97 9.621,69 352,00 2.937,84 31/12/2012
263 332400 ANTONIA MARIA MAMEDE OFICIAL DO MP ATIVO ARAGUARI - COMARCA; ARAGUARI-PJ-05PJ 4.769,54 476,95 0,00 3.011,50 1.748,83 0,00 10.006,82 1.154,22 1.409,44 0,00 2.563,66 7.443,16 352,00 0,00 31/12/2012
264 401600 ANTONIO CARLOS GUEDES AROUCA ANALISTA DO MP ATIVO BELO HORIZONTE - COMARCA; EXTINTA - CAO-IDOSOS PESSOAS DEFIC-SEC ADM 6.069,59 364,18 0,00 3.466,71 0,00 0,00 9.900,48 1.415,42 1.602,23 0,00 3.017,65 6.882,83 3.567,68 294,77 31/12/2012
265 7100 ANTONIO DO NASCIMENTO OLIVEIRA ASSESSOR ATIVO BELO HORIZONTE - COMARCA; GAECO - SECRETARIA 0,00 1.897,03 2.107,81 2.002,42 0,00 0,00 6.007,26 861,56 242,90 0,00 1.104,46 4.902,80 352,00 0,00 31/12/2012
266 59400 ANTONIO GOBIRA DE ALCANTARA AGENTE DO MP ATIVO BELO HORIZONTE - COMARCA; EXTINTA - DIVISAO DE TRANSPORTES 4.619,20 3.233,44 0,00 3.926,32 2.617,55 0,00 14.396,51 1.986,72 3.500,63 0,00 5.487,35 8.909,16 352,00 2.355,85 31/12/2012
267 333900 ANTONIO GONCALVES DE SOUZA FILHO OFICIAL DO MP ATIVO BELO HORIZONTE - COMARCA; ARQUIVO DO MINISTERIO PUBLICO DO ESTADO DE MG 4.332,50 433,25 0,00 2.380,47 1.588,58 0,00 8.734,80 1.081,52 1.185,80 0,00 2.267,32 6.467,48 352,00 450,87 31/12/2012
268 119700 ANTONIO LISBOA MACIEL OFICIAL DO MP ATIVO JABOTICATUBAS - COMARCA; JABOTICATUBAS-PJ-SECRETARIA 3.811,39 3.049,12 0,00 3.620,82 2.286,84 0,00 12.768,17 1.509,32 2.069,80 0,00 3.579,12 9.189,05 352,00 0,00 31/12/2012
269 176100 ANTONIO MARCELO CAMPOS CAMPANELLA OFICIAL DO MP ATIVO BELO HORIZONTE - COMARCA; SUPERINTENDENCIA DE RECURSOS HUMANOS 7.356,10 2.206,83 0,00 9.562,93 3.187,64 0,00 22.313,50 2.103,84 4.010,55 0,00 6.114,39 16.199,11 587,00 0,00 31/12/2012
270 119800 ANTONIO MARCIANO DE PAULA AGENTE DO MP ATIVO BELO HORIZONTE - COMARCA; DIRETORIA DE MANUTENCAO PREDIAL 3.691,17 2.952,94 0,00 3.322,05 2.214,70 730,85 12.911,71 1.461,70 2.438,56 0,00 3.900,26 9.011,45 352,00 730,85 31/12/2012
271 321001 ANTONIO OLINTO VIEIRA MACHADO ANALISTA DO MP ATIVO BELO HORIZONTE - COMARCA; CENTRAL DE APOIO TECN-SETOR DE MEIO AMBIENTE 6.069,59 364,18 0,00 3.216,88 2.144,59 0,00 11.795,24 1.415,42 2.191,99 0,00 3.607,41 8.187,83 352,00 0,00 31/12/2012
272 356200 ANTONIO PAULA DA SILVA OFICIAL DO MP ATIVO JUIZ DE FORA - COMARCA; JUIZ DE FORA-PJ-20PJ 3.691,17 369,12 0,00 2.185,68 1.353,43 0,00 7.599,40 893,26 836,29 0,00 1.729,55 5.869,85 352,00 0,00 31/12/2012
273 83800 ANTONIO ROBSON DA SILVA AGENTE DO MP ATIVO BELO HORIZONTE - COMARCA; BH-23PJ CIVEL-SEC EXP CIVEIS 9.505,17 6.653,62 0,00 8.079,39 0,00 0,00 24.238,18 3.554,94 6.177,53 0,00 9.732,47 14.505,71 352,00 0,00 31/12/2012
274 119900 ANTONIO RODRIGUES DE PINHO OFICIAL DO MP ATIVO GUANHÃES - COMARCA; GUANHAES-PJ-01PJ 7.124,13 3.562,07 0,00 10.686,20 0,00 0,00 21.372,40 2.350,96 3.591,24 0,00 5.942,20 15.430,20 352,00 0,00 31/12/2012
275 373300 ANTONIO SERGIO ANANIAS OFICIAL DO MP ATIVO AIURUOCA - COMARCA; AIURUOCA-PJ-UNPJ 3.574,80 214,49 0,00 1.894,64 1.263,10 0,00 6.947,03 833,64 539,32 0,00 1.372,96 5.574,07 822,00 0,00 31/12/2012
276 374700 ANTONIO SILVA NETO OFICIAL DO MP ATIVO BELO HORIZONTE - COMARCA; GAECO - SECRETARIA 4.332,50 259,95 0,00 2.085,78 0,00 0,00 6.678,23 1.102,93 625,85 0,00 1.728,78 4.949,45 352,00 1.262,64 31/12/2012
277 413200 ANY PEREIRA SILVA ANALISTA DO MP ATIVO TRÊS PONTAS - COMARCA; TRES PONTAS-PJ-01PJ 5.085,23 305,11 0,00 2.695,17 1.796,78 0,00 9.882,29 1.292,60 1.545,39 0,00 2.837,99 7.044,30 352,00 970,20 31/12/2012
278 151401 APARECIDA DE FATIMA MENDES DE ALMEIDA ASSESSOR ATIVO JUIZ DE FORA - COMARCA; JUIZ DE FORA-PJ-SECRETARIA 0,00 0,00 3.519,31 1.759,65 1.173,10 0,00 6.452,06 812,96 546,01 0,00 1.358,97 5.093,09 352,00 0,00 31/12/2012
279 329300 APARECIDA MARIA MELO DE ASSIS OFICIAL DO MP ATIVO BELO HORIZONTE - COMARCA; BH-18PJ DIREITOS HUMANOS-SECRETARIA 5.085,23 508,52 0,00 3.053,19 0,00 0,00 8.646,94 1.230,62 1.191,03 0,00 2.421,65 6.225,29 352,00 0,00 31/12/2012
280 475300 APARECIDA MARLENE FREIRE ROSA ANALISTA DO MP ATIVO BELO HORIZONTE - COMARCA; BH-02PJ FAMILIA 4.924,85 3.939,89 0,00 4.432,37 2.954,91 0,00 16.252,02 1.950,24 3.604,79 0,00 5.555,03 10.696,99 352,00 0,00 31/12/2012
281 240300 APARECIDA PEREIRA DO NASCIMENTO OFICIAL DO MP ATIVO ITURAMA - COMARCA; ITURAMA-PJ-01PJ 5.780,51 2.890,25 0,00 4.856,83 0,00 0,00 13.527,59 1.907,56 2.697,23 0,00 4.604,79 8.922,80 352,00 0,00 31/12/2012
282 354500 APARECIDA VIEIRA DE CARVALHO OFICIAL DO MP ATIVO BELO HORIZONTE - COMARCA; PROCON-MG-SEC DE EDUCACAO PARA O CONSUMO 3.691,17 369,12 0,00 2.185,68 1.353,43 0,00 7.599,40 893,26 751,98 0,00 1.645,24 5.954,16 352,00 0,00 31/12/2012
283 286200 ARACELI MEDRADO DOS SANTOS LIMA OFICIAL DO MP ATIVO PARACATU - COMARCA; PARACATU-PJ-03PJ 4.195,87 419,59 0,00 2.307,73 0,00 0,00 6.923,19 1.015,40 720,35 0,00 1.735,75 5.187,44 352,00 0,00 31/12/2012
284 189000 ARAHY MARQUES SILVA OFICIAL DO MP ATIVO SÃO JOÃO DEL REI - COMARCA; SAO JOAO DEL REI-PJ-01PJ 4.195,87 839,17 0,00 2.517,52 1.678,35 0,00 9.230,91 1.107,70 1.379,09 0,00 2.486,79 6.744,12 352,00 0,00 31/12/2012
285 112200 ARAQUEM AUGUSTO DE MATOS AGENTE DO MP ATIVO BELO HORIZONTE - COMARCA; BH-23PJ INFRACIONAL-SEC EXP 3.811,39 2.667,98 0,00 3.239,68 0,00 0,00 9.719,05 1.425,46 1.439,45 0,00 2.864,91 6.854,14 587,00 0,00 31/12/2012
286 280600 ARDUINO FRATTEZI ANALISTA DO MP ATIVO BELO HORIZONTE - COMARCA; CENTRAL DE APOIO TECNICO-SETOR CONTABIL 8.361,90 836,19 0,00 5.020,53 3.066,03 0,00 17.284,65 2.023,58 3.613,42 0,00 5.637,00 11.647,65 352,00 0,00 31/12/2012
287 417700 ARIANA CRISTINA DE FREITAS ANALISTA DO MP ATIVO MATEUS LEME - COMARCA; MATEUS LEME-PJ-01PJ 4.619,20 277,15 0,00 2.448,17 1.632,12 0,00 8.976,64 1.077,20 1.298,48 0,00 2.375,68 6.600,96 352,00 0,00 31/12/2012
288 520200 ARIANE DE FATIMA CARVALHO ALMEIDA OFICIAL DO MP ATIVO BELO HORIZONTE - COMARCA; BH-19PJ SAUDE 2.554,55 0,00 0,00 1.277,27 0,00 0,00 3.831,82 421,50 66,08 0,00 487,58 3.344,24 352,00 0,00 31/12/2012
289 182000 ARILSON ALEXANDRE MARTINS MAGALHAES OFICIAL DO MP ATIVO JOÃO MONLEVADE - COMARCA; JOAO MONLEVADE-PJ-02PJ 7.124,13 2.137,24 0,00 4.202,19 3.087,12 0,00 16.550,68 2.282,57 3.377,56 0,00 5.660,13 10.890,55 352,00 3.341,82 31/12/2012
290 511000 ARISLANE CAROLINA DA SILVA ANALISTA DO MP ATIVO CAMPINA VERDE - COMARCA; CAMPINA VERDE-PJ-UNPJ 4.473,58 0,00 0,00 2.166,25 0,00 0,00 6.639,83 1.010,57 634,27 0,00 1.644,84 4.994,99 352,00 427,95 31/12/2012
291 170000 ARLEY BRITES DA SILVA ASSESSOR ATIVO BELO HORIZONTE - COMARCA; EXTINTA - DIVISÃO DE MATERIAL PERMANENTE 0,00 703,86 3.519,31 2.111,58 1.407,72 0,00 7.742,47 861,56 687,64 0,00 1.549,20 6.193,27 822,00 0,00 31/12/2012
292 120400 ARLINDO CASSIO DA CRUZ OFICIAL DO MP ATIVO SÃO GONÇALO DO SAPUCAÍ - COMARCA; SAO GONCALO DO SAPUCAI-PJ-01PJ 9.814,62 6.870,24 0,00 8.342,43 5.561,62 0,00 30.588,91 3.670,66 7.871,94 0,00 11.542,60 19.046,31 587,00 0,00 31/12/2012
293 243700 ARLINDO MARCIO LACERDA OFICIAL DO MP ATIVO CONTAGEM - COMARCA; CONTAGEM-PJ-03PJ 5.421,69 1.626,51 0,00 3.795,18 0,00 0,00 10.843,38 1.550,60 1.902,99 0,00 3.453,59 7.389,79 352,00 0,00 31/12/2012
294 392100 ARNALDO DE ANDRADE OFICIAL DO MP ATIVO DIVINÓPOLIS - COMARCA; DIVINOPOLIS-PJ-02PJ 4.332,50 259,95 0,00 4.592,45 1.530,82 0,00 10.715,72 1.010,34 1.121,89 0,00 2.132,23 8.583,49 352,00 0,00 31/12/2012
295 352801 ARTHUR JONAS MENDONCA E ARAUJO ANALISTA DO MP ATIVO UBERABA - COMARCA; UBERABA-PJ-12PJ 4.473,58 268,41 0,00 2.505,20 1.580,66 0,00 8.827,85 1.043,24 1.208,77 0,00 2.252,01 6.575,84 352,00 0,00 31/12/2012
296 302100 AUGUSTO ROUSSEAU DE CASTRO ANALISTA DO MP ATIVO CATAGUASES - COMARCA; CATAGUASES-PJ-01PJ 8.361,90 836,19 0,00 4.599,04 0,00 0,00 13.797,13 2.023,58 2.955,35 0,00 4.978,93 8.818,20 352,00 0,00 31/12/2012
297 183200 AURELIANO MAGELA DE REZENDE COORDENADOR/OFICIAL ATIVO BELO HORIZONTE - COMARCA; COORD DE GABINETE DO PGJ 0,00 1.841,09 9.205,45 5.523,27 3.682,18 0,00 20.251,99 1.551,84 5.114,33 0,00 6.666,17 13.585,82 352,00 0,00 31/12/2012
298 519400 BARBARA CRISTINA ALVES PINTO ZADOROSNY ANALISTA DO MP ATIVO BELO HORIZONTE - COMARCA; PROC. JUSTICA DIR. DIFUSOS E COLETIVOS-SEC 3.935,44 0,00 0,00 1.967,72 0,00 0,00 5.903,16 649,35 329,03 0,00 978,38 4.924,78 352,00 0,00 31/12/2012
299 436800 BARBARA ROCHA LADEIA COLEN OFICIAL DO MP ATIVO BELO HORIZONTE - COMARCA; ASSESS TECNICO-JUR JUNTO AS PROC. DE JUST 3.574,80 214,49 0,00 2.029,63 0,00 0,00 5.818,92 833,64 391,93 0,00 1.225,57 4.593,35 352,00 0,00 31/12/2012
300 316500 BEATRIZ ABILVIA DA SILVA ANALISTA DO MP ATIVO GOVERNADOR VALADARES - COMARCA; GOVERNADOR VALADARES-PJ-13PJ 7.595,56 759,56 0,00 4.177,56 2.785,04 0,00 15.317,72 1.838,12 3.308,61 0,00 5.146,73 10.170,99 352,00 0,00 31/12/2012
301 482800 BEATRIZ ANGELICA NACIF SADER ASSESSOR ATIVO BELO HORIZONTE - COMARCA; CAO-CRIM EXEC PENAL TRIB JURI AUD MILITAR 0,00 0,00 5.598,22 2.799,11 1.866,07 0,00 10.263,40 861,56 1.962,11 0,00 2.823,67 7.439,73 352,00 559,82 31/12/2012
302 311800 BEATRIZ APARECIDA SOARES GANEM OFICIAL DO MP ATIVO ITAMBACURI - COMARCA; ITAMBACURI-PJ-02PJ 5.085,23 1.017,05 0,00 2.954,91 0,00 0,00 9.057,19 1.503,55 1.371,28 0,00 2.874,83 6.182,36 587,00 1.656,57 31/12/2012
303 266800 BEATRIZ AUGUSTA VILACA GOMES DA SILVA OFICIAL DO MP ATIVO BELO HORIZONTE - COMARCA; BH-05PJ-JUÍZO SUCESSÕES-SEC 4.473,58 447,36 0,00 4.765,75 0,00 0,00 9.686,69 1.116,74 823,71 0,00 1.940,45 7.746,24 352,00 465,57 31/12/2012
304 235200 BEATRIZ BOTELHO BATISTA OFICIAL DO MP ATIVO BELO HORIZONTE - COMARCA; CGMP-DIVISAO DE APOIO ADMINISTRATIVO 5.598,22 1.119,64 0,00 3.358,93 2.239,29 0,00 12.316,08 1.477,92 2.357,09 0,00 3.835,01 8.481,07 352,00 0,00 31/12/2012
305 113500 BEATRIZ DE LOURDES SOUZA ASSESSOR ATIVO BELO HORIZONTE - COMARCA; BH-02PJ FAMILIA-PROM DEC PAT 0,00 2.799,11 5.598,22 4.198,66 0,00 0,00 12.595,99 861,56 2.287,26 0,00 3.148,82 9.447,17 352,00 0,00 31/12/2012
306 182300 BEATRIZ PAULA SOUSA RAMOS OFICIAL DO MP ATIVO MARIANA - COMARCA; MARIANA-PJ-01PJ 7.124,13 2.137,24 0,00 8.412,66 0,00 0,00 17.674,03 2.346,47 2.840,60 0,00 5.187,07 12.486,96 352,00 3.657,52 31/12/2012
307 507000 BELCHIOR FRANKLIN AMARAL LEITE ANALISTA DO MP ATIVO BELO HORIZONTE - COMARCA; CENTRAL DE APOIO TECNICO 4.924,85 0,00 0,00 2.540,08 1.641,62 0,00 9.106,55 1.083,46 1.315,05 0,00 2.398,51 6.708,04 2.321,94 180,58 31/12/2012
308 345100 BENITO ELIAS RODRIGUES ANALISTA DO MP ATIVO BARBACENA - COMARCA; BARBACENA-PJ-SECRETARIA 7.356,10 735,61 0,00 4.045,85 2.697,24 0,00 14.834,80 1.917,51 3.368,54 0,00 5.286,05 9.548,75 352,00 1.248,48 31/12/2012
309 207300 BENITO VIEIRA DOS SANTOS ANALISTA DO MP ATIVO BELO HORIZONTE - COMARCA; COMB CRIMES PRAT POR AG POL MUN-ASSESSORIA 10.464,02 3.139,21 0,00 6.801,61 4.534,41 0,00 24.939,25 2.992,72 4.010,60 0,00 7.003,32 17.935,93 3.567,68 294,77 31/12/2012
310 120600 BERNADETE FIGUEIREDO SALVIANO OFICIAL DO MP ATIVO BELO HORIZONTE - COMARCA; AUDITORIA INTERNA 4.619,20 3.695,36 0,00 3.926,32 0,00 965,41 13.206,29 1.880,01 3.025,90 0,00 4.905,91 8.300,38 352,00 1.787,63 31/12/2012
311 480200 BERNADETE NUNES DOS SANTOS ANALISTA DO MP ATIVO GUANHÃES - COMARCA; GUANHAES-PJ-02PJ 4.924,85 0,00 0,00 4.924,85 0,00 0,00 9.849,70 1.083,46 863,61 0,00 1.947,07 7.902,63 352,00 0,00 31/12/2012
312 378400 BETANIA FARNESI DE SOUZA E SILVA OFICIAL DO MP ATIVO SETE LAGOAS - COMARCA; SETE LAGOAS-PJ-03PJ 4.332,50 866,50 0,00 2.361,26 1.733,00 0,00 9.293,26 1.248,60 1.267,67 0,00 2.516,27 6.776,99 587,00 1.429,41 31/12/2012
313 387400 BETANIA MENDONCA DE ASSIS ANALISTA DO MP ATIVO BELO HORIZONTE - COMARCA; BH-08PJ JUIZADO ESPECIAL-SECRETARIA 6.069,59 364,18 0,00 3.216,88 0,00 0,00 9.650,65 1.451,82 1.683,20 0,00 3.135,02 6.515,63 352,00 330,84 31/12/2012
314 450300 BIANCA OLIVEIRA DE ALBUQUERQUE ANALISTA DO MP ATIVO BELO HORIZONTE - COMARCA; BH-10PJ EXECUÇÃO PENAL-SECRETARIA 4.924,85 0,00 0,00 2.462,42 0,00 0,00 7.387,27 1.083,46 863,61 0,00 1.947,07 5.440,20 352,00 0,00 31/12/2012
315 120800 BRAS MARQUES DE SOUZA DIRETOR/ANALISTA ATIVO BELO HORIZONTE - COMARCA; EXTINTA - SUPERINTENDENCIA ADMINISTRATIVA-SAD 16.277,88 14.496,73 0,00 12.058,81 8.039,21 0,00 50.872,63 5.305,88 12.191,61 6.656,99 24.154,48 26.718,15 587,00 0,00 31/12/2012
316 460900 BRENO CRISTIANO DE SOUZA REZENDE ANALISTA DO MP ATIVO ITAÚNA - COMARCA; ITAUNA-PJ-02PJ 4.473,58 0,00 0,00 2.031,80 1.491,19 0,00 7.996,57 1.074,38 976,00 0,00 2.050,38 5.946,19 3.036,15 1.567,88 31/12/2012
317 239000 BRENO VENANCIO ROMANINI OFICIAL DO MP ATIVO BELO HORIZONTE - COMARCA; BH-20PJ ORD ECON TRIBUTARIA-SECRETARIA 4.619,20 923,84 0,00 2.771,52 0,00 0,00 8.314,56 914,59 866,14 0,00 1.780,73 6.533,83 352,00 0,00 31/12/2012
318 202200 BRIGITTE AMARALINA CALDAS MEDEIROS OFICIAL DO MP ATIVO NANUQUE - COMARCA; NANUQUE-PJ-02PJ 5.878,19 1.763,46 0,00 3.820,82 2.547,22 0,00 14.009,69 1.681,16 2.801,42 0,00 4.482,58 9.527,11 587,00 0,00 31/12/2012
319 513600 BRUNA KARLA MARTINS CARVALHO ANALISTA DO MP ATIVO GOVERNADOR VALADARES - COMARCA; GOVERNADOR VALADARES-PJ-01PJ 4.063,61 0,00 0,00 1.967,72 0,00 0,00 6.031,33 910,45 472,66 0,00 1.383,11 4.648,22 2.627,62 491,09 31/12/2012
320 415100 BRUNA MARIA SOARES OLIVEIRA COSTA RAMOS ANALISTA DO MP ATIVO UBÁ - COMARCA; COORD REG BACIA DO RIO PARAIBA DO SUL 5.598,22 335,89 0,00 2.967,05 1.978,04 0,00 10.879,20 979,12 1.553,68 0,00 2.532,80 8.346,40 352,00 0,00 31/12/2012
321 470000 BRUNA MORAES MARQUES ANALISTA DO MP ATIVO TOMBOS - COMARCA; TOMBOS-PJ-UNPJ 5.421,69 0,00 0,00 2.462,42 1.807,23 0,00 9.691,34 1.344,90 1.686,92 0,00 3.031,82 6.659,52 352,00 1.879,82 31/12/2012
322 463800 BRUNO ALVES TEIXEIRA ANALISTA DO MP ATIVO UBERLÂNDIA - COMARCA; UBERLANDIA-PJ-04PJ 5.421,69 0,00 0,00 2.462,42 0,00 0,00 7.884,11 1.271,11 985,21 0,00 2.256,32 5.627,79 3.567,68 1.669,36 31/12/2012
323 318200 BRUNO BARROS DE SOUZA OFICIAL DO MP ATIVO UBÁ - COMARCA; UBA-PJ-04PJ 5.085,23 508,52 0,00 3.053,19 0,00 0,00 8.646,94 1.230,62 761,38 0,00 1.992,00 6.654,94 587,00 0,00 31/12/2012
324 459600 BRUNO CASTELAR LUGAO MENDES OFICIAL DO MP ATIVO GOVERNADOR VALADARES - COMARCA; GOVERNADOR VALADARES-PJ-SECRETARIA 3.519,31 0,00 0,00 1.920,90 1.173,10 0,00 6.613,31 774,24 556,40 0,00 1.330,64 5.282,67 352,00 0,00 31/12/2012
325 427400 BRUNO CESAR RIBEIRO DE PAIVA ANALISTA DO MP ATIVO BELO HORIZONTE - COMARCA; ASSESS JUR DO CONS SUPERIOR DO MINISTERIO PUB 5.598,22 335,89 0,00 2.967,05 1.978,04 0,00 10.879,20 1.305,50 1.901,60 0,00 3.207,10 7.672,10 352,00 0,00 31/12/2012
326 490200 BRUNO CESARINO SOARES ANALISTA DO MP ATIVO BELO HORIZONTE - COMARCA; CENTRAL DE APOIO TECNICO-SETOR DE ENGENHARIA 4.760,69 0,00 0,00 2.540,08 0,00 0,00 7.300,77 1.083,46 821,10 0,00 1.904,56 5.396,21 352,00 0,00 31/12/2012
327 380900 BRUNO CIRILO ANTUNES OFICIAL DO MP ATIVO VARGINHA - COMARCA; VARGINHA-PJ-05PJ 3.300,91 198,05 0,00 1.749,48 0,00 0,00 5.248,44 769,78 306,82 0,00 1.076,60 4.171,84 352,00 0,00 31/12/2012
328 329000 BRUNO DE MELO REIS ANALISTA DO MP ATIVO PATROCÍNIO - COMARCA; PATROCINIO-PJ-02PJ 7.595,56 1.519,11 0,00 4.413,66 3.038,22 0,00 16.566,55 2.068,45 3.679,71 0,00 5.748,16 10.818,39 352,00 862,05 31/12/2012
329 378300 BRUNO HERDY LOPES DE OLIVEIRA ANALISTA DO MP ATIVO MANTENA - COMARCA; MANTENA-PJ-SECRETARIA 6.069,59 364,18 0,00 3.216,88 0,00 0,00 9.650,65 1.415,42 1.602,23 0,00 3.017,65 6.633,00 352,00 0,00 31/12/2012
330 350100 BRUNO LAUD SERRANO DOS REIS OFICIAL DO MP ATIVO UBÁ - COMARCA; UBA-PJ-04PJ 4.332,50 866,50 0,00 2.641,34 1.733,00 0,00 9.573,34 1.214,77 1.214,15 0,00 2.428,92 7.144,42 587,00 968,01 31/12/2012
331 373800 BRUNO MARTINO DE ALBUQUERQUE ANALISTA DO MP ATIVO PONTE NOVA - COMARCA; PONTE NOVA-PJ-SECRETARIA 6.069,59 364,18 0,00 3.216,88 0,00 0,00 9.650,65 1.548,86 1.714,03 0,00 3.262,89 6.387,76 587,00 1.213,08 31/12/2012
332 470400 BRUNO NOVAIS CABRAL ANALISTA DO MP ATIVO RESPLENDOR - COMARCA; RESPLENDOR-PJ-UNPJ 4.924,85 0,00 0,00 2.462,42 1.641,62 0,00 9.028,89 812,59 1.090,63 0,00 1.903,22 7.125,67 352,00 0,00 31/12/2012
333 369200 BRUNO ROBERTO DIAS DE OLIVEIRA OFICIAL DO MP ATIVO BELO HORIZONTE - COMARCA; BH-23PJ CIVEL-SETOR JURIDICO 4.473,58 447,36 0,00 2.460,47 1.640,31 0,00 9.021,72 1.082,60 1.312,78 0,00 2.395,38 6.626,34 352,00 0,00 31/12/2012
334 438200 BRUNO SALES PEREIRA ANALISTA DO MP ATIVO BELO HORIZONTE - COMARCA; CENTRAL DE APOIO TECNICO-SETOR CONTABIL 5.598,22 335,89 0,00 3.471,68 0,00 0,00 9.405,79 1.305,50 1.357,63 0,00 2.663,13 6.742,66 352,00 0,00 31/12/2012
335 405800 CAIO FERNANDO RODRIGUES DE OLIVEIRA ANALISTA DO MP ATIVO BELO HORIZONTE - COMARCA; ASSESS TECNICO-JUR JUNTO AS PROC. DE JUST 6.069,59 364,18 0,00 3.466,71 2.144,59 0,00 12.045,07 1.415,42 2.191,99 0,00 3.607,41 8.437,66 352,00 0,00 31/12/2012
336 491400 CAIO MIRANDA JUNQUEIRA ANALISTA DO MP ATIVO BUENO BRANDAO - COMARCA; BUENO BRANDAO-PJ-UNPJ 4.473,58 0,00 0,00 2.307,33 0,00 0,00 6.780,91 984,18 662,53 0,00 1.646,71 5.134,20 587,00 0,00 31/12/2012
337 415800 CAMILA ALVES DA SILVA ANALISTA DO MP ATIVO CAETÉ - COMARCA; CAETE-PJ-01PJ 5.598,22 335,89 0,00 2.967,05 1.978,04 0,00 10.879,20 979,12 1.553,68 0,00 2.532,80 8.346,40 352,00 0,00 31/12/2012
338 445200 CAMILA CONDE ROCHA ANALISTA DO MP ATIVO CONTAGEM - COMARCA; CONTAGEM-PJ-10PJ 5.598,22 335,89 0,00 3.036,14 0,00 0,00 8.970,25 1.328,14 1.311,84 0,00 2.639,98 6.330,27 3.567,68 750,09 31/12/2012
339 419900 CAMILA CUNNINGHAM PIMENTA DE PADUA ANALISTA DO MP ATIVO BELO HORIZONTE - COMARCA; ASSESSORIA PSICOSSOCIAL 5.598,22 335,89 0,00 2.967,05 0,00 0,00 8.901,16 1.305,50 1.357,63 0,00 2.663,13 6.238,03 352,00 0,00 31/12/2012
340 507700 CAMILA ELIZABETH RODRIGUES ANALISTA DO MP ATIVO BELO HORIZONTE - COMARCA; BH-02PJ FAMILIA 4.924,85 0,00 0,00 2.758,60 1.641,62 0,00 9.325,07 1.083,46 1.315,05 0,00 2.398,51 6.926,56 352,00 0,00 31/12/2012
341 372700 CAMILA FONSECA LIMONGE ANALISTA DO MP ATIVO BETIM - COMARCA; BETIM-PJ-01PJ 6.069,59 364,18 0,00 3.216,88 0,00 0,00 9.650,65 1.415,42 1.602,23 0,00 3.017,65 6.633,00 352,00 0,00 31/12/2012
342 409800 CAMILA GONCALVES COSTA RIBEIRO ANALISTA DO MP ATIVO INHAPIM - COMARCA; INHAPIM-PJ-02PJ 6.069,59 364,18 0,00 2.967,05 0,00 0,00 9.400,82 1.510,69 1.479,93 0,00 2.990,62 6.410,20 352,00 1.532,26 31/12/2012
343 335000 CAMILA GONTIJO DE PAIVA ANALISTA DO MP ATIVO BELO HORIZONTE - COMARCA; COORD DE CONTROLE DA CONSTITUCIONALIDADE 7.124,13 712,41 0,00 7.118,41 0,00 0,00 14.954,95 1.882,04 2.020,57 0,00 3.902,61 11.052,34 1.757,19 2.283,23 31/12/2012
344 430000 CANDIDA MARINA COSTA ANALISTA DO MP ATIVO BELO HORIZONTE - COMARCA; DIVISAO DE DOCUMENTACAO JURIDICA 5.598,22 335,89 0,00 2.967,05 1.978,04 0,00 10.879,20 1.305,50 1.901,60 0,00 3.207,10 7.672,10 352,00 0,00 31/12/2012
345 380400 CARINA DIAS FACANHA DE SOUZA ANALISTA DO MP ATIVO SANTA RITA DO SAPUCAÍ - COMARCA; SANTA RITA DO SAPUCAI-PJ-SECRETARIA 5.598,22 335,89 0,00 5.934,11 0,00 0,00 11.868,22 1.305,50 1.357,63 0,00 2.663,13 9.205,09 352,00 0,00 31/12/2012
346 255000 CARLA ADRIANA DE MENEZES ASSESSOR/OFICIAL ATIVO BELO HORIZONTE - COMARCA; CENT DE APOIO TEC-SETOR DEF,IDOSO E INFANC 0,00 1.119,64 5.598,22 3.638,84 2.239,29 0,00 12.595,99 1.342,50 2.394,33 0,00 3.736,83 8.859,16 352,00 0,00 31/12/2012
347 425100 CARLA ADRIANA DINIZ AMARAL OFICIAL DO MP ATIVO CONTAGEM - COMARCA; CONTAGEM-PJ-08PJ 3.574,80 214,49 0,00 1.894,64 0,00 0,00 5.683,93 625,23 288,60 0,00 913,83 4.770,10 352,00 0,00 31/12/2012
348 508100 CARLA ALESSANDRA FONSECA ANALISTA DO MP ATIVO BELO HORIZONTE - COMARCA; CAO-ORDEM ECONOMICA E TRIBUTARIA-SECRETARIA 4.924,85 0,00 0,00 2.957,13 0,00 0,00 7.881,98 1.083,46 863,61 0,00 1.947,07 5.934,91 352,00 0,00 31/12/2012
349 351500 CARLA APARECIDA MENDES RAMIRIO OFICIAL DO MP ATIVO PASSOS - COMARCA; PASSOS-PJ-07PJ 4.473,58 447,36 0,00 3.971,46 0,00 0,00 8.892,40 1.106,50 734,90 0,00 1.841,40 7.051,00 3.802,68 665,36 31/12/2012
350 206200 CARLA BORGES DA COSTA COORDENADOR/ANALISTA ATIVO BELO HORIZONTE - COMARCA; DIVIS DE PROJETOS DE ENGENHARIA E ARQUITETURA 10.464,02 5.805,25 0,00 9.181,04 0,00 0,00 25.450,31 3.222,92 6.514,69 0,00 9.737,61 15.712,70 352,00 0,00 31/12/2012
351 442800 CARLA GONCALVES COSTA SOALHEIRO ANALISTA DO MP ATIVO GOVERNADOR VALADARES - COMARCA; GOVERNADOR VALADARES-PJ-11PJ 5.598,22 335,89 0,00 3.036,14 0,00 0,00 8.970,25 1.341,86 1.311,84 0,00 2.653,70 6.316,55 587,00 517,70 31/12/2012
352 321500 CARLA GONCALVES MASSOTE OFICIAL DO MP ATIVO CAMPO BELO - COMARCA; CAMPO BELO-PJ-01PJ 5.085,23 508,52 0,00 3.053,19 0,00 0,00 8.646,94 1.230,62 1.191,03 0,00 2.421,65 6.225,29 352,00 0,00 31/12/2012
353 429200 CARLA HAUTEQUESTT BECHARA ANALISTA DO MP ATIVO BELO HORIZONTE - COMARCA; DIVISAO DE DOCUMENTACAO JURIDICA 5.598,22 335,89 0,00 2.967,05 0,00 0,00 8.901,16 1.305,50 1.357,63 0,00 2.663,13 6.238,03 352,00 0,00 31/12/2012
354 247500 CARLA MATILDE GUIMARAES DE OLIVEIRA OFICIAL DO MP ATIVO ITAJUBA - COMARCA; ITAJUBA-PJ-03PJ 4.924,85 984,97 0,00 2.954,91 0,00 0,00 8.864,73 1.300,16 1.345,75 0,00 2.645,91 6.218,82 682,21 30,27 31/12/2012
355 226100 CARLA MERLI DA CONCEICAO ANALISTA DO MP ATIVO BELO HORIZONTE - COMARCA; CENTRAL DE APOIO TECNICO-SETOR CONTABIL 9.814,62 1.962,92 0,00 6.074,44 3.925,85 0,00 21.777,83 2.591,06 5.205,06 0,00 7.796,12 13.981,71 352,00 0,00 31/12/2012
356 330400 CARLA SILVEIRA CASTEJON PINHEIRO OFICIAL DO MP ATIVO PATOS DE MINAS - COMARCA; PATOS DE MINAS-PJ-06PJ 4.924,85 492,49 0,00 2.623,24 0,00 0,00 8.040,58 1.229,39 1.062,86 0,00 2.292,25 5.748,33 587,00 569,47 31/12/2012
357 181401 CARLO MICHEL GAUDENSI COELHO ANALISTA DO MP ATIVO IBIRITÉ - COMARCA; IBIRITE-PJ-01PJ 5.598,22 1.119,64 0,00 3.358,93 0,00 0,00 10.076,79 1.477,92 1.741,29 0,00 3.219,21 6.857,58 352,00 0,00 31/12/2012
358 375800 CARLOS ALBERTO ROCHA OFICIAL DO MP ATIVO VARGINHA - COMARCA; VARGINHA-PJ-07PJ 4.332,50 259,95 0,00 2.506,66 0,00 0,00 7.099,11 1.010,34 710,13 0,00 1.720,47 5.378,64 352,00 0,00 31/12/2012
359 462800 CARLOS ANDREI SOARES FAGUNDES ANALISTA DO MP ATIVO MONTES CLAROS - COMARCA; MONTES CLAROS-PJ-09PJ 5.421,69 0,00 0,00 4.924,85 1.807,23 0,00 12.153,77 1.291,14 1.482,20 0,00 2.773,34 9.380,43 352,00 1.391,15 31/12/2012
360 370300 CARLOS AUGUSTO BUENO DIAS ASSESSOR ATIVO BELO HORIZONTE - COMARCA; DIRETORIA DE FISCALIZACAO DE OBRAS 0,00 0,00 7.124,13 7.124,13 2.374,71 0,00 16.622,97 861,56 1.611,80 0,00 2.473,36 14.149,61 352,00 0,00 31/12/2012
361 505100 CARLOS CEZAR CARVALHO ANALISTA DO MP ATIVO RIBEIRÃO DAS NEVES - COMARCA; RIBEIRAO DAS NEVES-PJ-SEC CIVEL 4.063,61 812,72 0,00 4.876,33 0,00 0,00 9.752,66 1.072,80 839,85 0,00 1.912,65 7.840,01 352,00 0,00 31/12/2012
362 195900 CARLOS DE SOUZA FERREIRA OFICIAL DO MP ATIVO COROMANDEL - COMARCA; COROMANDEL-PJ-UNPJ 5.421,69 2.710,85 0,00 8.132,54 0,00 0,00 16.265,08 1.789,16 2.248,68 0,00 4.037,84 12.227,24 352,00 0,00 31/12/2012
363 196800 CARLOS EDUARDO DE OLIVEIRA MARINHO OFICIAL DO MP ATIVO PASSOS - COMARCA; PASSOS-PJ-SECRETARIA 7.356,10 2.942,44 0,00 4.986,89 3.432,85 0,00 18.718,28 2.337,13 4.266,03 0,00 6.603,16 12.115,12 587,00 974,28 31/12/2012
364 491800 CARLOS EDUARDO ROMAN OFICIAL DO MP ATIVO BARBACENA - COMARCA; BARBACENA-PJ-01PJ 3.196,81 319,68 0,00 3.516,49 0,00 0,00 7.032,98 833,30 398,47 0,00 1.231,77 5.801,21 352,00 542,52 31/12/2012
365 299300 CARLOS HENRIQUE BICALHO ANALISTA DO MP ATIVO BELO HORIZONTE - COMARCA; BH-17PJ PATRIMONIO PUBLICO-SECRETARIA 8.361,90 1.672,38 0,00 5.476,94 0,00 0,00 15.511,22 2.207,54 3.364,67 0,00 5.572,21 9.939,01 352,00 0,00 31/12/2012
366 205100 CARLOS HENRIQUE ESTEVES OFICIAL DO MP ATIVO ITAMBACURI - COMARCA; ITAMBACURI-PJ-01PJ 7.356,10 1.471,22 0,00 4.413,66 2.942,44 0,00 16.183,42 2.108,47 3.953,39 0,00 6.061,86 10.121,56 352,00 1.513,20 31/12/2012
367 351600 CARLOS HENRIQUE FELICIO DA FONSECA OFICIAL DO MP ATIVO LIMA DUARTE - COMARCA; LIMA DUARTE-PJ-UNPJ 4.332,50 866,50 0,00 2.661,63 0,00 0,00 7.860,63 1.214,77 918,83 0,00 2.133,60 5.727,03 352,00 968,01 31/12/2012
368 85400 CARLOS JOSE VIEIRA OFICIAL DO MP ATIVO BELO HORIZONTE - COMARCA; DIRETORIA DO CONSELHO SUPERIOR DO MP 16.277,88 8.138,94 0,00 12.058,81 8.039,21 0,00 44.514,84 5.305,88 12.469,25 299,20 18.074,33 26.440,51 352,00 0,00 31/12/2012
369 229100 CARLOS MERCES DE OLIVEIRA ANALISTA DO MP ATIVO BELO HORIZONTE - COMARCA; CENTRAL DE APOIO TECN-SETOR DE MEIO AMBIENTE 8.915,18 1.783,04 0,00 5.349,11 3.566,07 0,00 19.613,40 2.353,60 3.640,14 0,00 5.993,74 13.619,66 352,00 0,00 31/12/2012
370 265100 CARLOS REIFF MIRANDA ANALISTA DO MP ATIVO BELO HORIZONTE - COMARCA; BH-19PJ SAUDE-ASS TECNICA 7.595,56 759,56 0,00 4.177,56 0,00 0,00 12.532,68 1.838,12 2.542,73 0,00 4.380,85 8.151,83 352,00 0,00 31/12/2012
371 305400 CARLOS ROCHA DE SOUZA OFICIAL DO MP ATIVO MONTALVÂNIA - COMARCA; MONTALVANIA-PJ-SECRETARIA 4.195,87 419,59 0,00 2.307,73 1.538,49 0,00 8.461,68 1.015,40 1.135,24 0,00 2.150,64 6.311,04 1.134,46 0,00 31/12/2012
372 349200 CARLOS WAGNER MELO FRANCO OFICIAL DO MP ATIVO PITANGUI - COMARCA; PITANGUI-PJ-01PJ 3.408,38 204,50 0,00 3.612,88 0,00 0,00 7.225,76 794,84 286,76 0,00 1.081,60 6.144,16 709,88 0,00 31/12/2012
373 365100 CARLOS WAGNER SANDER MORAIS ASSESSOR/OFICIAL ATIVO BELO HORIZONTE - COMARCA; DIRETORIA DE ADMINISTRACAO FINANCEIRA 0,00 712,41 7.124,13 7.836,54 2.612,18 0,00 18.285,26 1.081,01 3.184,06 0,00 4.265,07 14.020,19 352,00 0,00 31/12/2012
374 399900 CARMELITA EVANGELISTA DE SOUZA OFICIAL DO MP ATIVO JOÃO PINHEIRO - COMARCA; JOAO PINHEIRO-PJ-01PJ 3.300,91 198,05 0,00 3.498,96 0,00 0,00 6.997,92 769,78 306,82 0,00 1.076,60 5.921,32 352,00 0,00 31/12/2012
375 390400 CARMEM APARECIDA ANTUNES RESENDE OFICIAL DO MP ATIVO IGARAPÉ - COMARCA; IGARAPE-PJ-SECRETARIA 3.935,44 3.148,35 0,00 3.866,47 2.361,26 0,00 13.311,52 1.558,44 2.569,75 0,00 4.128,19 9.183,33 352,00 0,00 31/12/2012
376 202000 CARMEN LUCIA MARIZ DE MACEDO OFICIAL DO MP ATIVO BELO HORIZONTE - COMARCA; COORD COMB REPRES TRAFICO ILICITO ENTORPECEN 7.124,13 2.849,65 0,00 4.986,89 0,00 0,00 14.960,67 2.664,43 4.381,24 0,00 7.045,67 7.915,00 3.567,68 4.569,27 31/12/2012
377 228500 CAROLINA CHIARELLA DOS SANTOS RIBEIRO OFICIAL DO MP ATIVO BELO HORIZONTE - COMARCA; BH-13ª PJ JUÍXO DE TÓXICOS 4.195,87 839,17 0,00 2.748,20 1.678,35 0,00 9.461,59 1.107,70 1.286,54 0,00 2.394,24 7.067,35 822,00 0,00 31/12/2012
378 446500 CAROLINA COSTA VAL RODRIGUES ANALISTA DO MP ATIVO CONTAGEM - COMARCA; CONTAGEM-PJ-05PJ 5.421,69 542,17 0,00 2.981,93 1.987,95 0,00 10.933,74 1.312,04 1.918,89 0,00 3.230,93 7.702,81 352,00 0,00 31/12/2012
379 404300 CAROLINA DOS SANTOS VIEIRA ANALISTA DO MP ATIVO BELO HORIZONTE - COMARCA; BH-08PJ JUIZADO ESPECIAL-SECRETARIA 6.069,59 364,18 0,00 3.466,71 0,00 0,00 9.900,48 1.415,42 1.602,23 0,00 3.017,65 6.882,83 1.466,58 59,09 31/12/2012
380 426600 CAROLINA GUEDES PEREIRA ANALISTA DO MP ATIVO BELO HORIZONTE - COMARCA; ASSESS JUR DO CONS SUPERIOR DO MINISTERIO PUB 5.598,22 335,89 0,00 2.967,05 0,00 0,00 8.901,16 1.490,16 1.768,50 0,00 3.258,66 5.642,50 352,00 1.678,71 31/12/2012
381 382200 CAROLINA MENDES CHAVES LIN ANALISTA DO MP ATIVO BELO HORIZONTE - COMARCA; SUPERINTENDENCIA DE RECURSOS HUMANOS 5.085,23 305,11 0,00 2.695,17 0,00 0,00 8.085,51 1.185,88 1.091,47 0,00 2.277,35 5.808,16 0,00 0,00 31/12/2012
382 461900 CAROLINA MURTA TEIXEIRA DIAS ANALISTA DO MP ATIVO BELO HORIZONTE - COMARCA; SUPRIN DE FORMACAO E APERFEICOAMENTO-SFA/CEAF 5.421,69 0,00 0,00 2.688,06 0,00 0,00 8.109,75 1.263,82 985,21 0,00 2.249,03 5.860,72 352,00 1.142,73 31/12/2012
383 509600 CAROLINA PINTO DE OLIVEIRA SOUZA ANALISTA DO MP ATIVO MURIAÉ - COMARCA; MURIAE-PJ-03PJ 4.473,58 0,00 0,00 2.505,86 0,00 0,00 6.979,44 984,18 662,53 0,00 1.646,71 5.332,73 587,00 0,00 31/12/2012
384 502600 CAROLINA RODRIGUES RUBEN ANALISTA DO MP ATIVO BELO HORIZONTE - COMARCA; BH-18PJ VIOLENCIA DOMESTICA-SECRETARIA 4.473,58 0,00 0,00 2.307,33 0,00 0,00 6.780,91 745,89 504,81 0,00 1.250,70 5.530,21 352,00 0,00 31/12/2012
385 517600 CAROLINE ALVES DE OLIVEIRA MULLER ANALISTA DO MP ATIVO ERVÁLIA - COMARCA; ERVALIA-PJ-SECRETARIA 4.769,54 0,00 0,00 2.384,77 1.589,85 0,00 8.744,16 1.049,30 1.224,78 0,00 2.274,08 6.470,08 587,00 0,00 31/12/2012
386 373200 CAROLINE ANTUNES RIBEIRO OFICIAL DO MP ATIVO JACUI - COMARCA; JACUI-PJ-UNPJ 4.332,50 259,95 0,00 2.506,66 1.530,82 0,00 8.629,93 1.010,34 1.121,89 0,00 2.132,23 6.497,70 587,00 0,00 31/12/2012
387 497800 CAROLINE BATISTA MARTINS OFICIAL DO MP ATIVO RIBEIRÃO DAS NEVES - COMARCA; RIBEIRAO DAS NEVES-PJ-04PJ 3.196,81 0,00 0,00 3.196,81 0,00 0,00 6.393,62 703,30 226,14 0,00 929,44 5.464,18 352,00 0,00 31/12/2012
388 499400 CAROLINE MARQUES DE LOURDES MARZULLO OFICIAL DO MP ATIVO JUIZ DE FORA - COMARCA; JUIZ DE FORA-PJ-20PJ 2.903,86 0,00 0,00 1.497,72 0,00 0,00 4.401,58 638,84 147,94 0,00 786,78 3.614,80 352,00 0,00 31/12/2012
389 268800 CASSIA BEATRIZ TEIXEIRA OFICIAL DO MP ATIVO BELO HORIZONTE - COMARCA; COMB CRIMES PRAT POR AG POL MUN-SECRETARIA 5.598,22 559,82 0,00 3.361,16 0,00 0,00 9.519,20 1.354,76 1.467,25 0,00 2.822,01 6.697,19 352,00 0,00 31/12/2012
390 500000 CASSIA DE OLIVEIRA COSTA VIANA ANALISTA DO MP ATIVO SETE LAGOAS - COMARCA; SETE LAGOAS-PJ-01PJ 4.924,85 0,00 0,00 4.924,85 0,00 0,00 9.849,70 1.083,46 863,61 0,00 1.947,07 7.902,63 352,00 0,00 31/12/2012
391 368800 CASSIA LUISA BATISTA MENDONCA WEBER OFICIAL DO MP ATIVO BELO HORIZONTE - COMARCA; PROCON-MG-SEC DE EDUCACAO PARA O CONSUMO 3.691,17 369,12 0,00 2.030,14 0,00 0,00 6.090,43 893,26 496,99 0,00 1.390,25 4.700,18 587,00 0,00 31/12/2012
392 121000 CASSIO HENRIQUE AFONSO DA SILVA COORDENADOR/OFICIAL ATIVO BELO HORIZONTE - COMARCA; DIVISAO DE ATENDIMENTO E CONSULTA JURIDICA 8.361,90 6.124,52 0,00 7.243,21 4.828,81 0,00 26.558,44 2.759,42 6.804,41 0,00 9.563,83 16.994,61 822,00 0,00 31/12/2012
393 121100 CASSIO MOREIRA DE MIRANDA AGENTE DO MP ATIVO BELO HORIZONTE - COMARCA; PROCON-MG-SECRETARIA DE FISCALIZACOES 2.998,37 2.098,86 0,00 2.548,61 1.699,08 0,00 9.344,92 1.121,40 709,15 0,00 1.830,55 7.514,37 352,00 0,00 31/12/2012
394 512000 CATARINA NATALINO CALIXTO OFICIAL DO MP ATIVO BELO HORIZONTE - COMARCA; EXTINTA - DIVISÃO DE COMPRAS 2.637,71 0,00 0,00 1.277,27 0,00 0,00 3.914,98 593,72 95,50 0,00 689,22 3.225,76 352,00 205,13 31/12/2012
395 71800 CATIA EFIGENIA CARNEIRO DE FREITAS OFICIAL DO MP ATIVO BELO HORIZONTE - COMARCA; ASSESSORIA JURIDICO-ADMINISTRATIVA 18.757,35 13.130,16 0,00 12.058,81 0,00 0,00 43.946,32 5.305,88 10.165,92 7.769,89 23.241,69 20.704,63 352,00 0,00 31/12/2012
396 261300 CECILIO ANTONIO CAMPOS DOS REIS ANALISTA DO MP ATIVO BELO HORIZONTE - COMARCA; CENTRAL DE APOIO TECNICO-SETOR CONTABIL 8.634,11 1.726,82 0,00 5.343,79 0,00 0,00 15.704,72 2.279,40 3.524,57 0,00 5.803,97 9.900,75 352,00 0,00 31/12/2012
397 386400 CEFAS AMORELI DE FIGUEIREDO OFICIAL DO MP ATIVO CABO VERDE - COMARCA; CABO VERDE-PJ-SECRETARIA 3.300,91 198,05 0,00 1.749,48 0,00 0,00 5.248,44 769,78 306,82 0,00 1.076,60 4.171,84 352,00 0,00 31/12/2012
398 149000 CELIA MAGALHAES CLAROS SOSSI OFICIAL DO MP ATIVO GOVERNADOR VALADARES - COMARCA; GOVERNADOR VALADARES-PJ-01PJ 7.595,56 3.038,23 0,00 5.316,89 0,00 0,00 15.950,68 2.339,44 3.658,13 0,00 5.997,57 9.953,11 352,00 0,00 31/12/2012
399 113100 CELIA MARIA ALVES PINTO OFICIAL DO MP ATIVO BELO HORIZONTE - COMARCA; PROCON-MG-SEC DE EDUCACAO PARA O CONSUMO 5.598,22 3.918,76 0,00 6.052,58 3.172,33 0,00 18.741,89 2.093,74 3.983,84 0,00 6.077,58 12.664,31 352,00 0,00 31/12/2012
400 421000 CELINA BENEDITA DE SOUZA ALMEIDA OFICIAL DO MP ATIVO CAMBUÍ - COMARCA; CAMBUI-PJ-01PJ 3.574,80 1.429,92 0,00 2.502,36 0,00 0,00 7.507,08 1.101,04 810,15 0,00 1.911,19 5.595,89 352,00 0,00 31/12/2012
401 252900 CELIO DE MELO CASTOR ANALISTA DO MP ATIVO BELO HORIZONTE - COMARCA; BH-20PJ ORD ECON TRIBUTARIA-SECRETARIA 8.634,11 1.726,82 0,00 5.761,88 0,00 0,00 16.122,81 2.279,40 3.432,02 0,00 5.711,42 10.411,39 352,00 0,00 31/12/2012
402 395700 CELIO FERREIRA LIMA OFICIAL DO MP ATIVO CONTAGEM - COMARCA; CONTAGEM-PJ-07PJ 3.574,80 214,49 0,00 2.039,81 0,00 0,00 5.829,10 833,64 333,87 0,00 1.167,51 4.661,59 587,00 0,00 31/12/2012
403 281300 CELMA REGINA PEREIRA SANTOS ANALISTA DO MP ATIVO BELO HORIZONTE - COMARCA; DIVISAO DE ACERVOS BIBLIOGRAFICOS 8.361,90 836,19 0,00 4.599,04 0,00 0,00 13.797,13 2.023,58 2.955,35 0,00 4.978,93 8.818,20 352,00 0,00 31/12/2012
404 367000 CESAR NARVAES DE AVELAR OFICIAL DO MP ATIVO BELO HORIZONTE - COMARCA; DIVISAO DE MEMORIA INSTITUCIONAL 4.473,58 447,36 0,00 2.460,47 0,00 0,00 7.381,41 811,95 637,75 0,00 1.449,70 5.931,71 352,00 0,00 31/12/2012
405 226500 CESAR SILVEIRA BARROUIN OFICIAL DO MP ATIVO BELO HORIZONTE - COMARCA; DIRETORIA DE ADMINISTRACAO FINANCEIRA 5.421,69 1.626,51 0,00 6.506,03 0,00 0,00 13.554,23 1.610,24 1.902,98 0,00 3.513,22 10.041,01 352,00 1.084,34 31/12/2012
406 121400 CEZAR MORENO CONCEICAO TAVARES OFICIAL DO MP ATIVO BELO HORIZONTE - COMARCA; BH-15PJ M AMB 16PJ HAB URB-SECRETARIA 7.595,56 3.797,78 0,00 5.517,07 0,00 0,00 16.910,41 2.585,56 3.942,02 0,00 6.527,58 10.382,83 352,00 1.077,57 31/12/2012
407 243800 CHARLES MARTINS MUNIZ OFICIAL DO MP ATIVO BELO HORIZONTE - COMARCA; GAECO - SECRETARIA 4.924,85 984,97 0,00 2.954,91 1.969,94 0,00 10.834,67 1.300,16 1.887,48 0,00 3.187,64 7.647,03 352,00 0,00 31/12/2012
408 193500 CHARLIN CESAR KOURLY OFICIAL DO MP ATIVO ITUIUTABA - COMARCA; ITUIUTABA-PJ-SECRETARIA 7.356,10 1.471,22 0,00 4.274,48 0,00 0,00 13.101,80 1.994,07 2.705,74 0,00 4.699,81 8.401,99 352,00 751,58 31/12/2012
409 385500 CHILLEN PEIXOTO DE MOURA OFICIAL DO MP ATIVO RIBEIRÃO DAS NEVES - COMARCA; RIBEIRAO DAS NEVES-PJ-SEC CIVEL 3.300,91 198,05 0,00 1.749,48 1.166,32 0,00 6.414,76 577,33 466,68 0,00 1.044,01 5.370,75 352,00 0,00 31/12/2012
410 370600 CHRISTIAN KARINE FELIX PRATES ASSESSOR ATIVO BELO HORIZONTE - COMARCA; PROCURADOR-GERAL DE JUSTICA- GABINETE 0,00 0,00 5.598,22 2.279,37 0,00 0,00 7.877,59 861,56 890,18 0,00 1.751,74 6.125,85 587,00 0,00 31/12/2012
411 435800 CHRISTIANA BAHIA ANDRADE PINA ANALISTA DO MP ATIVO BELO HORIZONTE - COMARCA; CAO-ORDEM ECONOMICA E TRIBUTARIA 5.598,22 335,89 0,00 3.223,26 0,00 0,00 9.157,37 1.305,50 1.357,63 0,00 2.663,13 6.494,24 587,00 0,00 31/12/2012
412 516800 CHRISTIANE FERREIRA DO NASCIMENTO ANALISTA DO MP ATIVO ESTRELA DO SUL - COMARCA; ESTRELA DO SUL-PJ-UNPJ 3.935,44 0,00 0,00 1.967,72 0,00 0,00 5.903,16 649,35 329,03 0,00 978,38 4.924,78 352,00 0,00 31/12/2012
413 176000 CHRISTIANE JUNQUEIRA PULITI ANDRADE DE BARROS ASSESSOR ATIVO BELO HORIZONTE - COMARCA; CENTRO DE ESTUDOS E APERFEICOAMENTO FUNCIONAL 0,00 4.602,73 9.205,45 6.904,09 4.602,73 0,00 25.315,00 3.037,80 6.385,20 0,00 9.423,00 15.892,00 352,00 0,00 31/12/2012
414 319200 CHRISTIANE MARIA DE ASSIS RUSSO OFICIAL DO MP ATIVO BELO HORIZONTE - COMARCA; CAO-ORDEM ECONOMICA E TRIBUTARIA-SECRETARIA 5.085,23 508,52 0,00 3.053,19 0,00 0,00 8.646,94 1.230,62 1.191,03 0,00 2.421,65 6.225,29 587,00 0,00 31/12/2012
415 510300 CHRISTIANE MARY DE CARVALHO FERREIRA ANALISTA DO MP ATIVO BELO HORIZONTE - COMARCA; DIRETORIA DE SISTEMAS DE INFORMACAO 3.935,44 0,00 0,00 1.967,72 0,00 0,00 5.903,16 865,80 446,99 0,00 1.312,79 4.590,37 587,00 0,00 31/12/2012
416 424900 CHRISTIANE PEREIRA TURNER DE ARAUJO OFICIAL DO MP ATIVO BELO HORIZONTE - COMARCA; CAO-PATRIMONIO PUBLICO 3.574,80 214,49 0,00 2.039,81 1.263,10 0,00 7.092,20 833,64 690,86 0,00 1.524,50 5.567,70 352,00 0,00 31/12/2012
417 513700 CHRISTIANE VIEIRA SOARES PEDERSOLI ANALISTA DO MP ATIVO BELO HORIZONTE - COMARCA; EXTINTA - SECRETARIA ADMINISTRATIVA 4.769,54 0,00 0,00 2.384,77 1.589,85 0,00 8.744,16 1.049,30 1.224,78 0,00 2.274,08 6.470,08 352,00 0,00 31/12/2012
418 412300 CHRYSTIAN MACHADO RIBEIRO ANALISTA DO MP ATIVO VARGINHA - COMARCA; VARGINHA-PJ-04PJ 6.069,59 364,18 0,00 2.967,05 2.144,59 0,00 11.545,41 1.171,48 1.721,77 0,00 2.893,25 8.652,16 352,00 1.249,13 31/12/2012
419 513800 CHRYSTIANE DO NASCIMENTO DE MAGALHAES OFICIAL DO MP ATIVO UBERLÂNDIA - COMARCA; UBERLANDIA-PJ-10PJ 2.554,55 0,00 0,00 2.554,55 851,52 0,00 5.960,62 610,18 261,59 0,00 871,77 5.088,85 587,00 438,00 31/12/2012
420 497900 CIBELE DE FREITAS SANCHES DIAS ANALISTA DO MP ATIVO SABARÁ - COMARCA; SABARA-PJ-03PJ 4.473,58 0,00 0,00 2.307,33 0,00 0,00 6.780,91 984,18 662,53 0,00 1.646,71 5.134,20 352,00 0,00 31/12/2012
421 500900 CIBELLE SILVA PRADO ALVARENGA ANALISTA DO MP ATIVO ITANHANDU - COMARCA; ITANHANDU-PJ-UNPJ 4.473,58 0,00 0,00 2.307,33 0,00 0,00 6.780,91 745,89 504,81 0,00 1.250,70 5.530,21 352,00 0,00 31/12/2012
422 296400 CINTIA APARECIDA MOREIRA NAVES E RODRIGUES ANALISTA DO MP ATIVO CAMPO BELO - COMARCA; CAMPO BELO-PJ-04PJ 8.361,90 836,19 0,00 5.020,53 3.066,03 0,00 17.284,65 2.023,58 3.798,51 0,00 5.822,09 11.462,56 352,00 0,00 31/12/2012
423 407900 CINTIA NETO COMELLI ANALISTA DO MP ATIVO BELO HORIZONTE - COMARCA; CENTRAL DE APOIO TECNICO-SETOR CONTABIL 6.069,59 364,18 0,00 3.238,94 0,00 0,00 9.672,71 1.523,51 1.479,93 0,00 3.003,44 6.669,27 352,00 1.482,30 31/12/2012
424 304700 CINTIA QUEIROZ OFICIAL DO MP ATIVO BELO HORIZONTE - COMARCA; BH-17PJ PATRIMONIO PUBLICO 5.085,23 508,52 0,00 2.708,67 0,00 0,00 8.302,42 1.269,44 1.147,85 0,00 2.417,29 5.885,13 352,00 529,26 31/12/2012
425 286100 CIRO CANGUSSU CORDEIRO OFICIAL DO MP ATIVO IPATINGA - COMARCA; IPATINGA-PJ-09PJ 4.195,87 419,59 0,00 2.307,73 0,00 0,00 6.923,19 1.015,40 720,35 0,00 1.735,75 5.187,44 352,00 0,00 31/12/2012
426 412500 CLARICE GOMES MAROTTA ANALISTA DO MP ATIVO BELO HORIZONTE - COMARCA; ASSESS TECNICO-JUR JUNTO AS PROC. DE JUST 6.069,59 1.213,92 0,00 3.358,93 2.427,84 0,00 13.070,28 1.695,70 2.547,38 0,00 4.243,08 8.827,20 352,00 1.414,11 31/12/2012
427 308100 CLARISSA DUARTE MARTINS DIRETOR/ANALISTA ATIVO BELO HORIZONTE - COMARCA; SUPERINTENDENCIA DE RECURSOS HUMANOS 0,00 1.193,16 11.931,59 6.562,37 4.374,92 0,00 24.062,04 2.023,58 6.318,12 0,00 8.341,70 15.720,34 352,00 0,00 31/12/2012
428 497100 CLARISSA ROCHA GUIDI ANALISTA DO MP ATIVO BELO HORIZONTE - COMARCA; EXTINTA - JUIZO DE FAMILIA-02 PJ-02 VARA 4.924,85 0,00 0,00 2.957,13 0,00 0,00 7.881,98 1.083,46 863,61 0,00 1.947,07 5.934,91 352,00 0,00 31/12/2012
429 463700 CLAUDIA ADRIANA FERRAO DIAS ANALISTA DO MP ATIVO SETE LAGOAS - COMARCA; SETE LAGOAS-PJ-06PJ 4.063,61 0,00 0,00 4.063,61 0,00 0,00 8.127,22 966,79 630,85 0,00 1.597,64 6.529,58 352,00 661,77 31/12/2012
430 415400 CLAUDIA ALMEIDA DE VASCONCELLOS BARROS ASSESSOR/OFICIAL ATIVO BELO HORIZONTE - COMARCA; DIRET DE PESSOAL DO MINISTERIO PUBLICO - DPMP 0,00 427,45 7.124,13 5.656,93 2.517,19 0,00 15.725,70 1.506,75 2.723,49 0,00 4.230,24 11.495,46 352,00 0,00 31/12/2012
431 389600 CLAUDIA ALVES PERDOMO ASSESSOR ATIVO BELO HORIZONTE - COMARCA; PROCON-MG-GAB DO COORDENADOR DO PROCON-MG 0,00 0,00 7.124,13 3.562,06 2.374,71 0,00 13.060,90 861,56 2.787,28 0,00 3.648,84 9.412,06 352,00 0,00 31/12/2012
432 207000 CLAUDIA APARECIDA VILELA MACHADO ANALISTA DO MP ATIVO BELO HORIZONTE - COMARCA; CENTRAL DE APOIO TECNICO-SETOR CONTABIL 9.814,62 2.944,39 0,00 6.379,50 4.253,00 0,00 23.391,51 2.806,98 5.590,37 0,00 8.397,35 14.994,16 587,00 0,00 31/12/2012
433 365700 CLAUDIA BREGUEZ CUNHA ANALISTA DO MP ATIVO VARGINHA - COMARCA; VARGINHA-PJ-07PJ 7.124,13 712,41 0,00 4.389,55 0,00 0,00 12.226,09 1.724,04 2.288,87 0,00 4.012,91 8.213,18 352,00 0,00 31/12/2012
434 430500 CLAUDIA CECILIA SANTANA VENCESLAU ASSESSOR/OFICIAL ATIVO BELO HORIZONTE - COMARCA; DIRET DE DESENV DE RECURSOS HUMANOS-DDRH 0,00 427,45 7.124,13 3.775,79 0,00 0,00 11.327,37 833,64 2.538,80 0,00 3.372,44 7.954,93 352,00 588,32 31/12/2012
435 112400 CLAUDIA CRISTINA FIUZA DE AVELAR AGENTE DO MP ATIVO BELO HORIZONTE - COMARCA; SERVICO MEDICO-DEPTO PERIC MEDICA SAUDE OCUP 4.924,85 1.969,94 0,00 3.447,39 0,00 0,00 10.342,18 1.516,86 1.827,89 0,00 3.344,75 6.997,43 352,00 0,00 31/12/2012
436 149400 CLAUDIA DINIZ OFICIAL DO MP ATIVO BELO HORIZONTE - COMARCA; BH-09PJ AUDITORIA MILITAR-SECRETARIA 9.505,17 4.752,58 0,00 7.353,66 0,00 0,00 21.611,41 3.136,70 5.061,88 0,00 8.198,58 13.412,83 352,00 0,00 31/12/2012
437 480400 CLAUDIA GOULART DE SOUZA OFICIAL DO MP ATIVO PASSOS - COMARCA; PASSOS-PJ-06PJ 2.903,86 0,00 0,00 1.451,93 967,95 0,00 5.323,74 638,84 303,16 0,00 942,00 4.381,74 352,00 0,00 31/12/2012
438 519800 CLAUDIA HELENA CORREA DE ALMEIDA ANALISTA DO MP ATIVO BELO HORIZONTE - COMARCA; BH-12PJ JUIZO CRIMINAL-GAB 090PJ 4.332,50 0,00 0,00 2.166,25 0,00 0,00 6.498,75 714,87 448,29 0,00 1.163,16 5.335,59 352,00 0,00 31/12/2012
439 422100 CLAUDIA IACOMINI CABRAL ANALISTA DO MP ATIVO BELO HORIZONTE - COMARCA; CENT DE APOIO TEC-SETOR DEF,IDOSO E INFANC 5.598,22 2.239,29 0,00 3.918,75 2.612,50 0,00 14.368,76 1.724,26 3.007,79 0,00 4.732,05 9.636,71 352,00 0,00 31/12/2012
440 258200 CLAUDIA LAGE MICHALAROS ANALISTA DO MP ATIVO BELO HORIZONTE - COMARCA; CENTRAL DE APOIO TECN-SETOR DE MEIO AMBIENTE 8.915,18 4.457,59 0,00 6.897,18 0,00 0,00 20.269,95 2.942,00 4.998,87 0,00 7.940,87 12.329,08 352,00 0,00 31/12/2012
441 284600 CLAUDIA LENI DE ABREU OFICIAL DO MP ATIVO CONTAGEM - COMARCA; CONTAGEM-PJ-22PJ 4.195,87 1.258,76 0,00 2.937,11 1.818,21 0,00 10.209,95 1.200,02 1.622,94 0,00 2.822,96 7.386,99 352,00 0,00 31/12/2012
442 433600 CLAUDIA LUIZA SANTIAGO FELICIO ANALISTA DO MP ATIVO BELO HORIZONTE - COMARCA; CAO-SAUDE-TECNICO JURIDICO 5.598,22 335,89 0,00 5.934,11 0,00 0,00 11.868,22 1.305,50 1.265,09 0,00 2.570,59 9.297,63 822,00 0,00 31/12/2012
443 317000 CLAUDIA MACHADO ALVES OFICIAL DO MP ATIVO BELO HORIZONTE - COMARCA; SEC ESPECIAL DE PLANEJAMENTO ESTRATEGICO 4.195,87 419,59 0,00 2.519,19 1.538,49 0,00 8.673,14 1.015,40 965,60 0,00 1.981,00 6.692,14 352,00 0,00 31/12/2012
444 155300 CLAUDIA MACIEL MIRANDA OFICIAL DO MP ATIVO CONGONHAS - COMARCA; CONGONHAS-PJ-SECRETARIA 7.595,56 2.278,67 0,00 9.562,93 0,00 0,00 19.437,16 2.240,82 3.025,04 0,00 5.265,86 14.171,30 822,00 933,90 31/12/2012
445 242200 CLAUDIA MICHELLE DIAS MUNIZ BALEEIRO OFICIAL DO MP ATIVO MONTE AZUL - COMARCA; MONTE AZUL-PJ-SECRETARIA 5.421,69 1.626,51 0,00 3.635,21 2.349,40 0,00 13.032,81 1.550,60 2.363,98 0,00 3.914,58 9.118,23 3.802,68 294,77 31/12/2012
446 418400 CLAUDIA REGINA MARTINS BONIFACIO OFICIAL DO MP ATIVO CAPINÓPOLIS - COMARCA; CAPINOPOLIS-PJ-UNPJ 2.998,37 179,90 0,00 1.589,13 0,00 0,00 4.767,40 699,22 221,20 0,00 920,42 3.846,98 352,00 0,00 31/12/2012
447 240501 CLAUDIA RENATA SOARES ALVES ANALISTA DO MP ATIVO CONTAGEM - COMARCA; CONTAGEM-PJ-20PJ 5.421,69 1.084,34 0,00 3.253,01 0,00 0,00 9.759,04 1.073,49 1.149,76 0,00 2.223,25 7.535,79 352,00 0,00 31/12/2012
448 498300 CLAUDIA SOUTO FARIAS BRAUN OFICIAL DO MP ATIVO TEÓFILO OTONI - COMARCA; TEOFILO OTONI-PJ-02PJ 2.637,71 0,00 0,00 1.360,43 0,00 0,00 3.998,14 580,30 50,56 0,00 630,86 3.367,28 822,00 0,00 31/12/2012
449 206500 CLAUDIA VALERIA FONSECA ANDRADE ANALISTA DO MP ATIVO BELO HORIZONTE - COMARCA; BH-23PJ INF-FISC MED SOC FEC 9.814,62 3.925,85 0,00 6.379,49 4.580,16 0,00 24.700,12 3.130,86 6.345,85 0,00 9.476,71 15.223,41 352,00 1.962,92 31/12/2012
450 277500 CLAUDIO ANTONIO BORGES ALVARES ASSESSOR/OFICIAL ATIVO BELO HORIZONTE - COMARCA; COORD REG BACIAS RIO VELHAS E PARAOPEBA 0,00 559,82 5.598,22 3.079,02 0,00 0,00 9.237,06 1.270,68 1.490,37 0,00 2.761,05 6.476,01 352,00 0,00 31/12/2012
451 444800 CLAUDIO ARESIO DO CARMO ANALISTA DO MP ATIVO SETE LAGOAS - COMARCA; SETE LAGOAS-PJ-09PJ 5.598,22 1.119,64 0,00 3.253,01 2.239,29 0,00 12.210,16 1.634,91 2.587,14 0,00 4.222,05 7.988,11 352,00 1.639,03 31/12/2012
452 353500 CLAUDIO HENRIQUE PEDRO DA ROCHA OFICIAL DO MP ATIVO BELO HORIZONTE - COMARCA; DIVISAO DE ATENDIMENTO E CONSULTA JURIDICA 4.332,50 433,25 0,00 2.595,36 1.588,58 0,00 8.949,69 1.113,54 987,02 0,00 2.100,56 6.849,13 352,00 887,34 31/12/2012
453 265800 CLAUDIO KUPIDLOWSKY FERNANDES OFICIAL DO MP ATIVO BELO HORIZONTE - COMARCA; EXTINTA - SECRETARIA ADMINISTRATIVA 5.250,75 1.050,15 0,00 3.249,76 2.100,30 0,00 11.650,96 1.386,20 1.095,72 0,00 2.481,92 9.169,04 587,00 0,00 31/12/2012
454 193600 CLAUDIO LEITE FONTES OFICIAL DO MP ATIVO ITUIUTABA - COMARCA; ITUIUTABA-PJ-02PJ 4.473,58 1.342,07 0,00 2.816,12 0,00 0,00 8.631,77 1.319,79 1.083,71 0,00 2.403,50 6.228,27 587,00 550,20 31/12/2012
455 329400 CLAUDIO MARCIO BERNARDES OFICIAL DO MP ATIVO ITAÚNA - COMARCA; ITAUNA-PJ-04PJ 5.085,23 2.034,09 0,00 4.116,84 2.373,11 0,00 13.609,27 1.566,26 2.590,40 0,00 4.156,66 9.452,61 388,00 0,00 31/12/2012
456 270200 CLAUDIO RABELO ALVES OFICIAL DO MP ATIVO FORMIGA - COMARCA; FORMIGA-PJ-SECRETARIA 5.598,22 1.119,64 0,00 3.666,72 2.239,29 0,00 12.623,87 1.477,92 1.986,91 0,00 3.464,83 9.159,04 352,00 0,00 31/12/2012
457 264700 CLAUDIO ROBERTO KFURI DE ARAUJO ANALISTA DO MP ATIVO BELO HORIZONTE - COMARCA; CENTRAL DE APOIO TECNICO-SETOR DE INFORMATICA 8.634,11 863,41 0,00 4.898,47 3.165,84 0,00 17.561,83 2.134,23 3.887,07 0,00 6.021,30 11.540,53 587,00 407,05 31/12/2012
458 188600 CLAUDIO SALES OFICIAL DO MP ATIVO NEPOMUCENO - COMARCA; NEPOMUCENO-PJ-SECRETARIA 7.124,13 1.424,83 0,00 4.238,62 2.849,65 0,00 15.637,23 2.053,13 2.875,44 0,00 4.928,57 10.708,66 352,00 2.350,26 31/12/2012
459 160700 CLAUDIO VICENTE HESS ASSESSOR ATIVO BELO HORIZONTE - COMARCA; EXTINTA - DIRETORIA DE COMPRAS E LICITAÇÕES 0,00 2.352,85 7.842,84 5.688,31 0,00 0,00 15.884,00 861,56 3.951,91 0,00 4.813,47 11.070,53 352,00 0,00 31/12/2012
460 312900 CLAUDIO VIEIRA FIRPE ASSESSOR/OFICIAL ATIVO BELO HORIZONTE - COMARCA; DIRETORIA DE RELACOES PUBLICAS E CERIMONIAL 0,00 559,82 5.598,22 3.079,02 2.052,68 0,00 11.289,74 1.082,60 2.106,58 0,00 3.189,18 8.100,56 352,00 0,00 31/12/2012
461 459200 CLEIA ZILLE PEREIRA ANALISTA DO MP ATIVO BELO HORIZONTE - COMARCA; ASSESS TECNICO-JUR JUNTO AS PROC. DE JUST 5.421,69 0,00 0,00 2.959,26 0,00 0,00 8.380,95 1.192,78 1.106,81 0,00 2.299,59 6.081,36 822,00 0,00 31/12/2012
462 461300 CLEIDE ALVES DA SILVA OFICIAL DO MP ATIVO BOA ESPERANÇA - COMARCA; BOA ESPERANCA-PJ-01PJ 3.519,31 0,00 0,00 1.598,40 0,00 0,00 5.117,71 845,20 269,20 0,00 1.114,40 4.003,31 352,00 967,50 31/12/2012
463 481800 CLEIDE CARDOSO DA SILVA ANALISTA DO MP ATIVO GOVERNADOR VALADARES - COMARCA; GOVERNADOR VALADARES-PJ-15PJ 4.924,85 0,00 0,00 2.462,42 0,00 0,00 7.387,27 1.083,46 863,61 0,00 1.947,07 5.440,20 1.057,00 0,00 31/12/2012
464 347600 CLEIDIMAR DE OLIVEIRA SILVA OFICIAL DO MP ATIVO JOÃO PINHEIRO - COMARCA; JOAO PINHEIRO-PJ-02PJ 3.691,17 738,23 0,00 2.214,70 1.476,47 0,00 8.120,57 974,46 697,11 0,00 1.671,57 6.449,00 352,00 0,00 31/12/2012
465 396500 CLEIDISON BATISTA DE ANDRADE OFICIAL DO MP ATIVO RESPLENDOR - COMARCA; RESPLENDOR-PJ-UNPJ 3.300,91 198,05 0,00 1.749,48 0,00 0,00 5.248,44 769,78 306,82 0,00 1.076,60 4.171,84 352,00 0,00 31/12/2012
466 298100 CLEONICE AUGUSTA BARROS DE OLIVEIRA ANALISTA DO MP ATIVO JUIZ DE FORA - COMARCA; JUIZ DE FORA-PJ-18PJ 8.361,90 836,19 0,00 4.454,01 0,00 0,00 13.652,10 2.087,40 2.884,36 0,00 4.971,76 8.680,34 352,00 870,21 31/12/2012
467 60200 CLERES DE ALMEIDA AGENTE DO MP ATIVO BELO HORIZONTE - COMARCA; EXTINTA - DIVISAO DE TRANSPORTES 3.935,44 2.754,80 0,00 3.345,12 2.230,08 0,00 12.265,44 1.635,88 2.428,34 0,00 4.064,22 8.201,22 352,00 1.491,10 31/12/2012
468 114300 CLERES PEREIRA DA SILVA JUNIOR ASSESSOR ATIVO BELO HORIZONTE - COMARCA; GAECO - SECRETARIA 0,00 1.407,72 3.519,31 2.287,55 1.642,34 0,00 8.856,92 900,27 1.206,00 0,00 2.106,27 6.750,65 352,00 703,86 31/12/2012
469 264100 CLETO HENRIQUE ANDRADE SILVA ANALISTA DO MP ATIVO BELO HORIZONTE - COMARCA; DIRETORIA DE SISTEMAS DE INFORMACAO 8.634,11 863,41 0,00 4.898,47 0,00 0,00 14.395,99 2.089,46 2.824,29 0,00 4.913,75 9.482,24 587,00 0,00 31/12/2012
470 334400 CLEUBA DE OLIVEIRA BARCELOS GONCALVES OFICIAL DO MP ATIVO DIVINÓPOLIS - COMARCA; DIVINOPOLIS-PJ-07PJ 5.085,23 508,52 0,00 3.053,19 0,00 0,00 8.646,94 951,16 877,58 0,00 1.828,74 6.818,20 352,00 0,00 31/12/2012
471 347500 CLEUSA CORDEIRO DA MATA PIMENTA OFICIAL DO MP ATIVO CAMPO BELO - COMARCA; CAMPO BELO-PJ-04PJ 4.619,20 2.309,60 0,00 3.355,18 2.309,60 0,00 12.593,58 1.572,39 2.241,13 0,00 3.813,52 8.780,06 352,00 655,29 31/12/2012
472 510200 CLEZIO SALES SILVA OFICIAL DO MP ATIVO BRASÓPOLIS - COMARCA; BRASOPOLIS-PJ-UNPJ 2.637,71 0,00 0,00 1.360,43 0,00 0,00 3.998,14 439,80 77,18 0,00 516,98 3.481,16 352,00 0,00 31/12/2012
473 323000 CLOTILDE DE PADUA VIEIRA OFICIAL DO MP ATIVO BELO HORIZONTE - COMARCA; BH-15PJ M AMB 16PJ HAB URB-SECRETARIA 3.574,80 357,48 0,00 1.935,62 0,00 0,00 5.867,90 878,53 433,51 0,00 1.312,04 4.555,86 352,00 183,12 31/12/2012
474 285200 CLOVIS ANDRE LUDTKE OFICIAL DO MP ATIVO BELO HORIZONTE - COMARCA; DIRETORIA DE MANUTENCAO PREDIAL 5.085,23 508,52 0,00 2.796,87 1.864,58 0,00 10.255,20 1.230,62 1.703,79 0,00 2.934,41 7.320,79 352,00 0,00 31/12/2012
475 381100 CONCEICAO APARECIDA TEIXEIRA ANALISTA DO MP ATIVO BELO HORIZONTE - COMARCA; BH-23PJ INFRACIONAL-ASS JURIDICA 5.598,22 335,89 0,00 2.967,05 0,00 0,00 8.901,16 1.305,50 1.357,63 0,00 2.663,13 6.238,03 352,00 0,00 31/12/2012
476 249900 CONSTANTINO CEZAR GOMES MOTA OFICIAL DO MP ATIVO MONTES CLAROS - COMARCA; COORD REG BACIA RIOS VERDE GRANDE E PARDO 4.195,87 839,17 0,00 2.727,31 1.678,35 0,00 9.440,70 1.107,70 1.379,09 0,00 2.486,79 6.953,91 352,00 0,00 31/12/2012
477 481000 CRISHMA ANALIA LOMBELLO ANALISTA DO MP ATIVO JUIZ DE FORA - COMARCA; JUIZ DE FORA-PJ-13PJ 4.924,85 0,00 0,00 2.462,42 0,00 0,00 7.387,27 1.083,46 774,08 0,00 1.857,54 5.529,73 352,00 0,00 31/12/2012
478 187500 CRISLEY PATRICK TOSTES OFICIAL DO MP ATIVO JUIZ DE FORA - COMARCA; JUIZ DE FORA-PJ-21PJ 7.356,10 1.471,22 0,00 4.413,66 2.942,44 0,00 16.183,42 1.942,02 3.583,04 0,00 5.525,06 10.658,36 352,00 0,00 31/12/2012
479 523900 CRISTHYANE BAZOLI COSTA GUEDES OFICIAL DO MP ATIVO BELO HORIZONTE - COMARCA; TRIBUNAL DO JURI-07 PJ-01 TRIBUNAL 2.554,55 0,00 0,00 1.277,27 851,52 0,00 4.683,34 538,58 181,69 0,00 720,27 3.963,07 352,00 0,00 31/12/2012
480 187000 CRISTIAN DAYVSON EVANGELISTA OFICIAL DO MP ATIVO JUIZ DE FORA - COMARCA; JUIZ DE FORA-PJ-09PJ 7.124,13 1.424,83 0,00 4.161,77 0,00 0,00 12.710,73 1.737,52 1.872,19 0,00 3.609,71 9.101,02 352,00 3.084,78 31/12/2012
481 319800 CRISTIANA GONCALVES DOS SANTOS OFICIAL DO MP ATIVO BELO HORIZONTE - COMARCA; BH-14PJ DEFESA CONSUMIDOR-SECRETARIA 4.619,20 461,92 0,00 2.460,47 0,00 0,00 7.541,59 1.153,08 900,90 0,00 2.053,98 5.487,61 352,00 480,54 31/12/2012
482 520600 CRISTIANA JANAINA BARBOZA JUVENCIO DOS SANTOS ANALISTA DO MP ATIVO BELO HORIZONTE - COMARCA; EXTINTA - JUIZO DE FAMILIA-02 PJ-02 VARA 4.769,54 0,00 0,00 2.384,77 0,00 0,00 7.154,31 1.049,30 788,91 0,00 1.838,21 5.316,10 352,00 0,00 31/12/2012
483 195600 CRISTIANA SOARES HALABI OFICIAL DO MP ATIVO UBERABA - COMARCA; UBERABA-PJ-11PJ 5.878,19 1.175,64 0,00 3.526,91 0,00 0,00 10.580,74 1.551,84 1.905,75 0,00 3.457,59 7.123,15 352,00 0,00 31/12/2012
484 218900 CRISTIANE ALVES BELLES OFICIAL DO MP ATIVO JUIZ DE FORA - COMARCA; JUIZ DE FORA-PJ-10PJ 4.195,87 839,17 0,00 2.517,52 0,00 0,00 7.552,56 1.107,70 660,23 0,00 1.767,93 5.784,63 352,00 0,00 31/12/2012
485 263600 CRISTIANE CARVALHO COUTINHO OFICIAL DO MP ATIVO BELO HORIZONTE - COMARCA; BH-23PJ INFRACIONAL-SEC EXP 5.085,23 1.017,05 0,00 3.051,14 2.034,09 0,00 11.187,51 1.342,50 1.906,79 0,00 3.249,29 7.938,22 587,00 0,00 31/12/2012
486 441700 CRISTIANE CORRADO DE ANDRADE ANALISTA DO MP ATIVO BELO HORIZONTE - COMARCA; DIRETORIA DE SISTEMAS DE INFORMACAO 5.598,22 335,89 0,00 3.223,26 1.978,04 0,00 11.135,41 1.305,50 1.901,60 0,00 3.207,10 7.928,31 587,00 0,00 31/12/2012
487 375100 CRISTIANE DAS DORES ERCIO DE LIMA OFICIAL DO MP ATIVO GOVERNADOR VALADARES - COMARCA; GOVERNADOR VALADARES-PJ-15PJ 3.574,80 214,49 0,00 1.894,64 0,00 0,00 5.683,93 833,64 391,93 0,00 1.225,57 4.458,36 352,00 0,00 31/12/2012
488 178800 CRISTIANE DE LIMA HOSKEN OFICIAL DO MP ATIVO BELO HORIZONTE - COMARCA; COORD ESTADUAL DE DEFESA DA EDUCACAO 7.356,10 1.471,22 0,00 4.274,48 2.942,44 0,00 16.044,24 2.053,19 3.348,37 0,00 5.401,56 10.642,68 352,00 1.289,04 31/12/2012
489 494000 CRISTIANE DE MELO MARQUEZ OLIVEIRA ANALISTA DO MP ATIVO UBERLÂNDIA - COMARCA; UBERLANDIA-PJ-06PJ 4.924,85 0,00 0,00 2.758,60 1.641,62 0,00 9.325,07 1.083,46 1.315,05 0,00 2.398,51 6.926,56 352,00 0,00 31/12/2012
490 266100 CRISTIANE DE OLIVEIRA CASTRO OFICIAL DO MP ATIVO BELO HORIZONTE - COMARCA; PROCON-MG-SECRETARIA DE FISCALIZACOES 5.421,69 1.084,34 0,00 3.355,58 0,00 0,00 9.861,61 1.431,32 1.637,59 0,00 3.068,91 6.792,70 587,00 0,00 31/12/2012
491 329500 CRISTIANE DOS REIS SILVA OFICIAL DO MP ATIVO ARAXÁ - COMARCA; ARAXA-PJ-04PJ 3.811,39 381,14 0,00 2.096,26 1.397,51 0,00 7.686,30 922,36 738,62 0,00 1.660,98 6.025,32 587,00 0,00 31/12/2012
492 301600 CRISTIANE GODINHO PIRES ANALISTA DO MP ATIVO BETIM - COMARCA; BETIM-PJ-07PJ 8.098,20 809,82 0,00 4.313,56 2.969,34 0,00 16.190,92 2.021,56 3.561,19 0,00 5.582,75 10.608,17 352,00 842,70 31/12/2012
493 406100 CRISTIANE GONCALVES CHAVES ANALISTA DO MP ATIVO BELO HORIZONTE - COMARCA; ASSESS TECNICO-JUR JUNTO AS PROC. DE JUST 6.069,59 1.213,92 0,00 4.204,49 2.427,84 0,00 13.915,84 1.602,38 2.685,82 0,00 4.288,20 9.627,64 352,00 0,00 31/12/2012
494 487600 CRISTIANE LOPES DE OLIVEIRA OFICIAL DO MP ATIVO IBIRACI - COMARCA; IBIRACI-PJ-SECRETARIA 2.903,86 0,00 0,00 2.903,86 0,00 0,00 5.807,72 638,84 111,34 0,00 750,18 5.057,54 352,00 0,00 31/12/2012
495 502500 CRISTIANE MACIEL DE OLIVEIRA GOMES ANALISTA DO MP ATIVO JUIZ DE FORA - COMARCA; JUIZ DE FORA-PJ-04PJ 4.924,85 0,00 0,00 2.540,08 1.641,62 0,00 9.106,55 1.083,46 1.315,05 0,00 2.398,51 6.708,04 352,00 0,00 31/12/2012
496 285500 CRISTIANE MAGALHAES LOURENCO ANALISTA DO MP ATIVO BELO HORIZONTE - COMARCA; CENTRAL DE APOIO TECNICO-SETOR CONTABIL 8.361,90 836,19 0,00 5.020,53 3.066,03 0,00 17.284,65 2.023,58 3.613,42 0,00 5.637,00 11.647,65 352,00 0,00 31/12/2012
497 346600 CRISTIANE NOGUEIRA ANDRADE ANALISTA DO MP ATIVO BELO HORIZONTE - COMARCA; CENTRAL DE APOIO TECNICO-SETOR CONTABIL 7.356,10 735,61 0,00 4.045,85 0,00 0,00 12.137,56 1.780,18 2.413,79 0,00 4.193,97 7.943,59 822,00 0,00 31/12/2012
498 234000 CRISTIANE OLIVEIRA TOSTES OFICIAL DO MP ATIVO JUIZ DE FORA - COMARCA; JUIZ DE FORA-PJ-19PJ 5.878,19 1.175,64 0,00 3.585,52 2.351,28 0,00 12.990,63 1.551,84 2.552,35 0,00 4.104,19 8.886,44 352,00 0,00 31/12/2012
499 445800 CRISTIANE ORZIL COSTA OFICIAL DO MP ATIVO SANTA LUZIA - COMARCA; SANTA LUZIA-PJ-05PJ 2.903,86 174,23 0,00 2.903,86 0,00 0,00 5.981,95 677,18 171,20 0,00 848,38 5.133,57 352,00 174,23 31/12/2012
500 215000 CRISTIANE RODRIGUES DE CARVALHO ASSESSOR ATIVO BELO HORIZONTE - COMARCA; BH-14PJ DEFESA CONSUMIDOR-SECRETARIA 0,00 703,86 3.519,31 2.111,58 1.407,72 0,00 7.742,47 861,56 940,59 0,00 1.802,15 5.940,32 352,00 0,00 31/12/2012
501 257700 CRISTIANE RODRIGUES PAES NUNES ANALISTA DO MP ATIVO BELO HORIZONTE - COMARCA; BH-22PJ PES COM DEF E IDOSOS-ORIENTACAO PSIC 8.361,90 836,19 0,00 4.599,04 3.066,03 0,00 16.863,16 2.171,01 4.126,54 0,00 6.297,55 10.565,61 352,00 1.340,28 31/12/2012
502 510800 CRISTIANE SANTOS FERNANDES ORNELES ANALISTA DO MP ATIVO BELO HORIZONTE - COMARCA; COORD ESTADUAL DAS PJS DE HAB. E URBANISMO 4.063,61 0,00 0,00 3.935,44 0,00 0,00 7.999,05 920,32 472,66 0,00 1.392,98 6.606,07 352,00 410,14 31/12/2012
503 477400 CRISTIANO SOARES ELEUTERIO ANALISTA DO MP ATIVO BELO HORIZONTE - COMARCA; EXTINTA - COORD DEFESA DO DIREITO DE FAMILIA 4.473,58 0,00 0,00 2.236,79 0,00 0,00 6.710,37 984,18 662,53 0,00 1.646,71 5.063,66 352,00 0,00 31/12/2012
504 449400 CRISTIANO TEIXEIRA RODRIGUES LANA ANALISTA DO MP ATIVO BELO HORIZONTE - COMARCA; ASSESS TECNICO-JUR JUNTO AS PROC. DE JUST 5.421,69 0,00 0,00 2.710,84 0,00 0,00 8.132,53 1.192,78 1.106,81 0,00 2.299,59 5.832,94 352,00 0,00 31/12/2012
505 239400 CRISTINA DE FATIMA CRUZ E SILVA OFICIAL DO MP ATIVO MONTE SANTO DE MINAS - COMARCA; MONTE SANTO DE MINAS-PJ-SECRETARIA 5.085,23 1.017,05 0,00 2.954,91 0,00 0,00 9.057,19 1.503,55 1.648,91 0,00 3.152,46 5.904,73 352,00 1.656,57 31/12/2012
506 356800 CRISTINA DE PINHO BARROSO OFICIAL DO MP ATIVO SABINÓPOLIS - COMARCA; SABINOPOLIS-PJ-UNPJ 3.691,17 738,23 0,00 2.384,37 0,00 0,00 6.813,77 974,46 644,83 0,00 1.619,29 5.194,48 846,08 0,00 31/12/2012
507 449100 CRISTINA KISTEMANN CHIODI ASSESSOR ATIVO BELO HORIZONTE - COMARCA; CAO-MEIO AMBIENTE-SECRETARIA 0,00 0,00 7.124,13 3.562,06 0,00 0,00 10.686,19 861,56 2.134,23 0,00 2.995,79 7.690,40 352,00 0,00 31/12/2012
508 348201 CRISTINA MARIA DA SILVA ANALISTA DO MP ATIVO JOÃO PINHEIRO - COMARCA; JOAO PINHEIRO-PJ-01PJ 5.250,75 0,00 0,00 2.625,37 0,00 0,00 7.876,12 1.155,16 1.023,13 0,00 2.178,29 5.697,83 352,00 0,00 31/12/2012
509 434900 CRISTINA MELO DE MADUREIRA ANALISTA DO MP ATIVO BELO HORIZONTE - COMARCA; CAO-CRIMINAL-SECRETARIA 5.598,22 335,89 0,00 3.223,26 1.978,04 0,00 11.135,41 1.305,50 1.901,60 0,00 3.207,10 7.928,31 587,00 0,00 31/12/2012
510 117100 CRISTINA PEDROSA GARABINI COORDENADOR/ANALISTA ATIVO BELO HORIZONTE - COMARCA; DIRET DE INFORMACAO E CONHECIMENTO-DINC/CEAF 15.658,01 10.038,31 0,00 12.058,81 0,00 0,00 37.755,13 5.167,14 10.111,53 1.578,70 16.857,37 20.897,76 352,00 0,00 31/12/2012
511 307700 CRISTINA TEIXEIRA MARQUES OFICIAL DO MP ATIVO BELO HORIZONTE - COMARCA; BH-14PJ DEFESA CONSUMIDOR-SECRETARIA 4.332,50 433,25 0,00 2.458,02 1.588,58 0,00 8.812,35 1.048,46 1.130,58 0,00 2.179,04 6.633,31 352,00 0,00 31/12/2012
512 265300 CRISTOVAO SANCHES DE MEDEIROS ANALISTA DO MP ATIVO BELO HORIZONTE - COMARCA; BH-02PJ FAMILIA-SECRETARIA 7.595,56 759,56 0,00 4.177,56 0,00 0,00 12.532,68 1.838,12 2.357,63 0,00 4.195,75 8.336,93 352,00 0,00 31/12/2012
513 349800 CROZEIR LUIZ DA SILVA OFICIAL DO MP ATIVO UNAÍ - COMARCA; UNAI-PJ-SECRETARIA 3.691,17 369,12 0,00 2.030,14 1.353,43 0,00 7.443,86 893,26 667,66 0,00 1.560,92 5.882,94 1.935,36 0,00 31/12/2012
514 490500 CYNTHIA CRISTINA DE SOUZA OLIVEIRA VALENTE ANALISTA DO MP ATIVO BELO HORIZONTE - COMARCA; BH-09PJ AUDITORIA MILITAR 4.473,58 0,00 0,00 4.473,58 0,00 0,00 8.947,16 984,18 662,53 0,00 1.646,71 7.300,45 822,00 0,00 31/12/2012
515 389800 CYNTHIA GARIGLIO DOS SANTOS OFICIAL DO MP ATIVO PERDIZES - COMARCA; PERDIZES-PJ-SECRETARIA 3.300,91 198,05 0,00 1.749,48 0,00 0,00 5.248,44 769,78 205,86 0,00 975,64 4.272,80 587,00 0,00 31/12/2012
516 335101 CYNTHIA GONTIJO D ASSUNCAO ANALISTA DO MP ATIVO BELO HORIZONTE - COMARCA; CAO-CRIANCAS E ADOLESCENTES 4.924,85 0,00 0,00 2.462,42 0,00 0,00 7.387,27 1.083,46 863,61 0,00 1.947,07 5.440,20 352,00 0,00 31/12/2012
517 154000 CYNTHIA LOPES DOS SANTOS LAGES ASSESSOR ATIVO BELO HORIZONTE - COMARCA; PROCURADOR-GERAL DE JUSTICA- GABINETE 0,00 3.682,19 9.205,45 6.443,82 4.295,88 0,00 23.627,34 2.835,28 5.850,22 0,00 8.685,50 14.941,84 352,00 0,00 31/12/2012
518 269700 CYNTIA ROCHA CAVALCANTI OFICIAL DO MP ATIVO UBERLÂNDIA - COMARCA; UBERLANDIA-PJ-06PJ 5.421,69 542,17 0,00 3.075,94 1.987,95 0,00 11.027,75 1.312,04 1.918,89 0,00 3.230,93 7.796,82 352,00 0,00 31/12/2012
519 278000 DAIRTON LOPES MARTINS FILHO COORDENADOR/ANALISTA ATIVO BELO HORIZONTE - COMARCA; DIRETORIA DE SISTEMAS DE INFORMACAO 2.763,62 1.896,00 0,00 4.454,01 2.989,92 0,00 12.103,55 1.149,70 3.924,20 0,00 5.073,90 7.029,65 352,00 4.542,75 31/12/2012
520 392700 DALIANA CHAVES SILVA OFICIAL DO MP ATIVO ITAÚNA - COMARCA; ITAUNA-PJ-SECRETARIA 3.935,44 236,13 0,00 1.894,64 1.390,52 0,00 7.456,73 1.057,91 819,47 0,00 1.877,38 5.579,35 504,91 1.668,01 31/12/2012
521 476700 DALTON DAUD ANALISTA DO MP ATIVO ARAGUARI - COMARCA; ARAGUARI-PJ-05PJ 4.924,85 0,00 0,00 2.462,42 1.641,62 0,00 9.028,89 1.083,46 1.131,64 0,00 2.215,10 6.813,79 352,00 0,00 31/12/2012
522 121900 DALVA MARIA DE LIMA ANALISTA DO MP ATIVO BELO HORIZONTE - COMARCA; EXTINTA-TUTELA DAS FUNDACOES-21 PJ- GABINETE 15.658,01 14.092,21 0,00 12.058,81 0,00 2.652,94 44.461,97 5.305,88 11.717,59 5.632,60 22.656,07 21.805,90 352,00 2.652,94 31/12/2012
523 426900 DANIEL ALVES DA SILVA OFICIAL DO MP ATIVO BELO HORIZONTE - COMARCA; EXTINTA - PROTOCOLO DA PGJ 2.998,37 179,90 0,00 1.589,13 1.059,42 0,00 5.826,82 524,41 356,57 0,00 880,98 4.945,84 587,00 0,00 31/12/2012
524 122000 DANIEL ANTONIO VIEIRA OFICIAL DO MP ATIVO ENTRE-RIOS DE MINAS - COMARCA; ENTRE RIOS DE MINAS-PJ-SECRETARIA 6.069,59 3.034,80 0,00 9.104,39 0,00 0,00 18.208,78 2.002,96 2.539,30 0,00 4.542,26 13.666,52 352,00 0,00 31/12/2012
525 272401 DANIEL AUGUSTO DOS REIS ANALISTA DO MP ATIVO BELO HORIZONTE - COMARCA; BH-22PJ PES COM DEF E IDOSOS-ASS JURIDICA 6.069,59 364,18 0,00 3.466,71 0,00 0,00 9.900,48 1.415,42 1.602,23 0,00 3.017,65 6.882,83 354,41 0,22 31/12/2012
526 411000 DANIEL FERREIRA DA SILVA ANALISTA DO MP ATIVO GOVERNADOR VALADARES - COMARCA; GOVERNADOR VALADARES-PJ-15PJ 6.069,59 1.213,92 0,00 3.638,84 0,00 0,00 10.922,35 1.699,85 1.787,18 0,00 3.487,03 7.435,32 3.802,68 1.746,58 31/12/2012
527 309000 DANIEL GOMES DOS SANTOS ANALISTA DO MP ATIVO POÇOS DE CALDAS - COMARCA; POCOS DE CALDAS-PJ-03PJ 6.471,28 647,13 0,00 3.885,40 0,00 0,00 11.003,81 1.566,06 1.937,35 0,00 3.503,41 7.500,40 352,00 0,00 31/12/2012
528 453000 DANIEL GONCALVES PEREIRA ANALISTA DO MP ATIVO UNAÍ - COMARCA; UNAI-PJ-SECRETARIA 5.421,69 0,00 0,00 2.959,26 1.807,23 0,00 10.188,18 1.356,35 1.967,75 0,00 3.324,10 6.864,08 352,00 1.487,04 31/12/2012
529 495500 DANIEL GUIMARAES CABRAL OFICIAL DO MP ATIVO LAGOA DA PRATA - COMARCA; LAGOA DA PRATA-PJ-02PJ 2.637,71 0,00 0,00 1.360,43 0,00 0,00 3.998,14 580,30 101,05 0,00 681,35 3.316,79 352,00 0,00 31/12/2012
530 442900 DANIEL GUIMARAES GONCALVES ANALISTA DO MP ATIVO UBERLÂNDIA - COMARCA; UBERLANDIA-PJ-03PJ 5.598,22 335,89 0,00 3.036,14 1.978,04 0,00 10.948,29 1.336,38 1.855,81 0,00 3.192,19 7.756,10 352,00 467,81 31/12/2012
531 491200 DANIEL HENRIQUE SOUTO COSTA ANALISTA DO MP ATIVO CORAÇÃO DE JESUS - COMARCA; CORACAO DE JESUS-PJ-UNPJ 4.924,85 0,00 0,00 2.540,08 0,00 0,00 7.464,93 1.083,46 863,61 0,00 1.947,07 5.517,86 352,00 0,00 31/12/2012
532 464600 DANIEL PIACENTINI STIVANIN ANALISTA DO MP ATIVO ANDRADAS - COMARCA; ANDRADAS-PJ-02PJ 4.924,85 0,00 0,00 2.236,79 0,00 0,00 7.161,64 1.159,57 758,47 0,00 1.918,04 5.243,60 352,00 1.143,22 31/12/2012
533 417000 DANIEL QUEIROZ FERREIRA ANALISTA DO MP ATIVO AREADO - COMARCA; AREADO-PJ-UNPJ 6.069,59 364,18 0,00 3.238,94 0,00 0,00 9.672,71 1.472,21 1.479,93 0,00 2.952,14 6.720,57 352,00 1.015,95 31/12/2012
534 396700 DANIEL SILVA CARNEVALLI COORDENADOR/ANALISTA ATIVO BELO HORIZONTE - COMARCA; DIRETORIA DE REDES E BANCOS DE DADOS 0,00 485,89 8.098,20 4.292,04 2.861,36 0,00 15.737,49 1.415,42 3.571,77 0,00 4.987,19 10.750,30 352,00 0,00 31/12/2012
535 489300 DANIEL TABOZA ROCHA ANALISTA DO MP ATIVO IPATINGA - COMARCA; IPATINGA-PJ-08PJ 4.924,85 0,00 0,00 2.758,60 0,00 0,00 7.683,45 1.083,46 863,61 0,00 1.947,07 5.736,38 2.061,17 156,67 31/12/2012
536 414100 DANIEL TARDELI VALADAO ANALISTA DO MP ATIVO TRÊS CORACOES - COMARCA; TRES CORACOES-PJ-02PJ 6.069,59 364,18 0,00 2.967,05 0,00 0,00 9.400,82 1.477,71 1.479,93 0,00 2.957,64 6.443,18 352,00 1.065,92 31/12/2012
537 446600 DANIEL VIEIRA BUENO OFICIAL DO MP ATIVO RIO PIRACICABA - COMARCA; RIO PIRACICABA-PJ-UNPJ 3.196,81 191,81 0,00 3.196,81 0,00 0,00 6.585,43 745,50 251,75 0,00 997,25 5.588,18 352,00 191,81 31/12/2012
538 253200 DANIELA BATISTA LIMA BARBOSA ASSESSOR ATIVO BELO HORIZONTE - COMARCA; CENTRAL DE APOIO TECN-SETOR DE MEIO AMBIENTE 0,00 351,93 3.519,31 1.935,62 0,00 0,00 5.806,86 856,62 420,17 0,00 1.276,79 4.530,07 352,00 0,00 31/12/2012
539 505800 DANIELA BORGES DE MATTOS RESENDE ANALISTA DO MP ATIVO JUIZ DE FORA - COMARCA; JUIZ DE FORA-PJ-20PJ 4.473,58 0,00 0,00 2.307,33 0,00 0,00 6.780,91 984,18 662,53 0,00 1.646,71 5.134,20 352,00 0,00 31/12/2012
540 478000 DANIELA CARVALHO SOARES ANALISTA DO MP ATIVO SÃO JOÃO DEL REI - COMARCA; SAO JOAO DEL REI-PJ-06PJ 4.924,85 0,00 0,00 2.462,42 0,00 0,00 7.387,27 1.083,46 863,61 0,00 1.947,07 5.440,20 352,00 0,00 31/12/2012
541 518900 DANIELA CERUTTI AGUIAR ANALISTA DO MP ATIVO BELO HORIZONTE - COMARCA; ASSESS TECNICO-JUR JUNTO AS PROC. DE JUST 4.332,50 0,00 0,00 2.166,25 0,00 0,00 6.498,75 953,16 606,01 0,00 1.559,17 4.939,58 352,00 0,00 31/12/2012
542 275900 DANIELA CHAGAS SODRE ANALISTA DO MP ATIVO BELO HORIZONTE - COMARCA; CENTRAL DE APOIO TECNICO-SETOR CONTABIL 8.361,90 836,19 0,00 5.020,53 3.066,03 0,00 17.284,65 2.023,58 3.705,97 0,00 5.729,55 11.555,10 587,00 0,00 31/12/2012
543 234301 DANIELA CRUZ SOARES ANALISTA DO MP ATIVO BELO HORIZONTE - COMARCA; CAO-ORDEM ECONOMICA E TRIBUTARIA-SECRETARIA 8.634,11 1.726,82 0,00 5.761,88 0,00 0,00 16.122,81 2.279,40 3.524,57 0,00 5.803,97 10.318,84 352,00 0,00 31/12/2012
544 301000 DANIELA DE ALMEIDA E OLIVEIRA ANALISTA DO MP ATIVO BELO HORIZONTE - COMARCA; DIRETORIA DE REDES E BANCOS DE DADOS 8.361,90 836,19 0,00 5.020,53 0,00 0,00 14.218,62 2.023,58 2.955,35 0,00 4.978,93 9.239,69 352,00 0,00 31/12/2012
545 296000 DANIELA DE AZEVEDO SILVA ANALISTA DO MP ATIVO ITAJUBA - COMARCA; ITAJUBA-PJ-03PJ 7.356,10 1.471,22 0,00 4.274,48 0,00 0,00 13.101,80 2.003,26 2.705,74 0,00 4.709,00 8.392,80 463,34 845,29 31/12/2012
546 453500 DANIELA DE CASTRO SOUSA BARBOSA ANALISTA DO MP ATIVO BELO HORIZONTE - COMARCA; BH-08PJ JUIZADO ESPECIAL-SECRETARIA 5.421,69 0,00 0,00 2.959,26 0,00 0,00 8.380,95 1.274,56 1.288,79 0,00 2.563,35 5.817,60 352,00 743,52 31/12/2012
547 506000 DANIELA DE OLIVEIRA CAVALIERI ANALISTA DO MP ATIVO BELO HORIZONTE - COMARCA; BH-14PJ DEFESA CONSUMIDOR-SECRETARIA 4.063,61 0,00 0,00 2.095,89 0,00 0,00 6.159,50 894,00 498,33 0,00 1.392,33 4.767,17 352,00 0,00 31/12/2012
548 482900 DANIELA DINIZ MONTEIRO NASCIMENTO ASSESSOR ATIVO BELO HORIZONTE - COMARCA; COORD REG BACIAS RIO VELHAS E PARAOPEBA 0,00 0,00 5.598,22 2.799,11 0,00 0,00 8.397,33 861,56 1.294,99 0,00 2.156,55 6.240,78 587,00 0,00 31/12/2012
549 393700 DANIELA GOMES CARDOSO OFICIAL DO MP ATIVO SABARÁ - COMARCA; SABARA-PJ-02PJ 2.723,61 163,42 0,00 1.443,51 0,00 0,00 4.330,54 635,14 109,09 0,00 744,23 3.586,31 587,00 0,00 31/12/2012
550 356400 DANIELA LEAL FERRAZ ANALISTA DO MP ATIVO MONTES CLAROS - COMARCA; COORD REG PJ DEF EDUC DIR CRIANCA ADOL NORTE 7.124,13 712,41 0,00 4.142,43 2.612,18 0,00 14.591,15 1.903,56 3.217,44 0,00 5.121,00 9.470,15 352,00 1.879,18 31/12/2012
551 501000 DANIELA LOURENCO SANTOS DA SILVA GUIMARAES ANALISTA DO MP ATIVO BELO HORIZONTE - COMARCA; BH-12PJ JUIZO CRIMINAL 4.473,58 0,00 0,00 2.505,86 0,00 0,00 6.979,44 984,18 662,53 0,00 1.646,71 5.332,73 352,00 0,00 31/12/2012
552 195801 DANIELA MARIA DE OLIVEIRA QUEIROZ ANALISTA DO MP ATIVO ARAGUARI - COMARCA; ARAGUARI-PJ-02PJ 6.069,59 1.213,92 0,00 3.358,93 0,00 0,00 10.642,44 1.679,11 1.879,73 0,00 3.558,84 7.083,60 352,00 1.263,27 31/12/2012
553 511400 DANIELA MARIA LARA DE OLIVEIRA ANALISTA DO MP ATIVO BOA ESPERANÇA - COMARCA; BOA ESPERANCA-PJ-02PJ 4.473,58 0,00 0,00 2.166,25 0,00 0,00 6.639,83 772,28 362,14 0,00 1.134,42 5.505,41 352,00 427,95 31/12/2012
554 252101 DANIELA PAULA ALVES PENA ANALISTA DO MP ATIVO CONTAGEM - COMARCA; CONTAGEM-PJ-APO TECNICO 6.069,59 1.213,92 0,00 3.641,75 0,00 0,00 10.925,26 1.602,38 2.018,17 0,00 3.620,55 7.304,71 352,00 0,00 31/12/2012
555 429600 DANIELA PIMENTA NUNES MACHADO ANALISTA DO MP ATIVO BELO HORIZONTE - COMARCA; BH-05PJ JUÍZO DE SUCESSÕES 5.598,22 335,89 0,00 5.934,11 0,00 0,00 11.868,22 1.305,50 1.357,63 0,00 2.663,13 9.205,09 352,00 0,00 31/12/2012
556 424300 DANIELA PORTO PINTO OFICIAL DO MP ATIVO BELO HORIZONTE - COMARCA; BH-19PJ SAUDE-ASS TECNICA 2.812,27 168,74 0,00 1.490,50 0,00 0,00 4.471,51 491,86 122,95 0,00 614,81 3.856,70 352,00 0,00 31/12/2012
557 462000 DANIELA SOUSA GOMES DO AMARAL ANALISTA DO MP ATIVO BETIM - COMARCA; BETIM-PJ-08PJ 5.421,69 0,00 0,00 2.462,42 0,00 0,00 7.884,11 1.276,57 985,21 0,00 2.261,78 5.622,33 587,00 1.424,27 31/12/2012
558 427000 DANIELA TEIXEIRA DINIZ ANDRADE ANALISTA DO MP ATIVO BELO HORIZONTE - COMARCA; DIVIS DE PROJETOS DE ENGENHARIA E ARQUITETURA 4.619,20 277,15 0,00 4.896,35 0,00 0,00 9.792,70 1.077,20 849,65 0,00 1.926,85 7.865,85 587,00 0,00 31/12/2012
559 337200 DANIELA TOLEDO SENIUK ANALISTA DO MP ATIVO BELO HORIZONTE - COMARCA; CGMP-SECRETARIA DA CORREGEDORIA-GERAL DO MP 6.471,28 647,13 0,00 3.578,09 2.372,80 0,00 13.069,30 1.451,71 2.031,72 0,00 3.483,43 9.585,87 587,00 2.500,86 31/12/2012
560 229900 DANIELA UCHOA SALOMON ANALISTA DO MP ATIVO BELO HORIZONTE - COMARCA; CAO-PATRIMONIO PUBLICO-SECRETARIA 6.899,47 1.379,89 0,00 4.832,37 2.759,79 0,00 15.871,52 1.821,46 3.264,58 0,00 5.086,04 10.785,48 587,00 0,00 31/12/2012
561 195500 DANIELE CHAVES FONSECA ASSESSOR/OFICIAL ATIVO BELO HORIZONTE - COMARCA; ASSESSORIA ESPECIAL DO PGJ 0,00 1.424,83 7.124,13 4.274,48 2.849,65 0,00 15.673,09 1.551,84 3.511,72 0,00 5.063,56 10.609,53 352,00 0,00 31/12/2012
562 323400 DANIELE MEGALE SANTINI OFICIAL DO MP ATIVO BELO HORIZONTE - COMARCA; ASSESS TECNICO-JUR JUNTO AS PROC. DE JUST 4.924,85 492,49 0,00 2.623,24 1.805,78 0,00 9.846,36 1.229,39 1.559,45 0,00 2.788,84 7.057,52 587,00 512,52 31/12/2012
563 357900 DANIELE REJANE PINTO VERSIEUX OFICIAL DO MP ATIVO PEDRO LEOPOLDO - COMARCA; PEDRO LEOPOLDO-PJ-01PJ 4.473,58 447,36 0,00 2.469,52 1.640,31 0,00 9.030,77 1.116,74 1.274,80 0,00 2.391,54 6.639,23 352,00 465,57 31/12/2012
564 389500 DANIELE VASCONCELOS AMORIM OFICIAL DO MP ATIVO SÃO SEBASTIÃO DO PARAÍSO - COMARCA; SAO SEBASTIAO DO PARAISO-PJ-04PJ 4.332,50 259,95 0,00 2.085,78 0,00 0,00 6.678,23 1.102,93 625,85 0,00 1.728,78 4.949,45 352,00 1.262,64 31/12/2012
565 265000 DANIELLE CASTANHEIRA SCALABRINI OFICIAL DO MP ATIVO BELO HORIZONTE - COMARCA; JUNTA RECURSAL DO PROCON ESTADUAL 4.619,20 461,92 0,00 2.540,56 0,00 0,00 7.621,68 1.266,35 995,84 0,00 2.262,19 5.359,49 352,00 1.350,05 31/12/2012
566 490100 DANIELLE DE AVILA SILVA LOPES ANALISTA DO MP ATIVO BELO HORIZONTE - COMARCA; PROC. JUSTICA DIR. DIFUSOS E COLETIVOS-SEC 4.924,85 492,49 0,00 2.794,09 0,00 0,00 8.211,43 1.191,82 1.104,67 0,00 2.296,49 5.914,94 352,00 0,00 31/12/2012
567 379900 DANIELLE GUIMARAES CARNEIRO PERES ANALISTA DO MP ATIVO BELO HORIZONTE - COMARCA; DIRETORIA DE ORCAMENTO-DIOR/SPC 6.069,59 364,18 0,00 3.216,88 0,00 0,00 9.650,65 1.415,42 1.602,23 0,00 3.017,65 6.633,00 587,00 0,00 31/12/2012
568 380800 DANILLO RIBEIRO ANTUNES ANALISTA DO MP ATIVO MONTES CLAROS - COMARCA; MONTES CLAROS-PJ-SECRETARIA 6.069,59 364,18 0,00 3.216,88 0,00 0,00 9.650,65 1.415,42 1.602,23 0,00 3.017,65 6.633,00 352,00 0,00 31/12/2012
569 453700 DANILO BOTELHO DE CARVALHO ANALISTA DO MP ATIVO BELO HORIZONTE - COMARCA; DIRETORIA DE ADMINISTRACAO FINANCEIRA 5.421,69 0,00 0,00 2.959,26 1.807,23 0,00 10.188,18 1.192,78 1.603,80 0,00 2.796,58 7.391,60 352,00 0,00 31/12/2012
570 391200 DANILO D'AVILA MENDES ANALISTA DO MP ATIVO JANAÚBA - COMARCA; JANAUBA-PJ-01PJ 6.069,59 364,18 0,00 3.216,88 2.144,59 0,00 11.795,24 1.158,61 1.998,85 0,00 3.157,46 8.637,78 352,00 882,24 31/12/2012
571 494900 DANILO GAVIAO AVELINO DE MELLO ANALISTA DO MP ATIVO POUSO ALEGRE - COMARCA; POUSO ALEGRE-PJ-08PJ 4.473,58 0,00 0,00 2.307,33 0,00 0,00 6.780,91 745,89 504,81 0,00 1.250,70 5.530,21 352,00 0,00 31/12/2012
572 298300 DANUZA MONICA DE SOUZA DINIZ ANALISTA DO MP ATIVO DIVINÓPOLIS - COMARCA; DIVINOPOLIS-PJ-02PJ 6.267,25 626,73 0,00 3.446,99 2.297,99 0,00 12.638,96 1.516,68 2.366,90 0,00 3.883,58 8.755,38 352,00 0,00 31/12/2012
573 398700 DARCY LUIZ MILEO GREGATTI OFICIAL DO MP ATIVO LAMBARI - COMARCA; LAMBARI-PJ-SECRETARIA 3.300,91 198,05 0,00 1.749,48 0,00 0,00 5.248,44 577,33 226,66 0,00 803,99 4.444,45 352,00 0,00 31/12/2012
574 406200 DARIANA AUGUSTA DE TOLEDO PATROCINIO ASSESSOR/OFICIAL ATIVO BELO HORIZONTE - COMARCA; EXTINTA - DIRETORIA DE CONTRATOS E CONVÊNIOS 0,00 427,45 7.124,13 4.584,52 0,00 0,00 12.136,10 1.056,63 2.315,69 0,00 3.372,32 8.763,78 352,00 0,00 31/12/2012
575 305000 DARLI LEITE DE OLIVEIRA OFICIAL DO MP ATIVO ARAÇUAÍ - COMARCA; ARACUAI-PJ-02PJ 4.195,87 419,59 0,00 2.307,73 1.538,49 0,00 8.461,68 1.163,36 1.210,48 0,00 2.373,84 6.087,84 587,00 1.345,04 31/12/2012
576 122200 DAVID RIBEIRO DOS SANTOS ANALISTA DO MP ATIVO BORDA DA MATA - COMARCA; BORDA DA MATA-PJ-UNPJ 11.040,10 7.728,07 0,00 9.384,08 6.256,06 0,00 34.408,31 4.288,27 9.714,70 0,00 14.002,97 20.405,34 352,00 1.447,92 31/12/2012
577 389400 DAWSON CANEDO MARQUES OFICIAL DO MP ATIVO GOVERNADOR VALADARES - COMARCA; GOVERNADOR VALADARES-PJ-08PJ 4.332,50 259,95 0,00 2.506,66 1.530,82 0,00 8.629,93 1.010,34 1.037,57 0,00 2.047,91 6.582,02 352,00 0,00 31/12/2012
578 256100 DAYSE ROSALY PEREIRA BATISTA OFICIAL DO MP ATIVO BELO HORIZONTE - COMARCA; PROCON-MG-SECRETARIA DE FISCALIZACOES 4.332,50 866,50 0,00 2.517,52 1.733,00 0,00 9.449,52 1.208,34 1.224,99 0,00 2.433,33 7.016,19 352,00 750,84 31/12/2012
579 311901 DEBORA APARECIDA DA SILVA ASSESSOR ATIVO BELO HORIZONTE - COMARCA; BH-23PJ CIVEL-SETOR ATEND PUB 0,00 0,00 2.107,81 1.637,31 702,60 0,00 4.447,72 548,81 133,40 0,00 682,21 3.765,51 1.195,12 21,08 31/12/2012
580 194301 DEBORA APARECIDA DOS SANTOS ANALISTA DO MP ATIVO UBERLÂNDIA - COMARCA; UBERLANDIA-COORD CONJ-FAMÍLIA E JUIZ ESP CRIM 7.356,10 1.471,22 0,00 4.413,66 0,00 0,00 13.240,98 1.942,02 2.773,87 0,00 4.715,89 8.525,09 352,00 0,00 31/12/2012
581 518800 DEBORA CARVALHO FIORATTO OFICIAL DO MP ATIVO CONTAGEM - COMARCA; CONTAGEM-PJ-11PJ 2.812,27 0,00 0,00 2.812,27 0,00 0,00 5.624,54 618,70 128,05 0,00 746,75 4.877,79 352,00 0,00 31/12/2012
582 444900 DEBORA CLAUDIA PEREIRA ALVES ANALISTA DO MP ATIVO BELO HORIZONTE - COMARCA; BH-08PJ JUIZADO ESPECIAL-SECRETARIA 5.598,22 335,89 0,00 3.036,14 0,00 0,00 8.970,25 1.331,57 1.311,84 0,00 2.643,41 6.326,84 352,00 424,13 31/12/2012
583 513100 DEBORA CRISTINA PEREIRA DE OLIVEIRA ANALISTA DO MP ATIVO BELO HORIZONTE - COMARCA; BH-23PJ CIVEL-SETOR JURIDICO 4.473,58 0,00 0,00 2.166,25 0,00 0,00 6.639,83 1.003,33 634,27 0,00 1.637,60 5.002,23 3.567,68 603,29 31/12/2012
584 424100 DEBORA SANTOS E ALVES ANALISTA DO MP ATIVO JANUÁRIA - COMARCA; JANUARIA-PJ-01PJ 5.598,22 335,89 0,00 2.967,05 0,00 0,00 8.901,16 1.305,50 1.357,63 0,00 2.663,13 6.238,03 352,00 0,00 31/12/2012
585 426300 DEBORA SCUCATO MACHADO SOARES OFICIAL DO MP ATIVO ITABIRA - COMARCA; ITABIRA-PJ-03PJ 3.300,91 198,05 0,00 3.498,96 0,00 0,00 6.997,92 769,78 306,82 0,00 1.076,60 5.921,32 352,00 0,00 31/12/2012
586 438000 DEBORAH COSTA LAGE ANALISTA DO MP ATIVO BELO HORIZONTE - COMARCA; ASSESS TECNICO-JUR JUNTO AS PROC. DE JUST 5.598,22 335,89 0,00 3.223,26 0,00 0,00 9.157,37 1.305,50 1.479,09 0,00 2.784,59 6.372,78 352,00 441,66 31/12/2012
587 475700 DEBORAH LOBAO LACERDA OFICIAL DO MP ATIVO BELO HORIZONTE - COMARCA; BH-23PJ INFRACIONAL 2.637,71 0,00 0,00 1.318,85 879,24 0,00 4.835,80 580,30 216,71 0,00 797,01 4.038,79 352,00 0,00 31/12/2012
588 506200 DEBORAH RALEMADHA RODRIGUES MELO ANALISTA DO MP ATIVO BELO HORIZONTE - COMARCA; COMB CRIMES PRAT POR AG POL MUN-ASSESSORIA 4.924,85 0,00 0,00 2.540,08 1.641,62 0,00 9.106,55 1.083,46 1.315,05 0,00 2.398,51 6.708,04 352,00 0,00 31/12/2012
589 501900 DELI RAQUEL RODRIGUES ANALISTA DO MP ATIVO ITUIUTABA - COMARCA; ITUIUTABA-PJ-04PJ 4.473,58 0,00 0,00 2.307,33 0,00 0,00 6.780,91 984,18 662,53 0,00 1.646,71 5.134,20 352,00 0,00 31/12/2012
590 378600 DELIANE LOPES VIEIRA BREIJAO NEVES ANALISTA DO MP ATIVO SANTOS DUMONT - COMARCA; SANTOS DUMONT-PJ-03PJ 6.069,59 364,18 0,00 6.433,77 0,00 0,00 12.867,54 1.415,42 1.602,23 0,00 3.017,65 9.849,89 352,00 0,00 31/12/2012
591 522500 DELMINDA MARIA LEAO E SILVA OFICIAL DO MP ATIVO ITAGUARA - COMARCA; ITAGUARA-PJ-UNPJ 2.554,55 1.788,20 0,00 2.171,38 1.447,58 0,00 7.961,71 955,40 819,24 0,00 1.774,64 6.187,07 352,00 0,00 31/12/2012
592 393000 DENER LOPES MACHADO ANALISTA DO MP ATIVO PATOS DE MINAS - COMARCA; COORD REG BACIAS PARACATU,URUCUIA E ABAETE 5.085,23 305,11 0,00 2.695,17 0,00 0,00 8.085,51 1.185,88 1.091,47 0,00 2.277,35 5.808,16 352,00 0,00 31/12/2012
593 487700 DENIA FERREIRA MAIA SILVA OFICIAL DO MP ATIVO TRÊS CORACOES - COMARCA; TRES CORACOES-PJ-01PJ 2.637,71 0,00 0,00 1.360,43 0,00 0,00 3.998,14 580,30 75,81 0,00 656,11 3.342,03 587,00 0,00 31/12/2012
594 424800 DENIS APARECIDO CAMPOS DELFINO ANALISTA DO MP ATIVO LUZ - COMARCA; LUZ-PJ-UNPJ 5.598,22 335,89 0,00 2.967,05 1.978,04 0,00 10.879,20 1.305,50 1.531,42 0,00 2.836,92 8.042,28 587,00 0,00 31/12/2012
595 381400 DENISE ANGELICA MELLO DE PAULA OFICIAL DO MP ATIVO BELO HORIZONTE - COMARCA; BH-18PJ DIREITOS HUMANOS-SECRETARIA 4.332,50 259,95 0,00 2.506,66 0,00 0,00 7.099,11 1.010,34 710,13 0,00 1.720,47 5.378,64 352,00 0,00 31/12/2012
596 196300 DENISE DE ALMEIDA VILELA FURTADO OFICIAL DO MP ATIVO BELO HORIZONTE - COMARCA; CENTRAL DE APOIO TECNICO-SECRETARIA 5.878,19 1.175,64 0,00 3.551,12 0,00 0,00 10.604,95 1.672,36 1.586,57 0,00 3.258,93 7.346,02 352,00 1.643,40 31/12/2012
597 336900 DENISE DE SOUSA MORAES SILVA OFICIAL DO MP ATIVO MATEUS LEME - COMARCA; MATEUS LEME-PJ-02PJ 3.811,39 381,14 0,00 2.162,38 0,00 0,00 6.354,91 922,36 549,95 0,00 1.472,31 4.882,60 352,00 0,00 31/12/2012
598 271100 DENISE ELOY PEIXOTO OFICIAL DO MP ATIVO BELO HORIZONTE - COMARCA; GAECO - SECRETARIA 5.421,69 542,17 0,00 3.075,94 1.987,95 0,00 11.027,75 1.312,04 1.918,89 0,00 3.230,93 7.796,82 352,00 0,00 31/12/2012
599 385400 DENISE FREITAS DE ASSIS OFICIAL DO MP ATIVO CARATINGA - COMARCA; CARATINGA-PJ-01PJ 3.935,44 236,13 0,00 1.894,64 0,00 0,00 6.066,21 1.018,66 334,41 0,00 1.353,07 4.713,14 352,00 1.299,76 31/12/2012
600 437100 DENISE NOGUEIRA MAGRI MENDES ANALISTA DO MP ATIVO BELO HORIZONTE - COMARCA; CAO-ORDEM ECONOMICA E TRIBUTARIA-SECRETARIA 5.598,22 1.119,64 0,00 6.717,86 0,00 0,00 13.435,72 1.477,92 1.463,65 0,00 2.941,57 10.494,15 587,00 0,00 31/12/2012
601 524700 DENISE RAMOS GUIMARAES OFICIAL DO MP ATIVO SANTA LUZIA - COMARCA; SANTA LUZIA-PJ-02PJ 2.812,27 0,00 0,00 1.406,13 0,00 0,00 4.218,40 592,92 108,71 0,00 701,63 3.516,77 352,00 0,00 31/12/2012
602 239100 DENISE RIBEIRO DOS SANTOS CAETANO OFICIAL DO MP ATIVO ITANHANDU - COMARCA; ITANHANDU-PJ-SECRETARIA 5.598,22 1.119,64 0,00 3.551,12 2.239,29 0,00 12.508,27 1.524,52 2.120,15 0,00 3.644,67 8.863,60 352,00 635,52 31/12/2012
603 325500 DENISE ROSA TORRES ASSESSOR/OFICIAL ATIVO BELO HORIZONTE - COMARCA; DIRETORIA DE PESSOAL ADMINISTRATIVO - DPAD 0,00 712,41 7.124,13 3.918,27 2.612,18 0,00 14.366,99 1.230,62 3.142,92 0,00 4.373,54 9.993,45 352,00 0,00 31/12/2012
604 437200 DENISE VIVIANE DOS SANTOS ANALISTA DO MP ATIVO BELO HORIZONTE - COMARCA; ASSESS TECNICA DA CORREGEDORIA-GERAL DO MP 5.085,23 305,11 0,00 2.927,91 1.796,78 0,00 10.115,03 1.185,88 1.585,58 0,00 2.771,46 7.343,57 352,00 0,00 31/12/2012
605 267900 DENISIA DE ALMEIDA SALES OFICIAL DO MP ATIVO BELO HORIZONTE - COMARCA; CAO-SAUDE- SECRETARIA 4.195,87 419,59 0,00 2.307,73 1.538,49 0,00 8.461,68 1.015,40 965,60 0,00 1.981,00 6.480,68 352,00 0,00 31/12/2012
606 480300 DESIREE ARANTES FERREIRA GOUVEA OFICIAL DO MP ATIVO PRATÁPOLIS - COMARCA; PRATAPOLIS-PJ-UNPJ 2.637,71 0,00 0,00 1.318,85 0,00 0,00 3.956,56 435,22 74,40 0,00 509,62 3.446,94 352,00 0,00 31/12/2012
607 355300 DEYSE CRISTINA MORAIS OFICIAL DO MP ATIVO PASSOS - COMARCA; PASSOS-PJ-02PJ 3.691,17 369,12 0,00 2.185,68 1.353,43 0,00 7.599,40 893,26 836,29 0,00 1.729,55 5.869,85 352,00 0,00 31/12/2012
608 523700 DIANA CAMPOS RESENDE OFICIAL DO MP ATIVO SÃO JOÃO DEL REI - COMARCA; SAO JOAO DEL REI-PJ-04PJ 2.812,27 1.124,91 0,00 2.531,04 0,00 0,00 6.468,22 866,18 447,69 0,00 1.313,87 5.154,35 352,00 0,00 31/12/2012
609 241900 DIANA CARDOSO MARTINS OFICIAL DO MP ATIVO BELO HORIZONTE - COMARCA; DIRETORIA DE PRODUCAO EDITORIAL 4.473,58 894,72 0,00 2.684,15 0,00 0,00 8.052,45 1.181,02 1.080,67 0,00 2.261,69 5.790,76 352,00 0,00 31/12/2012
610 410100 DIANA GORDILHO SILVEIRA SENA ANALISTA DO MP ATIVO BELO HORIZONTE - COMARCA; ASSESS TECNICO-JUR JUNTO AS PROC. DE JUST 6.069,59 364,18 0,00 2.967,05 2.144,59 0,00 11.545,41 1.508,86 2.069,69 0,00 3.578,55 7.966,86 352,00 1.349,06 31/12/2012
611 520000 DIARLE TOSTE DOS SANTOS ANALISTA DO MP ATIVO RIO POMBA - COMARCA; RIO POMBA-PJ-UNPJ 4.332,50 0,00 0,00 4.332,50 0,00 0,00 8.665,00 953,16 384,75 0,00 1.337,91 7.327,09 587,00 0,00 31/12/2012
612 388100 DIEGO CESAR DO NASCIMENTO PERONI OFICIAL DO MP ATIVO CASSIA - COMARCA; CASSIA-PJ-02PJ 3.300,91 198,05 0,00 1.749,48 0,00 0,00 5.248,44 577,33 226,66 0,00 803,99 4.444,45 352,00 0,00 31/12/2012
613 446900 DIEGO DE FREITAS OFICIAL DO MP ATIVO UBERABA - COMARCA; UBERABA-PJ-06PJ 2.903,86 174,23 0,00 1.451,93 0,00 0,00 4.530,02 677,18 171,20 0,00 848,38 3.681,64 421,69 177,71 31/12/2012
614 379800 DIEGO OSORIO DA SILVA CORDEIRO OFICIAL DO MP ATIVO CONSELHEIRO LAFAIETE - COMARCA; CONSELHEIRO LAFAIETE-PJ-05PJ 3.574,80 214,49 0,00 2.039,81 0,00 0,00 5.829,10 833,64 391,93 0,00 1.225,57 4.603,53 352,00 0,00 31/12/2012
615 288800 DILENE NEPOMUCENO ALVES OFICIAL DO MP ATIVO BELO HORIZONTE - COMARCA; DIRETORIA DE PESSOAL ADMINISTRATIVO - DPAD 5.250,75 525,08 0,00 2.978,95 0,00 0,00 8.754,78 963,02 973,88 0,00 1.936,90 6.817,88 352,00 0,00 31/12/2012
616 270100 DILSON DO AMARAL OFICIAL DO MP ATIVO RIO CASCA - COMARCA; RIO CASCA-PJ-SECRETARIA 4.769,54 476,95 0,00 2.938,76 0,00 0,00 8.185,25 1.154,22 1.021,05 0,00 2.175,27 6.009,98 352,00 0,00 31/12/2012
617 466000 DIMITRI GUDE MARCIAL ANALISTA DO MP ATIVO NANUQUE - COMARCA; NANUQUE-PJ-02PJ 4.063,61 0,00 0,00 1.967,72 1.354,54 0,00 7.385,87 990,36 898,59 0,00 1.888,95 5.496,92 587,00 1.004,21 31/12/2012
618 516300 DINORA APARECIDA MACEDO BRANDAO ANALISTA DO MP ATIVO BELO HORIZONTE - COMARCA; COMB CRIMES PRAT POR AG POL MUN-ASSESSORIA 3.935,44 0,00 0,00 1.967,72 0,00 0,00 5.903,16 865,80 446,99 0,00 1.312,79 4.590,37 352,00 0,00 31/12/2012
619 511700 DIOGENES HENRIQUES PEREIRA LOURENCO ANALISTA DO MP ATIVO CONTAGEM - COMARCA; CONTAGEM-PJ-22PJ 4.924,85 0,00 0,00 2.603,29 0,00 0,00 7.528,14 1.104,53 825,59 0,00 1.930,12 5.598,02 3.567,68 693,40 31/12/2012
620 387800 DIOGO FELIX DA SILVA OFICIAL DO MP ATIVO MANTENA - COMARCA; MANTENA-PJ-SECRETARIA 3.300,91 198,05 0,00 1.749,48 0,00 0,00 5.248,44 577,33 226,66 0,00 803,99 4.444,45 428,80 0,00 31/12/2012
621 259600 DIOGO MESQUITA MAIA ANALISTA DO MP ATIVO BELO HORIZONTE - COMARCA; DIRET DE APOIO AS PROCURADORIAS DE JUSTICA 7.595,56 5.316,90 0,00 6.456,23 0,00 0,00 19.368,69 2.840,74 4.495,90 0,00 7.336,64 12.032,05 587,00 0,00 31/12/2012
622 364100 DIOGO OLIVEIRA CANUTO OFICIAL DO MP ATIVO BELO HORIZONTE - COMARCA; EXTINTA-04ª PJ JUÍZO REG PÚBLICOS-SECRETARIA 4.332,50 433,25 0,00 2.439,82 1.588,58 0,00 8.794,15 890,22 1.025,20 0,00 1.915,42 6.878,73 352,00 887,34 31/12/2012
623 386700 DIRCIMAR FERNANDES CARNEIRO OFICIAL DO MP ATIVO ALTO RIO DOCE - COMARCA; ALTO RIO DOCE-PJ-UNPJ 4.332,50 1.733,00 0,00 3.007,25 2.021,83 0,00 11.094,58 1.554,45 2.038,37 0,00 3.592,82 7.501,76 392,96 2.556,17 31/12/2012
624 113800 DIRSON APARECIDO GUIMARAES ASSESSOR ATIVO BELO HORIZONTE - COMARCA; DIRETORIA DE MANUTENCAO PREDIAL 0,00 1.686,24 2.107,81 1.897,02 1.264,68 0,00 6.955,75 848,13 473,86 0,00 1.321,99 5.633,76 352,00 0,00 31/12/2012
625 216700 DOMICIO VALDETE PEREIRA OFICIAL DO MP ATIVO TEÓFILO OTONI - COMARCA; COORD REG PJ DEF EDU DIR CRIAN ADOL JEQUI MUC 7.124,13 1.424,83 0,00 3.878,94 0,00 0,00 12.427,90 2.260,16 2.223,01 0,00 4.483,17 7.944,73 352,00 4.477,17 31/12/2012
626 85700 DONIZETTE PEREIRA DOS SANTOS OFICIAL DO MP ATIVO BELO HORIZONTE - COMARCA; EXTINTA - PROTOCOLO DA PGJ 14.488,11 10.141,67 0,00 12.058,81 0,00 0,00 36.688,59 5.305,88 9.980,83 512,16 15.798,87 20.889,72 352,00 0,00 31/12/2012
627 192701 DONIZETTI APARECIDO AMORIM ANALISTA DO MP ATIVO PRATÁPOLIS - COMARCA; PRATAPOLIS-PJ-UNPJ 4.063,61 812,72 0,00 2.438,16 0,00 0,00 7.314,49 1.072,80 839,85 0,00 1.912,65 5.401,84 352,00 0,00 31/12/2012
628 276700 DORALICE ROSA DE OLIVEIRA FREITAS OFICIAL DO MP ATIVO CARMO DA MATA - COMARCA; CARMO DA MATA-PJ-SECRETARIA 4.195,87 3.356,70 0,00 3.986,08 2.517,52 830,78 14.886,95 1.661,56 3.299,12 0,00 4.960,68 9.926,27 352,00 830,78 31/12/2012
629 265900 DOUGLAS GOMES MOREIRA ANALISTA DO MP ATIVO BELO HORIZONTE - COMARCA; CENTRAL DE APOIO TECNICO-SETOR DE ENGENHARIA 8.361,90 836,19 0,00 4.599,04 0,00 0,00 13.797,13 2.023,58 2.955,35 0,00 4.978,93 8.818,20 352,00 0,00 31/12/2012
630 241000 DOUGLAS MEIRELLES DE CASTRO OFICIAL DO MP ATIVO CONCEIÇÃO DO RIO VERDE - COMARCA; CONCEICAO DO RIO VERDE-PJ-UNPJ 5.780,51 1.156,10 0,00 3.577,68 0,00 0,00 10.514,29 1.526,06 1.663,27 0,00 3.189,33 7.324,96 587,00 0,00 31/12/2012
631 146800 DUCINALVA AMARAL LOPES REIS OFICIAL DO MP ATIVO PARAISÓPOLIS - COMARCA; PARAISOPOLIS-PJ-UNPJ 8.361,90 4.180,95 0,00 6.073,65 4.180,95 0,00 22.797,45 2.846,44 5.275,39 0,00 8.121,83 14.675,62 587,00 1.186,65 31/12/2012
632 122500 DUILIO CARLOS FERREIRA UTSCH OFICIAL DO MP ATIVO CONCEIÇÃO DO MATO DENTRO - COMARCA; CONCEICAO DO MATO DENTRO-PJ-UNPJ 7.124,13 4.986,89 0,00 6.200,13 0,00 0,00 18.311,15 2.262,29 3.312,81 0,00 5.575,10 12.736,05 352,00 2.255,19 31/12/2012
633 201800 DULCINEIA ANDRE DE SOUZA OFICIAL DO MP ATIVO JEQUITINHONHA - COMARCA; JEQUITINHONHA-PJ-SECRETARIA 7.124,13 1.424,83 0,00 3.878,94 2.849,65 0,00 15.277,55 2.125,42 2.799,40 0,00 4.924,82 10.352,73 587,00 3.252,24 31/12/2012
634 395800 DUVIDIER MEDIRCIO JUNIOR ANALISTA DO MP ATIVO BELO HORIZONTE - COMARCA; CENTRAL DE APOIO TECNICO-SETOR DE ENGENHARIA 5.598,22 335,89 0,00 2.967,05 0,00 0,00 8.901,16 1.305,50 1.357,63 0,00 2.663,13 6.238,03 352,00 0,00 31/12/2012
635 273000 EDELFINA APARECIDA GUIMARAES OFICIAL DO MP ATIVO BELO HORIZONTE - COMARCA; PROMOT ESTADUAL DE DEF PATRI CULT E TUR DE MG 4.619,20 1.847,68 0,00 6.466,88 2.155,63 0,00 15.089,39 1.422,72 2.026,13 0,00 3.448,85 11.640,54 352,00 0,00 31/12/2012
636 523300 EDER DOS SANTOS PATRICIO ANALISTA DO MP ATIVO NOVA SERRANA - COMARCA; NOVA SERRANA-PJ-03PJ 3.935,44 0,00 0,00 3.935,44 1.311,81 0,00 9.182,69 865,80 769,29 0,00 1.635,09 7.547,60 352,00 0,00 31/12/2012
637 356700 EDER JOSE PACHECO OFICIAL DO MP ATIVO CAMPO BELO - COMARCA; CAMPO BELO-PJ-SECRETARIA 4.473,58 447,36 0,00 2.460,47 1.640,31 0,00 9.021,72 811,95 1.018,92 0,00 1.830,87 7.190,85 352,00 0,00 31/12/2012
638 507900 EDERSON SILVA LOPES OFICIAL DO MP ATIVO BELO HORIZONTE - COMARCA; SERVICO MEDICO-DEPTO PERIC MEDICA SAUDE OCUP 2.637,71 0,00 0,00 2.637,71 0,00 0,00 5.275,42 580,30 101,05 0,00 681,35 4.594,07 352,00 0,00 31/12/2012
639 296200 EDGARD GOULART MATOSINHO DE LAET JUNIOR ANALISTA DO MP ATIVO GOVERNADOR VALADARES - COMARCA; GOVERNADOR VALADARES-PJ-SECRETARIA 7.595,56 759,56 0,00 4.177,56 2.785,04 0,00 15.317,72 1.838,12 3.030,97 0,00 4.869,09 10.448,63 587,00 0,00 31/12/2012
640 295000 EDILA MARIA DA SILVEIRA OFICIAL DO MP ATIVO FORMIGA - COMARCA; FORMIGA-PJ-SECRETARIA 4.332,50 433,25 0,00 2.307,73 1.588,58 0,00 8.662,06 1.081,52 1.185,80 0,00 2.267,32 6.394,74 352,00 450,87 31/12/2012
641 332300 EDILA MARILAC MIRANDA PRADO OFICIAL DO MP ATIVO DIAMANTINA - COMARCA; DIAMANTINA-PJ-03PJ 4.473,58 1.342,07 0,00 2.816,12 1.938,55 0,00 10.570,32 1.319,79 1.602,77 0,00 2.922,56 7.647,76 352,00 550,20 31/12/2012
642 376600 EDILANE CONSOLACAO ROSA NAZARETH ANALISTA DO MP ATIVO BETIM - COMARCA; BETIM-PJ-10PJ 6.069,59 364,18 0,00 3.216,88 2.144,59 0,00 11.795,24 1.061,56 1.782,92 0,00 2.844,48 8.950,76 352,00 0,00 31/12/2012
643 301500 EDILENE APARECIDA DE CARVALHO ANALISTA DO MP ATIVO BELO HORIZONTE - COMARCA; DIRETORIA DE ADMINISTRACAO FINANCEIRA 7.595,56 759,56 0,00 4.177,56 0,00 0,00 12.532,68 1.838,12 2.542,73 0,00 4.380,85 8.151,83 352,00 0,00 31/12/2012
644 309800 EDILZA DOS REIS OFICIAL DO MP ATIVO UBERLÂNDIA - COMARCA; UBERLANDIA-PJ-03PJ 5.085,23 508,52 0,00 2.708,67 1.864,58 0,00 10.167,00 1.269,44 1.568,07 0,00 2.837,51 7.329,49 352,00 529,26 31/12/2012
645 200500 EDINEIA MARIA DE OLIVEIRA ANTUNES OFICIAL DO MP ATIVO MONTES CLAROS - COMARCA; MONTES CLAROS-PJ-10PJ 7.124,13 2.137,24 0,00 5.187,65 0,00 0,00 14.449,02 2.037,50 2.986,33 0,00 5.023,83 9.425,19 352,00 0,00 31/12/2012
646 427700 EDISANGELA SOARES LOPES OFICIAL DO MP ATIVO PIRAPORA - COMARCA; PIRAPORA-PJ-03PJ 3.300,91 198,05 0,00 3.498,96 0,00 0,00 6.997,92 769,78 306,82 0,00 1.076,60 5.921,32 352,00 0,00 31/12/2012
647 517700 EDMILSON TADEU FERNANDES OFICIAL DO MP ATIVO POUSO ALEGRE - COMARCA; POUSO ALEGRE-PJ-04PJ 2.812,27 0,00 0,00 1.406,13 937,42 0,00 5.155,82 618,70 265,72 0,00 884,42 4.271,40 352,00 0,00 31/12/2012
648 358400 EDNA APARECIDA SILVA FERREIRA OFICIAL DO MP ATIVO CORONEL FABRICIANO - COMARCA; CORONEL FABRICIANO-PJ-02PJ 4.473,58 447,36 0,00 2.382,87 1.640,31 0,00 8.944,12 1.116,74 1.274,80 0,00 2.391,54 6.552,58 587,00 465,57 31/12/2012
649 331800 EDNA MARCIA CAMILO DA SILVA OFICIAL DO MP ATIVO SETE LAGOAS - COMARCA; SETE LAGOAS-PJ-07PJ 5.085,23 508,52 0,00 3.053,19 1.864,58 0,00 10.511,52 1.230,62 1.703,79 0,00 2.934,41 7.577,11 352,00 0,00 31/12/2012
650 87400 EDNA MARIA DE LIMA OFICIAL DO MP ATIVO BELO HORIZONTE - COMARCA; EXTINTA - DIVISÃO DE MATERIAL PERMANENTE 7.124,13 3.562,07 0,00 5.006,48 3.562,07 0,00 19.254,75 2.049,35 3.581,60 0,00 5.630,95 13.623,80 352,00 2.937,84 31/12/2012
651 422800 EDNILSON DE SOUZA FERREIRA ASSESSOR ATIVO BELO HORIZONTE - COMARCA; DIRETORIA DE SERVICO CRIMINAL 0,00 0,00 2.107,81 1.178,79 0,00 0,00 3.286,60 502,44 27,40 0,00 529,84 2.756,76 352,00 0,00 31/12/2012
652 327900 EDRIEL SANTANA PEREIRA OFICIAL DO MP ATIVO TUPACIGUARA - COMARCA; TUPACIGUARA-PJ-UNPJ 5.085,23 508,52 0,00 3.053,19 0,00 0,00 8.646,94 1.230,62 1.191,03 0,00 2.421,65 6.225,29 352,00 0,00 31/12/2012
653 482400 EDSON GARCIA OFICIAL DO MP ATIVO MACHADO - COMARCA; MACHADO-PJ-SECRETARIA 2.637,71 0,00 0,00 1.318,85 0,00 0,00 3.956,56 622,58 136,14 0,00 758,72 3.197,84 352,00 384,37 31/12/2012
654 225601 EDSON LABRE FILHO ANALISTA DO MP ATIVO VARGINHA - COMARCA; VARGINHA-PJ-01PJ 7.595,56 1.519,11 0,00 4.557,33 3.038,22 0,00 16.710,22 2.005,22 3.750,04 0,00 5.755,26 10.954,96 352,00 0,00 31/12/2012
655 414400 EDUARDO ABRANTES CAMPOS ANALISTA DO MP ATIVO OLIVEIRA - COMARCA; OLIVEIRA-PJ-02PJ 5.598,22 335,89 0,00 2.967,05 1.978,04 0,00 10.879,20 1.305,50 1.901,60 0,00 3.207,10 7.672,10 352,00 0,00 31/12/2012
656 476800 EDUARDO ALVES DE MOURA ANALISTA DO MP ATIVO UBERLÂNDIA - COMARCA; UBERLANDIA-PJ-19PJ 4.473,58 0,00 0,00 4.473,58 0,00 0,00 8.947,16 984,18 662,53 0,00 1.646,71 7.300,45 2.141,43 134,21 31/12/2012
657 390800 EDUARDO AMORIM PETTERSEN OFICIAL DO MP ATIVO CARANGOLA - COMARCA; CARANGOLA-PJ-03PJ 3.300,91 198,05 0,00 1.749,48 0,00 0,00 5.248,44 769,78 306,82 0,00 1.076,60 4.171,84 352,00 0,00 31/12/2012
658 461600 EDUARDO ANTONIO DE ASSIS FARIA ASSESSOR ATIVO BELO HORIZONTE - COMARCA; ASSESS EXECUTIVA DO CONSELHO SUPERIOR DO MP 0,00 0,00 3.519,31 1.759,65 1.173,10 0,00 6.452,06 812,96 546,01 0,00 1.358,97 5.093,09 352,00 0,00 31/12/2012
659 248800 EDUARDO DE CASTRO AMORIM ANALISTA DO MP ATIVO BELO HORIZONTE - COMARCA; CAO-TS-TERCEIRO SETOR-ASSESSORIA JURIDICA 8.915,18 1.783,04 0,00 5.949,46 0,00 0,00 16.647,68 2.353,60 3.689,67 0,00 6.043,27 10.604,41 352,00 0,00 31/12/2012
660 209100 EDUARDO DE SOUZA MAIA ANALISTA DO MP ATIVO BELO HORIZONTE - COMARCA; CAO-TS-TERCEIRO SETOR-ASSESSORIA JURIDICA 10.134,20 2.026,84 0,00 6.080,52 4.053,68 0,00 22.295,24 2.675,42 5.242,84 0,00 7.918,26 14.376,98 352,00 0,00 31/12/2012
661 350500 EDUARDO GONCALVES RIBEIRO OFICIAL DO MP ATIVO VESPASIANO - COMARCA; VESPASIANO-PJ-04PJ 3.691,17 369,12 0,00 4.060,29 1.353,43 0,00 9.474,01 893,26 836,29 0,00 1.729,55 7.744,46 352,00 0,00 31/12/2012
662 115800 EDUARDO HENRIQUE DE CAMPOS MAIA OFICIAL DO MP ATIVO BELO HORIZONTE - COMARCA; EXTINTA - DIVISAO DE SERVICOS GERAIS 7.595,56 3.038,23 0,00 5.517,07 0,00 0,00 16.150,86 2.413,20 3.483,53 0,00 5.896,73 10.254,13 352,00 1.005,75 31/12/2012
663 392600 EDUARDO HENRIQUE DOS SANTOS COSTA ELIAZAR OFICIAL DO MP ATIVO MATOZINHOS - COMARCA; MATOZINHOS-PJ-02PJ 3.574,80 214,49 0,00 1.894,64 0,00 0,00 5.683,93 625,23 208,53 0,00 833,76 4.850,17 587,00 0,00 31/12/2012
664 122900 EDUARDO JOSE COSTA SILVA OFICIAL DO MP ATIVO SETE LAGOAS - COMARCA; SETE LAGOAS-PJ-04PJ 9.814,62 6.870,24 0,00 8.342,43 5.561,62 0,00 30.588,91 3.670,66 8.057,03 0,00 11.727,69 18.861,22 352,00 0,00 31/12/2012
665 418700 EDUARDO LEMOS SIMOES OFICIAL DO MP ATIVO LAVRAS - COMARCA; COORD REG DO MA DA BACIA DO RIO GRANDE 2.998,37 179,90 0,00 1.589,13 1.059,42 0,00 5.826,82 699,22 415,32 0,00 1.114,54 4.712,28 352,00 0,00 31/12/2012
666 407500 EDUARDO MASCARENHAS CURI AZEVEDO ANALISTA DO MP ATIVO BELO HORIZONTE - COMARCA; SUPERINTENDENCIA DE COMUNICACAO INTEGRADA 5.598,22 335,89 0,00 2.695,17 0,00 0,00 8.629,28 1.387,25 1.224,55 0,00 2.611,80 6.017,48 352,00 1.286,93 31/12/2012
667 257600 EDUARDO VALADARES CABRAL ASSESSOR/ANALISTA ATIVO BELO HORIZONTE - COMARCA; EXTINTA - SECRETARIA ADMINISTRATIVA 0,00 1.568,57 7.842,84 8.627,12 0,00 0,00 18.038,53 1.974,95 3.109,77 0,00 5.084,72 12.953,81 352,00 1.568,56 31/12/2012
668 487400 EDVIN OTTO FILHO ANALISTA DO MP ATIVO VISCONDE DO RIO BRANCO - COMARCA; VISCONDE DO RIO BRANCO-PJ-01PJ 4.924,85 0,00 0,00 2.758,60 0,00 0,00 7.683,45 1.083,46 863,61 0,00 1.947,07 5.736,38 352,00 0,00 31/12/2012
669 401700 EDWANIA AMORIM DO CARMO OFICIAL DO MP ATIVO RIBEIRÃO DAS NEVES - COMARCA; RIBEIRAO DAS NEVES-PJ-10PJ 4.332,50 259,95 0,00 2.276,92 0,00 0,00 6.869,37 894,52 522,52 0,00 1.417,04 5.452,33 352,00 1.262,64 31/12/2012
670 303600 EFIGENIO SARAIVA LOPES ANALISTA DO MP ATIVO BELO HORIZONTE - COMARCA; DIRETORIA DE PAGAMENTO DE PESSOAL-DPAG 8.361,90 836,19 0,00 4.599,04 0,00 0,00 13.797,13 2.023,58 2.677,72 0,00 4.701,30 9.095,83 352,00 0,00 31/12/2012
671 312000 ELAINE APARECIDA DE ARAUJO RODRIGUES ASSESSOR/OFICIAL ATIVO DIVINÓPOLIS - COMARCA; DIVINOPOLIS-PJ-02PJ 0,00 2.799,11 5.598,22 4.198,66 0,00 0,00 12.595,99 1.548,37 2.553,07 0,00 4.101,44 8.494,55 352,00 0,00 31/12/2012
672 286000 ELAINE APARECIDA SILVA BERZOINI OFICIAL DO MP ATIVO JUIZ DE FORA - COMARCA; JUIZ DE FORA-PJ-07PJ 5.250,75 525,08 0,00 2.978,95 1.925,28 0,00 10.680,06 1.270,68 1.809,61 0,00 3.080,29 7.599,77 587,00 0,00 31/12/2012
673 509000 ELAINE CANDIDA PONTES OFICIAL DO MP ATIVO BELO HORIZONTE - COMARCA; BH-02PJ FAMILIA-SECRETARIA 2.637,71 0,00 0,00 1.360,43 879,24 0,00 4.877,38 580,30 216,71 0,00 797,01 4.080,37 352,00 0,00 31/12/2012
674 283601 ELAINE CRISTINA MEQUELINO DUARTE ANALISTA DO MP ATIVO ALFENAS - COMARCA; ALFENAS-PJ-04PJ 6.069,59 364,18 0,00 3.216,88 2.144,59 0,00 11.795,24 1.415,42 2.191,99 0,00 3.607,41 8.187,83 587,00 0,00 31/12/2012
675 455700 ELAINE DE OLIVEIRA CASTRO ANALISTA DO MP ATIVO POMPÉU - COMARCA; POMPEU-PJ-UNPJ 4.924,85 0,00 0,00 4.924,85 0,00 0,00 9.849,70 1.083,46 863,61 0,00 1.947,07 7.902,63 352,00 0,00 31/12/2012
676 400600 ELAINE GONCALVES PINHEIRO ANALISTA DO MP ATIVO BELO HORIZONTE - COMARCA; ASSESS JUR DO CONS SUPERIOR DO MINISTERIO PUB 6.069,59 1.213,92 0,00 4.204,49 0,00 0,00 11.488,00 1.602,38 2.018,17 0,00 3.620,55 7.867,45 352,00 0,00 31/12/2012
677 367200 ELAINE MUNIZ BARBOSA FIGUEIREDO ANALISTA DO MP ATIVO BELO HORIZONTE - COMARCA; DIRETORIA DE REDES E BANCOS DE DADOS 7.124,13 712,41 0,00 4.389,55 2.612,18 0,00 14.838,27 1.724,04 3.007,22 0,00 4.731,26 10.107,01 352,00 0,00 31/12/2012
678 176900 ELAINE RIBEIRO TAVEIRA OFICIAL DO MP ATIVO BELO HORIZONTE - COMARCA; DIRETORIA DE PESSOAL ADMINISTRATIVO - DPAD 4.924,85 984,97 0,00 2.954,91 1.969,94 0,00 10.834,67 975,12 1.542,53 0,00 2.517,65 8.317,02 352,00 0,00 31/12/2012
679 496200 ELAINE SABRINA DIAS MOREIRA ANALISTA DO MP ATIVO CORONEL FABRICIANO - COMARCA; CORONEL FABRICIANO-PJ-03PJ 4.473,58 0,00 0,00 2.307,33 0,00 0,00 6.780,91 984,18 662,53 0,00 1.646,71 5.134,20 352,00 0,00 31/12/2012
680 489200 ELAINE VICENTINO GARCIA ANALISTA DO MP ATIVO BELO HORIZONTE - COMARCA; CENTRAL DE APOIO TECNICO-SETOR CONTABIL 4.924,85 984,97 0,00 3.034,46 0,00 0,00 8.944,28 1.354,33 1.390,89 0,00 2.745,22 6.199,06 822,00 1.149,14 31/12/2012
681 244500 ELCI ALVES DE SOUZA ASSESSOR ATIVO BELO HORIZONTE - COMARCA; CAO-DH APOIO COMUNITARIO-SEC ADM 0,00 703,86 3.519,31 2.287,55 0,00 0,00 6.510,72 861,56 577,43 0,00 1.438,99 5.071,73 352,00 0,00 31/12/2012
682 472500 ELCI VAZ DE OLIVEIRA FILHO ANALISTA DO MP ATIVO PIUMHI - COMARCA; PIUMHI-PJ-02PJ 4.924,85 1.477,46 0,00 3.201,15 0,00 0,00 9.603,46 1.408,50 1.586,83 0,00 2.995,33 6.608,13 352,00 0,00 31/12/2012
683 385200 ELCI VIANA REIS OFICIAL DO MP ATIVO RIO PARDO DE MINAS - COMARCA; RIO PARDO DE MINAS-PJ-SECRETARIA 4.332,50 1.299,75 0,00 5.632,25 1.877,42 0,00 13.141,92 1.239,10 1.726,16 0,00 2.965,26 10.176,66 513,28 0,00 31/12/2012
684 289801 ELCIO JOSE DOS SANTOS ANALISTA DO MP ATIVO BELO HORIZONTE - COMARCA; EXTINTA - DIVISAO DE SERVICOS GERAIS 5.421,69 0,00 0,00 2.710,84 0,00 0,00 8.132,53 894,58 821,59 0,00 1.716,17 6.416,36 352,00 0,00 31/12/2012
685 123000 ELCIO VILHENA DE FARIA OFICIAL DO MP ATIVO BELO HORIZONTE - COMARCA; ARQUIVO DO MINISTERIO PUBLICO DO ESTADO DE MG 9.814,62 7.851,70 0,00 8.833,16 5.888,77 0,00 32.388,25 3.886,60 8.719,96 0,00 12.606,56 19.781,69 352,00 0,00 31/12/2012
686 503200 ELDER GOMES DUTRA ANALISTA DO MP ATIVO IGARAPÉ - COMARCA; IGARAPE-PJ-01PJ 4.924,85 0,00 0,00 2.540,08 0,00 0,00 7.464,93 1.083,46 863,61 0,00 1.947,07 5.517,86 352,00 0,00 31/12/2012
687 319600 ELEN TULER DE ALBERGARIA ANALISTA DO MP ATIVO BELO HORIZONTE - COMARCA; BH-19PJ SAUDE 6.069,59 1.213,92 0,00 3.526,91 0,00 0,00 10.810,42 1.652,90 1.961,96 0,00 3.614,86 7.195,56 587,00 689,04 31/12/2012
688 333100 ELENILDA ROCHA DE MORAES MELO OFICIAL DO MP ATIVO ALÉM PARAÍBA - COMARCA; ALEM PARAIBA-PJ-02PJ 3.811,39 381,14 0,00 2.162,38 0,00 0,00 6.354,91 922,36 400,86 0,00 1.323,22 5.031,69 352,00 0,00 31/12/2012
689 151000 ELI LOURENCO RIBEIRO AGENTE DO MP ATIVO BELO HORIZONTE - COMARCA; BH-17PJ PATRIMONIO PUBLICO-SECRETARIA 5.598,22 1.679,47 0,00 3.638,84 2.425,90 0,00 13.342,43 1.601,10 1.691,16 0,00 3.292,26 10.050,17 352,00 0,00 31/12/2012
690 205500 ELIANA ALVES DE SOUSA OFICIAL DO MP ATIVO GOVERNADOR VALADARES - COMARCA; GOVERNADOR VALADARES-PJ-07PJ 4.619,20 923,84 0,00 2.771,52 1.847,68 0,00 10.162,24 1.219,46 1.674,32 0,00 2.893,78 7.268,46 352,00 0,00 31/12/2012
691 301700 ELIANA DA SILVEIRA ANALISTA DO MP ATIVO BELO HORIZONTE - COMARCA; ASSESS TECNICO-JUR JUNTO AS PROC. DE JUST 7.356,10 735,61 0,00 3.918,27 2.697,24 0,00 14.707,22 1.836,32 3.000,52 0,00 4.836,84 9.870,38 352,00 765,51 31/12/2012
692 103400 ELIANA DE FARIA MORAIS JOTTA OFICIAL DO MP ATIVO BELO HORIZONTE - COMARCA; DIRET DE PESSOAL DO MINISTERIO PUBLICO - DPMP 16.922,34 6.768,93 0,00 11.845,63 0,00 0,00 35.536,90 5.212,08 9.772,13 0,00 14.984,21 20.552,69 352,00 0,00 31/12/2012
693 251500 ELIANA DE LIMA MILAGRES FONSECA ANALISTA DO MP ATIVO CONTAGEM - COMARCA; CONTAGEM-PJ-17PJ 7.356,10 1.471,22 0,00 4.909,05 2.942,44 0,00 16.678,81 1.980,86 3.484,37 0,00 5.465,23 11.213,58 352,00 353,12 31/12/2012
694 503900 ELIANA DIAS DUTRA FERREIRA OFICIAL DO MP ATIVO GOVERNADOR VALADARES - COMARCA; GOVERNADOR VALADARES-PJ-10PJ 3.196,81 0,00 0,00 1.648,81 1.065,60 0,00 5.911,22 533,02 218,78 0,00 751,80 5.159,42 587,00 0,00 31/12/2012
695 413900 ELIANA PINTO DE OLIVEIRA NEVES ANALISTA DO MP ATIVO CAMPO BELO - COMARCA; CAMPO BELO-PJ-03PJ 6.069,59 364,18 0,00 2.967,05 2.144,59 0,00 11.545,41 1.490,53 2.069,69 0,00 3.560,22 7.985,19 352,00 1.182,51 31/12/2012
696 228200 ELIANA RODRIGUES DA CUNHA PINHEIRO COORDENADOR/OFICIAL ATIVO BELO HORIZONTE - COMARCA; SUPERINTENDÊNCIA DE ENGENHARIA E ARQUITETURA 0,00 1.841,09 9.205,45 11.046,54 3.682,18 0,00 25.775,26 2.430,24 4.780,23 0,00 7.210,47 18.564,79 352,00 0,00 31/12/2012
697 386600 ELIANA SABINO CHAVES ANALISTA DO MP ATIVO CARATINGA - COMARCA; CARATINGA-PJ-05PJ 5.780,51 2.312,20 0,00 4.046,35 0,00 0,00 12.139,06 1.780,40 2.321,73 0,00 4.102,13 8.036,93 352,00 0,00 31/12/2012
698 297400 ELIANE AUGUSTA RIBEIRO COSTA ANALISTA DO MP ATIVO CONSELHEIRO LAFAIETE - COMARCA; CONSELHEIRO LAFAIETE-PJ-05PJ 8.361,90 836,19 0,00 5.020,53 0,00 0,00 14.218,62 2.023,58 2.677,72 0,00 4.701,30 9.517,32 587,00 0,00 31/12/2012
699 510600 ELIANE CAROLINA MAIA ANALISTA DO MP ATIVO IGARAPÉ - COMARCA; IGARAPE-PJ-02PJ 4.063,61 0,00 0,00 1.967,72 0,00 0,00 6.031,33 920,79 472,66 0,00 1.393,45 4.637,88 822,00 371,69 31/12/2012
700 269300 ELIANE EDLAMAR ROCHA OFICIAL DO MP ATIVO POÇOS DE CALDAS - COMARCA; POCOS DE CALDAS-PJ-05PJ 4.769,54 476,95 0,00 2.938,76 1.748,83 0,00 9.934,08 900,37 1.241,90 0,00 2.142,27 7.791,81 352,00 0,00 31/12/2012
701 359100 ELIANE FARIAS DE OLIVEIRA ASSESSOR ATIVO BELO HORIZONTE - COMARCA; EXTINTA-TUTELA DAS FUNDACOES-21 PJ- GABINETE 0,00 0,00 2.107,81 1.053,90 0,00 0,00 3.161,71 502,44 27,40 0,00 529,84 2.631,87 352,00 0,00 31/12/2012
702 262600 ELIANE FERREIRA SOARES ASSESSOR ATIVO BELO HORIZONTE - COMARCA; BH-18PJ DIREITOS HUMANOS 0,00 703,86 3.519,31 2.111,58 1.407,72 0,00 7.742,47 861,56 940,59 0,00 1.802,15 5.940,32 587,00 0,00 31/12/2012
703 204400 ELIANE GLAUCE DE QUEIROS MAIA OFICIAL DO MP ATIVO GUANHÃES - COMARCA; GUANHAES-PJ-01PJ 7.124,13 1.424,83 0,00 7.520,70 0,00 0,00 16.069,66 2.107,00 2.385,94 0,00 4.492,94 11.576,72 352,00 3.084,78 31/12/2012
704 91800 ELIANE KAPLER OFICIAL DO MP ATIVO BELO HORIZONTE - COMARCA; SUPERINTENDÊNCIA DE ENGENHARIA E ARQUITETURA 9.205,45 3.682,19 0,00 6.443,82 4.295,88 0,00 23.627,34 2.835,28 5.757,66 0,00 8.592,94 15.034,40 822,00 0,00 31/12/2012
705 334200 ELIANE MARCIA DE OLIVEIRA BRITO OFICIAL DO MP ATIVO BELO HORIZONTE - COMARCA; BH-09PJ AUDITORIA MILITAR 3.811,39 381,14 0,00 2.162,38 0,00 0,00 6.354,91 922,36 549,95 0,00 1.472,31 4.882,60 352,00 0,00 31/12/2012
706 365900 ELIANE MARIA DE OLIVEIRA FERREIRA OFICIAL DO MP ATIVO SETE LAGOAS - COMARCA; SETE LAGOAS-PJ-SECRETARIA 4.619,20 1.385,76 0,00 2.907,82 2.001,65 0,00 10.914,43 1.362,74 1.896,44 0,00 3.259,18 7.655,25 352,00 567,93 31/12/2012
707 320600 ELIANE STADLER DE SOUZA OFICIAL DO MP ATIVO FRANCISCO SÁ - COMARCA; FRANCISCO SA-PJ-SECRETARIA 4.473,58 447,36 0,00 2.460,47 0,00 0,00 7.381,41 1.082,60 772,35 0,00 1.854,95 5.526,46 352,00 0,00 31/12/2012
708 448900 ELIAS PEREIRA OTONI ASSESSOR ATIVO BELO HORIZONTE - COMARCA; EXTINTA - DIVISAO DE TRANSPORTES 0,00 0,00 2.107,81 1.053,90 702,60 0,00 3.864,31 502,44 80,10 0,00 582,54 3.281,77 352,00 0,00 31/12/2012
709 495400 ELICA SOUZA GASPARONI MATTOS OFICIAL DO MP ATIVO UBÁ - COMARCA; UBA-PJ-SECRETARIA 2.637,71 0,00 0,00 1.360,43 0,00 0,00 3.998,14 439,80 77,18 0,00 516,98 3.481,16 352,00 0,00 31/12/2012
710 86600 ELIENE FERREIRA DA SILVA OFICIAL DO MP ATIVO BELO HORIZONTE - COMARCA; BH-22PJ PES COM DEF E IDOSOS 14.488,11 7.244,05 0,00 10.866,08 7.244,05 0,00 39.842,29 4.781,08 10.990,35 0,00 15.771,43 24.070,86 4.037,68 294,77 31/12/2012
711 183800 ELIENE MARIA CUNHA OFICIAL DO MP ATIVO BELO HORIZONTE - COMARCA; DIRETORIA DE PESSOAL ADMINISTRATIVO - DPAD 7.356,10 1.471,22 0,00 4.274,48 2.942,44 0,00 16.044,24 2.003,26 3.422,35 0,00 5.425,61 10.618,63 352,00 835,08 31/12/2012
712 172300 ELINA APARECIDA SILVA ASSESSOR ATIVO BELO HORIZONTE - COMARCA; BH-19PJ SAUDE 0,00 421,56 2.107,81 1.264,68 843,12 0,00 4.637,17 595,18 107,51 0,00 702,69 3.934,48 587,00 0,00 31/12/2012
713 492500 ELINE CAMPOS DA FONSECA CUNHA ANALISTA DO MP ATIVO CAPELINHA - COMARCA; CAPELINHA-PJ-02PJ 4.063,61 0,00 0,00 2.095,89 0,00 0,00 6.159,50 677,55 380,37 0,00 1.057,92 5.101,58 587,00 0,00 31/12/2012
714 256500 ELISABETE NOGUEIRA ANALISTA DO MP ATIVO BELO HORIZONTE - COMARCA; BH-21PJ TUTELA DAS FUNDACOES-ASS CURADORES 7.124,13 2.137,24 0,00 4.776,71 3.087,12 0,00 17.125,20 2.037,50 3.650,20 0,00 5.687,70 11.437,50 587,00 0,00 31/12/2012
715 355000 ELISANGELA DARLANTONI RIBEIRO OFICIAL DO MP ATIVO ARAXÁ - COMARCA; ARAXA-PJ-05PJ 3.691,17 369,12 0,00 2.185,68 1.353,43 0,00 7.599,40 893,26 836,29 0,00 1.729,55 5.869,85 587,00 0,00 31/12/2012
716 323800 ELISANGELA GONCALVES DE JESUS OFICIAL DO MP ATIVO BELO HORIZONTE - COMARCA; CAO-TS-TERCEIRO SETOR-SECRETARIA 3.811,39 381,14 0,00 2.096,26 1.397,51 0,00 7.686,30 922,36 907,26 0,00 1.829,62 5.856,68 352,00 0,00 31/12/2012
717 261400 ELISANGELA MENDES OFICIAL DO MP ATIVO POUSO ALEGRE - COMARCA; POUSO ALEGRE-PJ-05PJ 4.924,85 492,49 0,00 2.623,24 1.805,78 0,00 9.846,36 1.229,39 1.559,45 0,00 2.788,84 7.057,52 352,00 512,52 31/12/2012
718 507400 ELISANGELA MIGUEL DA ROCHA ASSESSOR ATIVO BELO HORIZONTE - COMARCA; CGMP-DIVIS DE APOIO FISC ORIENTACAO FUNCIONAL 0,00 0,00 2.107,81 2.107,81 0,00 0,00 4.215,62 579,73 21,61 0,00 601,34 3.614,28 352,00 0,00 31/12/2012
719 461700 ELIZABETH ALEIXO DA PAZ ANALISTA DO MP ATIVO JUIZ DE FORA - COMARCA; JUIZ DE FORA-PJ-24PJ 5.421,69 0,00 0,00 2.688,06 0,00 0,00 8.109,75 1.296,61 985,21 0,00 2.281,82 5.827,93 352,00 1.440,84 31/12/2012
720 198100 ELIZABETH CARDOSO CAMPOS OFICIAL DO MP ATIVO PIUMHI - COMARCA; PIUMHI-PJ-02PJ 5.598,22 4.478,58 0,00 5.038,40 0,00 1.108,45 16.223,65 2.216,90 3.995,13 0,00 6.212,03 10.011,62 352,00 1.108,45 31/12/2012
721 227300 ELIZABETH COIMBRA FELIX ASSESSOR/OFICIAL ATIVO BELO HORIZONTE - COMARCA; DIRETORIA DE PAGAMENTO DE PESSOAL-DPAG 0,00 2.352,85 7.842,84 5.097,84 3.398,56 0,00 18.692,09 1.454,38 4.317,54 0,00 5.771,92 12.920,17 352,00 0,00 31/12/2012
722 354800 ELIZABETH DOS REIS OFICIAL DO MP ATIVO BELO HORIZONTE - COMARCA; EXTINTA - DIVISÃO DE MATERIAL PERMANENTE 4.619,20 461,92 0,00 2.460,47 0,00 0,00 7.541,59 1.153,08 808,35 0,00 1.961,43 5.580,16 352,00 533,93 31/12/2012
723 452800 ELIZANGELA MARIA DAVI OFICIAL DO MP ATIVO ARCOS - COMARCA; ARCOS-PJ-01PJ 2.903,86 0,00 0,00 1.585,00 0,00 0,00 4.488,86 493,76 121,29 0,00 615,05 3.873,81 587,00 0,00 31/12/2012
724 496300 ELIZANGELA MARQUES PINTO COELHO OFICIAL DO MP ATIVO BELO HORIZONTE - COMARCA; DIRETORIA DE PESSOAL ADMINISTRATIVO - DPAD 2.903,86 0,00 0,00 1.626,58 967,95 0,00 5.498,39 638,84 303,16 0,00 942,00 4.556,39 352,00 0,00 31/12/2012
725 422500 ELIZETE FORTES DA CUNHA ANALISTA DO MP ATIVO RIBEIRÃO DAS NEVES - COMARCA; RIBEIRAO DAS NEVES-PJ-01PJ 5.598,22 335,89 0,00 3.238,94 0,00 0,00 9.173,05 1.305,50 1.357,63 0,00 2.663,13 6.509,92 587,00 0,00 31/12/2012
726 506100 ELLEM CRISTINA ROCHA FONSECA BOWEN ANALISTA DO MP ATIVO GOVERNADOR VALADARES - COMARCA; COORD REG PJ DEF EDU DIR CRIANCA ADOL RIODOCE 3.935,44 0,00 0,00 1.967,72 0,00 0,00 5.903,16 865,80 446,99 0,00 1.312,79 4.590,37 822,00 0,00 31/12/2012
727 468200 ELLEN CRISTINA BERNARDES DARE ANALISTA DO MP ATIVO TRÊS PONTAS - COMARCA; TRES PONTAS-PJ-02PJ 5.421,69 0,00 0,00 2.688,06 1.807,23 0,00 9.916,98 1.358,76 1.709,67 0,00 3.068,43 6.848,55 2.520,68 2.370,30 31/12/2012
728 418800 ELLEN CRISTINA DE QUEIROZ FERREIRA ANALISTA DO MP ATIVO BELO HORIZONTE - COMARCA; CENTRAL DE APOIO TECNICO-SETOR CONTABIL 5.598,22 335,89 0,00 2.967,05 1.978,04 0,00 10.879,20 979,12 1.553,68 0,00 2.532,80 8.346,40 352,00 0,00 31/12/2012
729 328401 ELLEN CRISTINA FERREIRA MORAIS MONTEIRO ANALISTA DO MP ATIVO CAMANDUCAIA - COMARCA; CAMANDUCAIA-PJ-UNPJ 6.069,59 364,18 0,00 5.934,11 2.144,59 0,00 14.512,47 1.477,71 1.884,61 0,00 3.362,32 11.150,15 587,00 1.065,92 31/12/2012
730 447100 ELLEN ROSANA DE MACEDO BORGES OFICIAL DO MP ATIVO UBERLÂNDIA - COMARCA; UBERLANDIA-PJ-17PJ 3.519,31 211,16 0,00 1.759,65 0,00 0,00 5.490,12 820,70 340,45 0,00 1.161,15 4.328,97 352,00 211,16 31/12/2012
731 477700 ELMA JACOB OFICIAL DO MP ATIVO BELO HORIZONTE - COMARCA; CAO-CRIANCAS E ADOLESCENTES 2.637,71 1.318,85 0,00 1.978,27 1.318,85 0,00 7.253,68 870,44 780,62 0,00 1.651,06 5.602,62 352,00 0,00 31/12/2012
732 123300 ELMA PAULA DOS SANTOS COELHO OFICIAL DO MP ATIVO BELO HORIZONTE - COMARCA; BH-19PJ SAUDE 8.361,90 6.689,52 0,00 7.525,71 5.017,14 1.655,66 29.249,93 3.311,32 7.925,79 0,00 11.237,11 18.012,82 352,00 1.655,66 31/12/2012
733 356500 ELOISA CARDOSO SILVA FRANCA OFICIAL DO MP ATIVO PEÇANHA - COMARCA; PECANHA-PJ-SECRETARIA 3.691,17 369,12 0,00 4.060,29 1.353,43 0,00 9.474,01 893,26 836,29 0,00 1.729,55 7.744,46 352,00 0,00 31/12/2012
734 251901 ELOISA COSTA E SILVA ANALISTA DO MP ATIVO SANTOS DUMONT - COMARCA; SANTOS DUMONT-PJ-02PJ 4.924,85 984,97 0,00 3.286,57 1.969,94 0,00 11.166,33 1.300,16 1.887,48 0,00 3.187,64 7.978,69 352,00 0,00 31/12/2012
735 400400 ELOIZA MARIA FERRI PIRES DA SILVA OFICIAL DO MP ATIVO BELO HORIZONTE - COMARCA; EXTINTA - DIRETORIA DE COMPRAS E LICITAÇÕES 3.574,80 214,49 0,00 2.039,81 1.263,10 0,00 7.092,20 955,12 881,58 0,00 1.836,70 5.255,50 352,00 1.104,32 31/12/2012
736 258000 ELSO CECIANO PALMEIRA ASSESSOR/OFICIAL ATIVO BELO HORIZONTE - COMARCA; DIRET DE PESSOAL DO MINISTERIO PUBLICO - DPMP 0,00 2.849,66 7.124,13 4.986,90 3.324,60 0,00 18.285,29 1.669,88 4.115,88 0,00 5.785,76 12.499,53 352,00 0,00 31/12/2012
737 206900 ELVIRA RITA DOS SANTOS ANALISTA DO MP ATIVO BELO HORIZONTE - COMARCA; CENTRAL DE APOIO TECNICO-SETOR CONTABIL 10.464,02 2.092,80 0,00 6.278,41 4.185,61 0,00 23.020,84 2.762,50 5.750,49 0,00 8.512,99 14.507,85 352,00 0,00 31/12/2012
738 506800 ELVIS FERREIRA DA SILVA ANALISTA DO MP ATIVO BELO HORIZONTE - COMARCA; DIRETORIA DE SISTEMAS DE INFORMACAO 4.924,85 0,00 0,00 2.758,60 0,00 0,00 7.683,45 1.083,46 774,08 0,00 1.857,54 5.825,91 352,00 0,00 31/12/2012
739 154300 ELZA MARIA DA SILVA OFICIAL DO MP ATIVO ERVÁLIA - COMARCA; ERVALIA-PJ-SECRETARIA 6.267,25 4.387,09 0,00 5.327,17 3.551,45 1.171,98 20.704,94 1.757,97 4.062,88 0,00 5.820,85 14.884,09 352,00 585,99 31/12/2012
740 206600 ELZA MARIA GONTIJO DE MAGALHAES GOMES ANALISTA DO MP ATIVO BELO HORIZONTE - COMARCA; DIVISAO DE ACERVOS BIBLIOGRAFICOS 8.361,90 1.672,38 0,00 4.858,92 3.344,76 1.173,39 19.411,35 2.277,16 4.823,68 0,00 7.100,84 12.310,51 352,00 2.018,28 31/12/2012
741 368401 ELZIRA SIMOES DOS SANTOS ASSESSOR ATIVO BELO HORIZONTE - COMARCA; DIRETORIA DE RELACOES PUBLICAS E CERIMONIAL 0,00 0,00 7.124,13 3.562,06 0,00 0,00 10.686,19 861,56 2.134,23 0,00 2.995,79 7.690,40 352,00 0,00 31/12/2012
742 437400 EMANOELLE DA SILVA RODRIGUES OFICIAL DO MP ATIVO UNAÍ - COMARCA; UNAI-PJ-03PJ 3.574,80 214,49 0,00 2.029,63 0,00 0,00 5.818,92 833,64 333,87 0,00 1.167,51 4.651,41 352,00 0,00 31/12/2012
743 458900 EMANUELLE CONRAD SILVA FREDERICO ANALISTA DO MP ATIVO DIVINÓPOLIS - COMARCA; DIVINOPOLIS-PJ-08PJ 5.421,69 0,00 0,00 2.959,26 1.807,23 0,00 10.188,18 1.192,78 1.603,80 0,00 2.796,58 7.391,60 352,00 0,00 31/12/2012
744 284100 EMERSON MAGNO ALMEIDA PEDROSA DA FONSECA ANALISTA DO MP ATIVO BELO HORIZONTE - COMARCA; CENTRAL DE APOIO TECNICO-SETOR CONTABIL 8.361,90 836,19 0,00 5.020,53 3.066,03 0,00 17.284,65 2.023,58 3.428,33 0,00 5.451,91 11.832,74 822,00 0,00 31/12/2012
745 179900 EMERSON MORAIS DIAS OFICIAL DO MP ATIVO BELO HORIZONTE - COMARCA; EXTINTA - DIVISÃO DE APOIO À LICITAÇÃO 7.356,10 1.471,22 0,00 4.413,66 0,00 0,00 13.240,98 1.942,02 2.773,87 0,00 4.715,89 8.525,09 352,00 0,00 31/12/2012
746 488700 EMERSON SIQUEIRA DE SOUSA TEIXEIRA ANALISTA DO MP ATIVO TARUMIRIM - COMARCA; TARUMIRIM-PJ-UNPJ 4.924,85 0,00 0,00 2.540,08 0,00 0,00 7.464,93 1.083,46 691,82 0,00 1.775,28 5.689,65 822,00 0,00 31/12/2012
747 194200 EMILIA ALVES FERREIRA RAMOS OFICIAL DO MP ATIVO UBERLÂNDIA - COMARCA; UBERLANDIA-PJ-04PJ 4.195,87 839,17 0,00 2.517,52 0,00 0,00 7.552,56 1.107,70 739,17 0,00 1.846,87 5.705,69 352,00 0,00 31/12/2012
748 123400 EMILIO CARLOS MARTINS OFICIAL DO MP ATIVO AREADO - COMARCA; AREADO-PJ-UNPJ 8.634,11 6.043,87 0,00 14.677,98 0,00 0,00 29.355,96 3.229,16 5.545,21 0,00 8.774,37 20.581,59 1.704,51 123,98 31/12/2012
749 297000 ENEIDA SOARES COSTA MELO ANALISTA DO MP ATIVO PIUMHI - COMARCA; PIUMHI-PJ-01PJ 8.361,90 836,19 0,00 5.020,53 3.066,03 0,00 17.284,65 2.023,58 3.798,51 0,00 5.822,09 11.462,56 352,00 0,00 31/12/2012
750 387700 ENI MARIA DOS REIS OFICIAL DO MP ATIVO POUSO ALEGRE - COMARCA; POUSO ALEGRE-PJ-03PJ 4.332,50 259,95 0,00 1.894,64 0,00 0,00 6.487,09 1.006,66 391,13 0,00 1.397,79 5.089,30 352,00 2.664,34 31/12/2012
751 417300 ERIC BARATTI DA SILVA ANALISTA DO MP ATIVO PRATA - COMARCA; PRATA-PJ-UNPJ 5.598,22 335,89 0,00 3.461,56 0,00 0,00 9.395,67 979,12 1.009,71 0,00 1.988,83 7.406,84 352,00 0,00 31/12/2012
752 398900 ERIC TEIXEIRA SILVA OFICIAL DO MP ATIVO UBERLÂNDIA - COMARCA; UBERLANDIA-PJ-08PJ 3.574,80 214,49 0,00 1.894,64 0,00 0,00 5.683,93 833,64 391,93 0,00 1.225,57 4.458,36 352,00 0,00 31/12/2012
753 274200 ERICA DE SOUZA ANDRADE OFICIAL DO MP ATIVO BELO HORIZONTE - COMARCA; BH-18PJ DIREITOS HUMANOS 5.085,23 508,52 0,00 2.796,87 1.864,58 0,00 10.255,20 1.230,62 1.703,79 0,00 2.934,41 7.320,79 352,00 0,00 31/12/2012
754 225700 ERICA GOMES DO COUTO OFICIAL DO MP ATIVO BELO HORIZONTE - COMARCA; BH-18PJ VIOLENCIA DOMESTICA 5.878,19 1.175,64 0,00 3.585,52 2.351,28 0,00 12.990,63 1.551,84 2.552,35 0,00 4.104,19 8.886,44 352,00 0,00 31/12/2012
755 524800 ERICA MACHADO DA COSTA E SOUZA ANALISTA DO MP ATIVO BELO HORIZONTE - COMARCA; BH-02PJ FAMILIA 4.332,50 0,00 0,00 2.166,25 0,00 0,00 6.498,75 913,45 533,71 0,00 1.447,16 5.051,59 352,00 0,00 31/12/2012
756 249500 ERICA RODRIGUES ANDRADE OFICIAL DO MP ATIVO SÃO FRANCISCO - COMARCA; SAO FRANCISCO-PJ-02PJ 4.195,87 839,17 0,00 2.727,31 1.678,35 0,00 9.440,70 1.107,70 1.379,09 0,00 2.486,79 6.953,91 587,00 0,00 31/12/2012
757 260800 ERICA VIANA GIARDINI DE OLIVEIRA OFICIAL DO MP ATIVO BELO HORIZONTE - COMARCA; EXTINTA - DIVISÃO DE COMPRAS 5.598,22 559,82 0,00 3.361,16 2.052,68 0,00 11.571,88 1.354,76 2.031,74 0,00 3.386,50 8.185,38 352,00 0,00 31/12/2012
758 299800 ERICH DOUGLAS RIBEIRO GARCIA ANALISTA DO MP ATIVO BELO HORIZONTE - COMARCA; CENTRAL DE APOIO TECNICO-SETOR CONTABIL 7.595,56 759,56 0,00 4.177,56 0,00 0,00 12.532,68 1.838,12 2.542,73 0,00 4.380,85 8.151,83 352,00 0,00 31/12/2012
759 365000 ERICK EDUARDO JOSE DA SILVA OFICIAL DO MP ATIVO ALÉM PARAÍBA - COMARCA; ALEM PARAIBA-PJ-01PJ 3.691,17 369,12 0,00 2.185,68 0,00 0,00 6.245,97 893,26 496,99 0,00 1.390,25 4.855,72 352,00 0,00 31/12/2012
760 123500 ERICO SEGISMUNDO LIMA VILASBOAS ANALISTA DO MP ATIVO MONTES CLAROS - COMARCA; COORD REG PJ DEF EDUC DIR CRIANCA ADOL NORTE 11.931,59 9.545,28 0,00 10.738,43 0,00 0,00 32.215,30 3.543,69 6.366,25 0,00 9.909,94 22.305,36 352,00 0,00 31/12/2012
761 227400 ERIKA DE LAET GOULART BOECHAT ASSESSOR/OFICIAL ATIVO BELO HORIZONTE - COMARCA; NUCLEO DE APOIO A ATIVIDADE-FIM 0,00 1.424,83 7.124,13 4.274,48 0,00 0,00 12.823,44 1.551,84 2.728,07 0,00 4.279,91 8.543,53 352,00 0,00 31/12/2012
762 451800 ERIKA DELLARETTI GUIMARAES OFICIAL DO MP ATIVO LAVRAS - COMARCA; LAVRAS-PJ-04PJ 2.903,86 0,00 0,00 2.903,86 0,00 0,00 5.807,72 638,84 147,94 0,00 786,78 5.020,94 352,00 0,00 31/12/2012
763 285100 ERIKA FERREIRA DA SILVA OFICIAL DO MP ATIVO JUIZ DE FORA - COMARCA; JUIZ DE FORA-PJ-14PJ 5.085,23 508,52 0,00 2.796,87 0,00 0,00 8.390,62 1.230,62 1.191,03 0,00 2.421,65 5.968,97 352,00 0,00 31/12/2012
764 420100 ERIKA JEANINE VERSIANI DE CASTRO ANALISTA DO MP ATIVO MONTES CLAROS - COMARCA; COORD REG PJ DEF EDUC DIR CRIANCA ADOL NORTE 5.598,22 335,89 0,00 2.967,05 1.978,04 0,00 10.879,20 1.417,42 2.150,60 0,00 3.568,02 7.311,18 352,00 1.017,40 31/12/2012
765 491000 ERIKA ROCHA PEREIRA E SILVA ANALISTA DO MP ATIVO BELO HORIZONTE - COMARCA; DIRETORIA DE SISTEMAS DE INFORMACAO 4.924,85 0,00 0,00 2.540,08 0,00 0,00 7.464,93 1.083,46 863,61 0,00 1.947,07 5.517,86 352,00 0,00 31/12/2012
766 283201 ERIKA STEHLING ASSESSOR/ANALISTA ATIVO BELO HORIZONTE - COMARCA; CENTRAL DE APOIO TECNICO-SETOR DE ENGENHARIA 0,00 0,00 7.124,13 3.562,06 0,00 0,00 10.686,19 821,13 1.544,04 0,00 2.365,17 8.321,02 352,00 0,00 31/12/2012
767 383500 ERIKO RODRIGUES VELOSO ANALISTA DO MP ATIVO BOCAIÚVA - COMARCA; BOCAIUVA-PJ-01PJ 5.085,23 305,11 0,00 2.695,17 1.796,78 0,00 9.882,29 1.185,88 1.585,58 0,00 2.771,46 7.110,83 352,00 0,00 31/12/2012
768 254000 ERLANDIA DA SILVA MENDES OFICIAL DO MP ATIVO IPATINGA - COMARCA; IPATINGA-PJ-03PJ 5.421,69 1.626,51 0,00 3.412,99 2.349,40 0,00 12.810,59 1.599,49 2.217,05 0,00 3.816,54 8.994,05 822,00 666,66 31/12/2012
769 208600 ERNANE JOSE DA COSTA ANALISTA DO MP ATIVO BELO HORIZONTE - COMARCA; CENTRAL DE APOIO TECNICO-SETOR MEDICO 10.464,02 5.232,01 0,00 15.696,03 0,00 0,00 31.392,06 3.453,12 6.136,09 0,00 9.589,21 21.802,85 352,00 0,00 31/12/2012
770 260600 ERNANI CALDEIRA DE ANDRADE ANALISTA DO MP ATIVO BELO HORIZONTE - COMARCA; CENTRAL DE APOIO TECNICO-SETOR CONTABIL 9.205,45 1.841,09 0,00 6.029,40 3.682,18 0,00 20.758,12 2.430,24 4.780,23 0,00 7.210,47 13.547,65 352,00 0,00 31/12/2012
771 348500 ERNILANDIA OLIVEIRA DIAS OFICIAL DO MP ATIVO BELO HORIZONTE - COMARCA; EXTINTA - JUIZO DE FAMILIA-02 PJ-02 VARA 4.332,50 433,25 0,00 4.469,97 0,00 0,00 9.235,72 1.113,54 720,30 0,00 1.833,84 7.401,88 352,00 887,34 31/12/2012
772 199300 ERTON PORTINARI DE ANDRADE OFICIAL DO MP ATIVO SETE LAGOAS - COMARCA; SETE LAGOAS-PJ-01PJ 7.124,13 2.137,24 0,00 4.202,19 3.087,12 0,00 16.550,68 2.462,47 3.719,42 0,00 6.181,89 10.368,79 587,00 4.977,32 31/12/2012
773 430400 ESDRAS SOARES VILAS BOAS RIBEIRO OFICIAL DO MP ATIVO BELO HORIZONTE - COMARCA; BH-17PJ PATRIMONIO PUBLICO-SECRETARIA 3.574,80 214,49 0,00 2.200,15 0,00 0,00 5.989,44 833,64 391,93 0,00 1.225,57 4.763,87 352,00 0,00 31/12/2012
774 326900 ESTER ALICE PIMENTA OFICIAL DO MP ATIVO BELO HORIZONTE - COMARCA; COORD DE INCLUSAO E MOBILIZACAO SOCIAIS 3.811,39 381,14 0,00 2.096,26 1.397,51 0,00 7.686,30 922,36 822,94 0,00 1.745,30 5.941,00 352,00 0,00 31/12/2012
775 503700 ESTHER GONCALVES FONSECA ANALISTA DO MP ATIVO BELO HORIZONTE - COMARCA; DIRETORIA DE PUBLICIDADE INSTITUCIONAL 4.063,61 0,00 0,00 2.095,89 0,00 0,00 6.159,50 894,00 498,33 0,00 1.392,33 4.767,17 352,00 0,00 31/12/2012
776 475600 ETIENE DE FATIMA OLIVEIRA PEREIRA ANALISTA DO MP ATIVO PATROCÍNIO - COMARCA; PATROCINIO-PJ-04PJ 4.473,58 0,00 0,00 2.441,77 0,00 0,00 6.915,35 984,18 662,53 0,00 1.646,71 5.268,64 352,00 0,00 31/12/2012
777 428800 EUGENIA RODRIGUES TRAJANO BORGES ANALISTA DO MP ATIVO UBERABA - COMARCA; UBERABA-PJ-08PJ 5.085,23 305,11 0,00 2.695,17 0,00 0,00 8.085,51 1.185,88 1.091,47 0,00 2.277,35 5.808,16 352,00 0,00 31/12/2012
778 272700 EUGENIO DE BARCELOS FILHO OFICIAL DO MP ATIVO FRUTAL - COMARCA; FRUTAL-PJ-02PJ 4.332,50 433,25 0,00 2.307,73 1.588,58 0,00 8.662,06 1.081,52 1.100,48 0,00 2.182,00 6.480,06 352,00 450,87 31/12/2012
779 254100 EULALIA ALVES MIRANDA LUCAS OFICIAL DO MP ATIVO ALMENARA - COMARCA; ALMENARA-PJ-SECRETARIA 5.085,23 1.017,05 0,00 3.305,40 0,00 0,00 9.407,68 1.342,50 1.162,32 0,00 2.504,82 6.902,86 352,00 0,00 31/12/2012
780 225800 EURO CESAR VIEIRA BARBOSA ANALISTA DO MP ATIVO BELO HORIZONTE - COMARCA; AUDITORIA INTERNA 9.814,62 1.962,92 0,00 6.074,44 0,00 0,00 17.851,98 2.591,06 4.125,45 0,00 6.716,51 11.135,47 587,00 0,00 31/12/2012
781 199400 EUSTAQUIO ADAILTON LIMA E SILVA OFICIAL DO MP ATIVO MANGA - COMARCA; MANGA-PJ-01PJ 7.124,13 2.849,65 0,00 5.443,88 0,00 0,00 15.417,66 1.695,95 2.394,87 0,00 4.090,82 11.326,84 587,00 0,00 31/12/2012
782 249000 EUSTAQUIO GOMES DE OLIVEIRA OFICIAL DO MP ATIVO BELO HORIZONTE - COMARCA; CAO-TS-CONTROLADORIA E APOIO AS ENTIDADES  5.598,22 2.239,29 0,00 4.532,11 0,00 0,00 12.369,62 1.724,26 2.104,26 0,00 3.828,52 8.541,10 1.039,96 63,06 31/12/2012
783 67100 EVA DAS DORES BARROS VALGAS ANALISTA DO MP ATIVO FERROS - COMARCA; FERROS-PJ-SECRETARIA 11.477,24 5.738,62 0,00 8.607,93 5.738,62 0,00 31.562,41 3.787,48 8.180,54 0,00 11.968,02 19.594,39 352,00 0,00 31/12/2012
784 517000 EVALDO SENA COSTA FILHO ANALISTA DO MP ATIVO CONTAGEM - COMARCA; CONTAGEM-PJ-21PJ 3.935,44 787,09 0,00 2.361,26 0,00 0,00 7.083,79 1.038,96 768,00 0,00 1.806,96 5.276,83 3.802,68 241,18 31/12/2012
785 217500 EVELANGE LEAO RABELO ASSESSOR ATIVO BELO HORIZONTE - COMARCA; COORD EST DEF DIR FAMILIA PESSOA DEFICI IDOSO 0,00 421,56 2.107,81 1.264,68 0,00 0,00 3.794,05 595,18 83,68 0,00 678,86 3.115,19 352,00 0,00 31/12/2012
786 469000 EWERTON CARDOSO DE SA RODRIGUES ANALISTA DO MP ATIVO CAMPO BELO - COMARCA; CAMPO BELO-PJ-01PJ 4.473,58 0,00 0,00 2.236,79 0,00 0,00 6.710,37 984,18 662,53 0,00 1.646,71 5.063,66 352,00 0,00 31/12/2012
787 368900 FABIANA BARBOSA SIQUEIRA OFICIAL DO MP ATIVO BELO HORIZONTE - COMARCA; CAO-ORDEM ECONOMICA E TRIBUTARIA-SECRETARIA 4.473,58 447,36 0,00 2.460,47 0,00 0,00 7.381,41 1.110,44 923,63 0,00 2.034,07 5.347,34 587,00 253,08 31/12/2012
788 273800 FABIANA CARNEIRO AMORIM COORDENADOR/OFICIAL ATIVO BELO HORIZONTE - COMARCA; BH-23PJ INFRACIONAL-COORD ADM INFRACIONAL 0,00 809,82 8.098,20 4.454,01 2.969,34 0,00 16.331,37 1.210,60 3.650,86 0,00 4.861,46 11.469,91 352,00 0,00 31/12/2012
789 519300 FABIANA DE OLIVEIRA LOUREIRO ANALISTA DO MP ATIVO BELO HORIZONTE - COMARCA; BH-09PJ AUDITORIA MILITAR 4.769,54 0,00 0,00 2.603,29 0,00 0,00 7.372,83 1.049,30 788,91 0,00 1.838,21 5.534,62 352,00 0,00 31/12/2012
790 363400 FABIANA DOURADO DUPIN VIEGAS ANALISTA DO MP ATIVO BELO HORIZONTE - COMARCA; PROC. JUSTICA DE HABEAS CORPUS 7.356,10 735,61 0,00 3.918,27 0,00 0,00 12.009,98 1.836,32 2.351,33 0,00 4.187,65 7.822,33 587,00 765,51 31/12/2012
791 410800 FABIANA DUARTE QUITITE ANALISTA DO MP ATIVO BELO HORIZONTE - COMARCA; COORD ESTADUAL COMBATE CRIMES CIBERNETICOS 6.069,59 364,18 0,00 2.967,05 2.144,59 0,00 11.545,41 1.499,69 2.069,69 0,00 3.569,38 7.976,03 352,00 1.265,78 31/12/2012
792 419500 FABIANA EULALIA DOS SANTOS ANALISTA DO MP ATIVO SÃO JOÃO DEL REI - COMARCA; SAO JOAO DEL REI-PJ-01PJ 5.598,22 335,89 0,00 2.967,05 1.978,04 0,00 10.879,20 979,12 1.553,68 0,00 2.532,80 8.346,40 352,00 0,00 31/12/2012
793 376300 FABIANA MATTOSO LEMOS ANALISTA DO MP ATIVO BELO HORIZONTE - COMARCA; COORD-GERAL DAS PJS POR BACIA HIDRO. DE MG 6.069,59 364,18 0,00 3.216,88 0,00 0,00 9.650,65 1.415,42 1.602,23 0,00 3.017,65 6.633,00 352,00 0,00 31/12/2012
794 331500 FABIANA PACHECO OFICIAL DO MP ATIVO GUAXUPÉ - COMARCA; GUAXUPE-PJ-01PJ 4.619,20 461,92 0,00 2.460,47 1.693,71 0,00 9.235,30 1.153,08 1.366,67 0,00 2.519,75 6.715,55 352,00 480,54 31/12/2012
795 510700 FABIANA PEREIRA SANTOS BORGES ANALISTA DO MP ATIVO BELO HORIZONTE - COMARCA; DIRETORIA DE SISTEMAS DE INFORMACAO 4.063,61 0,00 0,00 1.967,72 0,00 0,00 6.031,33 909,98 472,66 0,00 1.382,64 4.648,69 587,00 316,15 31/12/2012
796 181700 FABIANA SOUZA FERREIRA OFICIAL DO MP ATIVO BELO HORIZONTE - COMARCA; BH-23PJ CIVEL-SETOR ATEND PUB 3.778,02 787,09 0,00 2.361,26 1.574,18 0,00 8.500,55 1.038,96 979,76 0,00 2.018,72 6.481,83 587,00 0,00 31/12/2012
797 272900 FABIANA STOCKLER LEITE OFICIAL DO MP ATIVO LAJINHA - COMARCA; LAJINHA-PJ-SECRETARIA 5.085,23 1.525,57 0,00 3.201,15 0,00 0,00 9.811,95 1.500,24 1.452,76 0,00 2.953,00 6.858,95 587,00 625,47 31/12/2012
798 225500 FABIANE DE FATIMA PORTELLA ANALISTA DO MP ATIVO BELO HORIZONTE - COMARCA; SERVICO MEDICO-DEPTO PERIC MEDICA SAUDE OCUP 9.505,17 1.901,03 0,00 5.882,93 3.802,07 0,00 21.091,20 2.509,36 5.081,80 0,00 7.591,16 13.500,04 352,00 0,00 31/12/2012
799 433800 FABIANE DINIZ MATTOS ANALISTA DO MP ATIVO BELO HORIZONTE - COMARCA; BH-23PJ INFRACIONAL-ASS JURIDICA 5.598,22 335,89 0,00 3.223,26 0,00 0,00 9.157,37 1.305,50 1.357,63 0,00 2.663,13 6.494,24 352,00 0,00 31/12/2012
800 455000 FABIANO CARVALHO DA SILVA ANALISTA DO MP ATIVO LAVRAS - COMARCA; COORD REG DO MA DA BACIA DO RIO GRANDE 5.421,69 0,00 0,00 2.959,26 0,00 0,00 8.380,95 1.192,78 1.106,81 0,00 2.299,59 6.081,36 389,33 3,42 31/12/2012
801 498800 FABIANO FURTADO PESSOA COELHO ANALISTA DO MP ATIVO BELO HORIZONTE - COMARCA; DIRETORIA DE REDES E BANCOS DE DADOS 4.473,58 0,00 0,00 2.307,33 0,00 0,00 6.780,91 984,18 586,80 0,00 1.570,98 5.209,93 587,00 0,00 31/12/2012
802 394600 FABIANO PALHARES SILVA ANALISTA DO MP ATIVO BELO HORIZONTE - COMARCA; CENTRAL DE APOIO TECN-SETOR DE MEIO AMBIENTE 6.069,59 364,18 0,00 3.216,88 0,00 0,00 9.650,65 1.415,42 1.602,23 0,00 3.017,65 6.633,00 587,00 0,00 31/12/2012
803 444400 FABIANO SARAIVA MEDEIROS ANALISTA DO MP ATIVO BETIM - COMARCA; BETIM-PJ-11PJ 5.421,69 325,30 0,00 2.710,84 1.915,66 0,00 10.373,49 1.264,34 1.620,68 0,00 2.885,02 7.488,47 587,00 325,30 31/12/2012
804 408700 FABIANO SOARES PORTILHO ANALISTA DO MP ATIVO VIÇOSA - COMARCA; VICOSA-PJ-SECRETARIA 5.598,22 335,89 0,00 2.695,17 1.978,04 0,00 10.607,32 1.415,16 1.768,52 0,00 3.183,68 7.423,64 352,00 1.540,68 31/12/2012
805 384301 FABIO BRUNO DA SILVA ANALISTA DO MP ATIVO BONFIM - COMARCA; BONFIM-PJ-UNPJ 5.085,23 305,11 0,00 2.695,17 0,00 0,00 8.085,51 1.185,88 1.091,47 0,00 2.277,35 5.808,16 352,00 0,00 31/12/2012
806 442600 FABIO CARVALHO ANALISTA DO MP ATIVO BELO HORIZONTE - COMARCA; BH-09PJ AUDITORIA MILITAR 4.473,58 268,41 0,00 2.236,79 1.580,66 0,00 8.559,44 1.043,24 1.148,39 0,00 2.191,63 6.367,81 352,00 268,41 31/12/2012
807 123700 FABIO JOSE ANDRADE NOGUEIRA OFICIAL DO MP ATIVO FORMIGA - COMARCA; FORMIGA-PJ-SECRETARIA 6.069,59 4.248,72 0,00 5.159,15 0,00 0,00 15.477,46 2.270,02 1.663,34 0,00 3.933,36 11.544,10 352,00 0,00 31/12/2012
808 240101 FABIO JUNQUEIRA DE ASSIS FONSECA OFICIAL DO MP ATIVO BELO HORIZONTE - COMARCA; BH-17PJ PATRIMONIO PUBLICO 3.574,80 357,48 0,00 2.046,42 0,00 0,00 5.978,70 905,37 409,07 0,00 1.314,44 4.664,26 352,00 549,18 31/12/2012
809 271500 FABIO LUIZ VIEIRA OFICIAL DO MP ATIVO SANTA VITÓRIA - COMARCA; SANTA VITORIA-PJ-UNPJ 4.332,50 433,25 0,00 2.458,02 1.588,58 0,00 8.812,35 1.111,37 1.186,23 0,00 2.297,60 6.514,75 679,60 571,90 31/12/2012
810 213100 FABIO PRATES GONCALVES ASSESSOR ATIVO BELO HORIZONTE - COMARCA; DIRETORIA DE RELACOES PUBLICAS E CERIMONIAL 0,00 703,86 3.519,31 2.111,58 1.407,72 0,00 7.742,47 861,56 771,96 0,00 1.633,52 6.108,95 587,00 0,00 31/12/2012
811 436700 FABIO SANTIAGO DE CARVALHO OFICIAL DO MP ATIVO POÇO FUNDO - COMARCA; POCO FUNDO-PJ-UNPJ 3.574,80 214,49 0,00 2.029,63 0,00 0,00 5.818,92 700,82 417,52 0,00 1.118,34 4.700,58 352,00 552,16 31/12/2012
812 208400 FABIOLA DE SOUSA CARDOSO ASSESSOR/ANALISTA ATIVO BELO HORIZONTE - COMARCA; ASSESS TECNICA DA CORREGEDORIA-GERAL DO MP 10.619,67 3.850,75 0,00 7.328,60 4.823,47 0,00 26.622,49 2.803,60 6.967,08 0,00 9.770,68 16.851,81 352,00 0,00 31/12/2012
813 392200 FABIOLA LEROY COSTA ANALISTA DO MP ATIVO ESMERALDAS - COMARCA; ESMERALDAS-PJ-01PJ 5.085,23 305,11 0,00 5.390,34 0,00 0,00 10.780,68 1.185,88 1.091,47 0,00 2.277,35 8.503,33 352,00 0,00 31/12/2012
814 409000 FABIOLA MONTEIRO DE CARVALHO CASTRO ANALISTA DO MP ATIVO BOM SUCESSO - COMARCA; BOM SUCESSO-PJ-UNPJ 6.069,59 364,18 0,00 2.967,05 2.144,59 0,00 11.545,41 1.514,35 2.069,69 0,00 3.584,04 7.961,37 352,00 1.399,03 31/12/2012
815 227900 FABIOLA PIMENTA DE CARVALHO OFICIAL DO MP ATIVO MONTES CLAROS - COMARCA; COORD REG BACIA RIOS VERDE GRANDE E PARDO 4.619,20 923,84 0,00 2.684,15 1.847,68 0,00 10.074,87 1.257,90 1.539,01 0,00 2.796,91 7.277,96 352,00 524,22 31/12/2012
816 525800 FABRICIA ALVES DANTAS OFICIAL DO MP ATIVO MONTES CLAROS - COMARCA; MONTES CLAROS-PJ-02PJ 3.095,99 0,00 0,00 1.547,99 0,00 0,00 4.643,98 624,36 142,14 0,00 766,50 3.877,48 587,00 0,00 31/12/2012
817 263400 FABRICIA PINTO TEIXEIRA SANTIAGO OFICIAL DO MP ATIVO BELO HORIZONTE - COMARCA; CAO-TS-TERCEIRO SETOR-SECRETARIA 5.598,22 559,82 0,00 3.361,16 0,00 0,00 9.519,20 1.354,76 1.282,16 0,00 2.636,92 6.882,28 587,00 0,00 31/12/2012
818 420800 FABRICIO BERNARDES DE OLIVEIRA OFICIAL DO MP ATIVO ITURAMA - COMARCA; ITURAMA-PJ-02PJ 3.300,91 198,05 0,00 1.909,82 0,00 0,00 5.408,78 868,74 464,14 0,00 1.332,88 4.075,90 454,43 899,70 31/12/2012
819 474000 FABRICIO DE FREITAS SALES ANALISTA DO MP ATIVO BUENÓPOLIS - COMARCA; BUENOPOLIS-PJ-UNPJ 4.924,85 0,00 0,00 2.462,42 0,00 0,00 7.387,27 1.083,46 863,61 0,00 1.947,07 5.440,20 352,00 0,00 31/12/2012
820 510100 FABRICIO FURTADO ASSIS DO CARMO ANALISTA DO MP ATIVO BELO HORIZONTE - COMARCA; SERVICO MEDICO-DEPTO PERIC MEDICA SAUDE OCUP 4.473,58 0,00 0,00 2.307,33 0,00 0,00 6.780,91 984,18 662,53 0,00 1.646,71 5.134,20 3.567,68 241,18 31/12/2012
821 519600 FABRICIO GONTIJO SALVATI ANALISTA DO MP ATIVO JUIZ DE FORA - COMARCA; JUIZ DE FORA-PJ-13PJ 4.332,50 0,00 0,00 4.332,50 0,00 0,00 8.665,00 953,16 606,01 0,00 1.559,17 7.105,83 352,00 0,00 31/12/2012
822 428200 FABRICIO ORZIL VIANA ANALISTA DO MP ATIVO SANTA LUZIA - COMARCA; SANTA LUZIA-PJ-04PJ 5.085,23 305,11 0,00 2.695,17 0,00 0,00 8.085,51 1.185,88 1.091,47 0,00 2.277,35 5.808,16 352,00 0,00 31/12/2012
823 455600 FABRICIO PAIVA DA ROCHA ANALISTA DO MP ATIVO ANDRELÂNDIA - COMARCA; ANDRELANDIA-PJ-UNPJ 4.924,85 0,00 0,00 2.893,04 0,00 0,00 7.817,89 1.083,46 863,61 0,00 1.947,07 5.870,82 352,00 0,00 31/12/2012
824 511500 FABRICIO RENE CARDOSO DE PADUA ANALISTA DO MP ATIVO SÃO SEBASTIÃO DO PARAÍSO - COMARCA; SAO SEBASTIAO DO PARAISO-PJ-03PJ 4.473,58 0,00 0,00 2.166,25 0,00 0,00 6.639,83 773,83 476,55 0,00 1.250,38 5.389,45 352,00 442,05 31/12/2012
825 496100 FABRICIO RESENDE GONCALVES OFICIAL DO MP ATIVO ENTRE-RIOS DE MINAS - COMARCA; ENTRE RIOS DE MINAS-PJ-UNPJ 2.637,71 0,00 0,00 2.637,71 0,00 0,00 5.275,42 580,30 101,05 0,00 681,35 4.594,07 352,00 0,00 31/12/2012
826 514900 FADUA MARIA DRUMOND CHEQUER MAGNO ANALISTA DO MP ATIVO ALMENARA - COMARCA; COORD REG INCLUSAO MOBILIZ VALE JEQUITINHONHA 4.769,54 0,00 0,00 2.384,77 1.589,85 0,00 8.744,16 1.049,30 1.224,78 0,00 2.274,08 6.470,08 352,00 0,00 31/12/2012
827 282500 FANNY FERREIRA MELO FAVERO DE FRAVET OFICIAL DO MP ATIVO ARAXÁ - COMARCA; ARAXA-PJ-03PJ 4.332,50 433,25 0,00 2.458,02 1.588,58 0,00 8.812,35 1.132,34 1.409,22 0,00 2.541,56 6.270,79 822,00 762,56 31/12/2012
828 382800 FATIMA DE OLIVEIRA COELHO E SILVA OFICIAL DO MP ATIVO BELO HORIZONTE - COMARCA; DIRETORIA DE ADMINISTRACAO FINANCEIRA 2.998,37 299,84 0,00 1.649,10 0,00 0,00 4.947,31 725,60 253,22 0,00 978,82 3.968,49 352,00 0,00 31/12/2012
829 398600 FELIPE ANTONIO HORTA DE PAULA OFICIAL DO MP ATIVO BELO HORIZONTE - COMARCA; PROC. JUSTICA DIR. DIFUSOS E COLETIVOS-SEC 3.574,80 214,49 0,00 2.039,81 0,00 0,00 5.829,10 833,64 391,93 0,00 1.225,57 4.603,53 352,00 0,00 31/12/2012
830 529200 FELIPE AUGUSTO NASCIMENTO PEREIRA ASSESSOR ATIVO UBERABA - COMARCA; COORD REG PP TRIANGULO MINEIRO UBERABA 0,00 0,00 3.519,31 2.932,76 0,00 0,00 6.452,07 748,44 228,14 0,00 976,58 5.475,49 352,00 0,00 31/12/2012
831 430900 FELIPE BOY VIEIRA ANALISTA DO MP ATIVO BELO HORIZONTE - COMARCA; CAO-DH APOIO COMUNITARIO-SEC ADM 5.598,22 335,89 0,00 5.934,11 0,00 0,00 11.868,22 1.305,50 1.357,63 0,00 2.663,13 9.205,09 696,79 31,61 31/12/2012
832 487300 FELIPE FERNANDES SILVEIRA ASSESSOR ATIVO BELO HORIZONTE - COMARCA; DIRETORIA DE MANUTENCAO PREDIAL 0,00 0,00 2.107,81 1.053,90 0,00 0,00 3.161,71 502,44 27,40 0,00 529,84 2.631,87 352,00 0,00 31/12/2012
833 394200 FELIPE VALENTE VASCONCELOS SOUSA ANALISTA DO MP ATIVO SÃO SEBASTIÃO DO PARAÍSO - COMARCA; SAO SEBASTIAO DO PARAISO-PJ-05PJ 6.069,59 364,18 0,00 2.680,73 2.144,59 0,00 11.259,09 1.356,44 1.968,22 0,00 3.324,66 7.934,43 352,00 0,00 31/12/2012
834 508400 FERNANDA AGANETTI MATTOS DE OLIVEIRA ANALISTA DO MP ATIVO BELO HORIZONTE - COMARCA; BH-19PJ SAUDE 4.924,85 0,00 0,00 2.384,77 0,00 0,00 7.309,62 1.115,92 825,59 0,00 1.941,51 5.368,11 352,00 450,40 31/12/2012
835 453600 FERNANDA ALBERNAZ RABELO ANALISTA DO MP ATIVO BELO HORIZONTE - COMARCA; ASSESS TECNICO-JUR JUNTO AS PROC. DE JUST 5.421,69 0,00 0,00 2.959,26 0,00 0,00 8.380,95 1.192,78 1.106,81 0,00 2.299,59 6.081,36 352,00 0,00 31/12/2012
836 255600 FERNANDA ALINA DE ALMEIDA ANDRADE OFICIAL DO MP ATIVO BELO HORIZONTE - COMARCA; DIR ESTRUTURA E PROCESSOS ORGANIZACIONAIS 4.619,20 923,84 0,00 3.002,48 0,00 0,00 8.545,52 1.219,46 1.166,21 0,00 2.385,67 6.159,85 3.567,68 294,77 31/12/2012
837 443200 FERNANDA ALMEIDA LOPES ANALISTA DO MP ATIVO CONTAGEM - COMARCA; CONTAGEM-PJ-23PJ 5.598,22 335,89 0,00 3.036,14 0,00 0,00 8.970,25 1.349,63 1.311,84 0,00 2.661,47 6.308,78 352,00 588,27 31/12/2012
838 281100 FERNANDA ANANIAS MEIRA ANALISTA DO MP ATIVO BELO HORIZONTE - COMARCA; BH-23PJ INFRACIONAL-ASS JURIDICA 7.595,56 759,56 0,00 4.309,26 2.785,04 0,00 15.449,42 1.838,12 3.308,61 0,00 5.146,73 10.302,69 352,00 0,00 31/12/2012
839 451200 FERNANDA BLOISE PRADO OFICIAL DO MP ATIVO BELO HORIZONTE - COMARCA; COORD-GERAL DAS PJS POR BACIA HIDRO. DE MG 3.196,81 0,00 0,00 1.744,88 0,00 0,00 4.941,69 703,30 226,14 0,00 929,44 4.012,25 352,00 0,00 31/12/2012
840 427900 FERNANDA BRAGA CARNEIRO BICALHO ANALISTA DO MP ATIVO PEÇANHA - COMARCA; PECANHA-PJ-SECRETARIA 5.085,23 305,11 0,00 2.695,17 0,00 0,00 8.085,51 1.185,88 998,91 0,00 2.184,79 5.900,72 352,00 0,00 31/12/2012
841 507100 FERNANDA CABRINI VAZ MOTA ANALISTA DO MP ATIVO BELO HORIZONTE - COMARCA; ASSESSORIA JURIDICO-ADMINISTRATIVA 4.473,58 0,00 0,00 2.505,86 1.491,19 0,00 8.470,63 984,18 1.058,10 0,00 2.042,28 6.428,35 352,00 0,00 31/12/2012
842 259800 FERNANDA CALZAVARA DE SOUSA COORDENADOR/OFICIAL ATIVO BELO HORIZONTE - COMARCA; DIRET DE FORMACAO, APERFEIC. E POS-GRADUACAO 0,00 920,55 9.205,45 5.812,44 3.375,33 0,00 19.313,77 1.270,68 4.600,97 0,00 5.871,65 13.442,12 352,00 0,00 31/12/2012
843 494400 FERNANDA CAMPOS BARATA OFICIAL DO MP ATIVO JUIZ DE FORA - COMARCA; JUIZ DE FORA-PJ-08PJ 2.637,71 0,00 0,00 1.360,43 0,00 0,00 3.998,14 580,30 101,05 0,00 681,35 3.316,79 587,00 0,00 31/12/2012
844 294500 FERNANDA COSTA FLORES OFICIAL DO MP ATIVO PARÁ DE MINAS - COMARCA; PARA DE MINAS-PJ-04PJ 5.085,23 508,52 0,00 2.796,87 1.864,58 0,00 10.255,20 1.230,62 1.611,25 0,00 2.841,87 7.413,33 352,00 0,00 31/12/2012
845 344500 FERNANDA CRISTINA DE SOUZA PAZ ASSESSOR ATIVO BELO HORIZONTE - COMARCA; CENTRAL DE APOIO TECN-SETOR DE MEIO AMBIENTE 0,00 0,00 3.519,31 1.759,65 0,00 0,00 5.278,96 812,96 306,45 0,00 1.119,41 4.159,55 822,00 0,00 31/12/2012
846 337800 FERNANDA CRISTINA REIS ROLAND CLIMACO DA SILVA ASSESSOR/OFICIAL ATIVO BELO HORIZONTE - COMARCA; DIRETORIA-GERAL 0,00 712,41 7.124,13 3.918,27 2.612,18 0,00 14.366,99 1.210,60 3.148,42 0,00 4.359,02 10.007,97 352,00 0,00 31/12/2012
847 429801 FERNANDA CUNHA PINHEIRO DA SILVA ANALISTA DO MP ATIVO BELO HORIZONTE - COMARCA; DIRETORIA DE PRODUCAO EDITORIAL 4.332,50 0,00 0,00 2.166,25 0,00 0,00 6.498,75 714,87 448,29 0,00 1.163,16 5.335,59 352,00 0,00 31/12/2012
848 408000 FERNANDA DAS NEVES RAMOS ANALISTA DO MP ATIVO BELO HORIZONTE - COMARCA; CENTRAL DE APOIO TECNICO-SETOR CONTABIL 6.069,59 364,18 0,00 2.967,05 0,00 0,00 9.400,82 1.514,35 1.479,93 0,00 2.994,28 6.406,54 352,00 1.399,03 31/12/2012
849 496000 FERNANDA DE ALMEIDA VIANA ANALISTA DO MP ATIVO BELO HORIZONTE - COMARCA; PROC JUST RECURSOS ESP E EXTRAORD CRIMINAIS 4.473,58 0,00 0,00 2.307,33 0,00 0,00 6.780,91 984,18 662,53 0,00 1.646,71 5.134,20 352,00 0,00 31/12/2012
850 266700 FERNANDA DE CASTRO LUCAS OFICIAL DO MP ATIVO BELO HORIZONTE - COMARCA; DIRET DE DESENV DE RECURSOS HUMANOS-DDRH 5.598,22 559,82 0,00 3.361,16 2.052,68 0,00 11.571,88 1.354,76 2.031,74 0,00 3.386,50 8.185,38 352,00 0,00 31/12/2012
851 433200 FERNANDA DE FIGUEIREDO NORTE ANALISTA DO MP ATIVO BELO HORIZONTE - COMARCA; ASSESS JUR DO CONS SUPERIOR DO MINISTERIO PUB 5.598,22 335,89 0,00 3.223,26 1.978,04 0,00 11.135,41 1.529,33 2.399,61 0,00 3.928,94 7.206,47 352,00 2.034,80 31/12/2012
852 419200 FERNANDA DE MIRANDA MARTINS SIMOES ANALISTA DO MP ATIVO UBERLÂNDIA - COMARCA; UBERLANDIA-PJ-19PJ 5.598,22 335,89 0,00 2.967,05 0,00 0,00 8.901,16 1.305,50 1.357,63 0,00 2.663,13 6.238,03 352,00 0,00 31/12/2012
853 441400 FERNANDA DE MORAIS PINTO ANALISTA DO MP ATIVO BELO HORIZONTE - COMARCA; PROC. JUSTICA DIR. DIFUSOS E COLETIVOS-SEC 5.598,22 335,89 0,00 3.223,26 0,00 0,00 9.157,37 1.305,50 1.357,63 0,00 2.663,13 6.494,24 352,00 0,00 31/12/2012
854 432200 FERNANDA DE MOURA GUIMARAES ANALISTA DO MP ATIVO BELO HORIZONTE - COMARCA; CAO-CRIMINAL-SECRETARIA 5.598,22 335,89 0,00 3.223,26 1.978,04 0,00 11.135,41 1.305,50 1.901,60 0,00 3.207,10 7.928,31 352,00 0,00 31/12/2012
855 461800 FERNANDA DE OLIVEIRA SANTOS ANALISTA DO MP ATIVO JUIZ DE FORA - COMARCA; JUIZ DE FORA-PJ-21PJ 5.421,69 0,00 0,00 2.462,42 1.807,23 0,00 9.691,34 1.296,61 1.482,20 0,00 2.778,81 6.912,53 352,00 1.440,84 31/12/2012
856 432500 FERNANDA DE PAULA ABRANTES ANALISTA DO MP ATIVO BELO HORIZONTE - COMARCA; BH-12PJ JUIZO CRIMINAL-GAB 091PJ 5.598,22 335,89 0,00 3.223,26 0,00 0,00 9.157,37 1.305,50 1.357,63 0,00 2.663,13 6.494,24 352,00 0,00 31/12/2012
857 431600 FERNANDA DIAS BARBOSA MENEZES ANALISTA DO MP ATIVO OURO BRANCO - COMARCA; OURO BRANCO-PJ-UNPJ 5.598,22 335,89 0,00 3.223,26 0,00 0,00 9.157,37 1.305,50 1.265,09 0,00 2.570,59 6.586,78 352,00 0,00 31/12/2012
858 162200 FERNANDA FERNANDES MONTEIRO ASSESSOR ATIVO BELO HORIZONTE - COMARCA; PROCON-MG-SECRETARIA DE FISCALIZACOES 0,00 1.055,79 3.519,31 2.287,55 1.525,03 0,00 8.387,68 861,56 895,86 0,00 1.757,42 6.630,26 587,00 0,00 31/12/2012
859 512800 FERNANDA FERREIRA BARBOSA MOREIRA ANALISTA DO MP ATIVO CARATINGA - COMARCA; CARATINGA-PJ-03PJ 4.473,58 0,00 0,00 2.166,25 0,00 0,00 6.639,83 1.002,29 634,27 0,00 1.636,56 5.003,27 352,00 352,70 31/12/2012
860 329200 FERNANDA GABRIEL GUZELLA OFICIAL DO MP ATIVO BELO HORIZONTE - COMARCA; DIRET DE PLANOS PROJETOS E PROGRAMAS INST 4.332,50 433,25 0,00 2.530,76 0,00 0,00 7.296,51 1.048,46 787,23 0,00 1.835,69 5.460,82 352,00 0,00 31/12/2012
861 324200 FERNANDA GEORGIA NEVES ZAHAN OFICIAL DO MP ATIVO IPANEMA - COMARCA; IPANEMA-PJ-SECRETARIA 4.195,87 2.097,93 0,00 3.435,25 2.097,93 0,00 11.826,98 1.384,64 2.018,09 0,00 3.402,73 8.424,25 352,00 0,00 31/12/2012
862 355400 FERNANDA HELENA BASQUES OFICIAL DO MP ATIVO SABARÁ - COMARCA; SABARA-PJ-01PJ 4.473,58 447,36 0,00 2.460,47 0,00 0,00 7.381,41 1.082,60 861,69 0,00 1.944,29 5.437,12 352,00 0,00 31/12/2012
863 454800 FERNANDA IATAROLA BARBOSA DIAS ANALISTA DO MP ATIVO BARBACENA - COMARCA; BARBACENA-PJ-01PJ 5.421,69 0,00 0,00 2.959,26 0,00 0,00 8.380,95 1.238,78 1.209,17 0,00 2.447,95 5.933,00 352,00 418,23 31/12/2012
864 515500 FERNANDA LILIANE MARUGEIRO ANALISTA DO MP ATIVO VESPASIANO - COMARCA; VESPASIANO-PJ-02PJ 4.332,50 0,00 0,00 2.166,25 0,00 0,00 6.498,75 953,16 606,01 0,00 1.559,17 4.939,58 352,00 0,00 31/12/2012
865 392900 FERNANDA MAGALHAES SILVA ANALISTA DO MP ATIVO BELO HORIZONTE - COMARCA; SUPERINTENDENCIA DE COMUNICACAO INTEGRADA 6.069,59 364,18 0,00 3.216,88 0,00 0,00 9.650,65 1.415,42 1.602,23 0,00 3.017,65 6.633,00 352,00 0,00 31/12/2012
866 409200 FERNANDA MAIA SANTIAGO ANALISTA DO MP ATIVO PIRAPORA - COMARCA; PIRAPORA-PJ-02PJ 5.085,23 305,11 0,00 2.448,17 0,00 0,00 7.838,51 1.280,07 970,56 0,00 2.250,63 5.587,88 352,00 1.350,25 31/12/2012
867 412900 FERNANDA PORTELA ROSA ANALISTA DO MP ATIVO BELO HORIZONTE - COMARCA; BH-08PJ JUIZADO ESPECIAL-SECRETARIA 6.069,59 364,18 0,00 2.967,05 2.144,59 0,00 11.545,41 1.388,01 2.207,61 0,00 3.595,62 7.949,79 3.570,08 3.679,05 31/12/2012
868 274301 FERNANDA QUEIROZ PARREIRA ANALISTA DO MP ATIVO PATOS DE MINAS - COMARCA; COORD REG PJ DEF EDU DIR CRI ADO AL PAR NOROE 4.924,85 0,00 0,00 2.758,60 0,00 0,00 7.683,45 1.083,46 863,61 0,00 1.947,07 5.736,38 352,00 0,00 31/12/2012
869 467900 FERNANDA QUEIROZ SIMOES GANNAM ANALISTA DO MP ATIVO SÃO LOURENÇO - COMARCA; SAO LOURENCO-PJ-04PJ 5.421,69 0,00 0,00 2.462,42 0,00 0,00 7.884,11 1.256,53 985,21 0,00 2.241,74 5.642,37 352,00 1.242,10 31/12/2012
870 255500 FERNANDA SIMOES LOPES MENDES ANALISTA DO MP ATIVO BELO HORIZONTE - COMARCA; BH-17PJ PATRIMONIO PUBLICO-SECRETARIA 8.634,11 1.726,82 0,00 5.761,88 3.453,64 0,00 19.576,45 2.279,40 4.381,77 0,00 6.661,17 12.915,28 587,00 0,00 31/12/2012
871 481700 FERNANDA VIANA FROES DA SILVA OFICIAL DO MP ATIVO GOVERNADOR VALADARES - COMARCA; GOVERNADOR VALADARES-PJ-09PJ 3.196,81 0,00 0,00 1.598,40 0,00 0,00 4.795,21 703,30 226,14 0,00 929,44 3.865,77 587,00 0,00 31/12/2012
872 123900 FERNANDO ANTONIO FARIA ABREU ANALISTA DO MP ATIVO BELO HORIZONTE - COMARCA; DIRETORIA-GERAL 18.137,48 14.509,98 0,00 12.058,81 8.039,21 2.652,94 55.398,42 5.305,88 8.823,67 9.319,55 23.449,10 31.949,32 352,00 3.531,08 31/12/2012
873 416900 FERNANDO APARECIDO DA SILVA ANALISTA DO MP ATIVO BOM DESPACHO - COMARCA; BOM DESPACHO-PJ-01PJ 6.069,59 2.427,84 0,00 3.918,75 0,00 0,00 12.416,18 1.946,87 2.358,32 0,00 4.305,19 8.110,99 3.802,68 1.878,57 31/12/2012
874 395900 FERNANDO AUGUSTO ETO LAGES ANALISTA DO MP ATIVO BELO HORIZONTE - COMARCA; CENTRAL DE APOIO TECN-SETOR DE MEIO AMBIENTE 5.598,22 335,89 0,00 2.967,05 0,00 0,00 8.901,16 1.305,50 1.357,63 0,00 2.663,13 6.238,03 352,00 0,00 31/12/2012
875 380500 FERNANDO BONES COSTA OFICIAL DO MP ATIVO BELO HORIZONTE - COMARCA; EXTINTA - DIVISÃO DE MATERIAL PERMANENTE 3.300,91 198,05 0,00 1.749,48 1.166,32 0,00 6.414,76 577,33 466,68 0,00 1.044,01 5.370,75 352,00 0,00 31/12/2012
876 500100 FERNANDO CEZAR PINTO OFICIAL DO MP ATIVO BELO HORIZONTE - COMARCA; EXTINTA - DIVISÃO DE MATERIAL PERMANENTE 2.903,86 0,00 0,00 1.497,72 0,00 0,00 4.401,58 638,84 111,34 0,00 750,18 3.651,40 1.748,54 29,04 31/12/2012
877 346100 FERNANDO EUSTAQUIO CAMPOS UTSCH MOREIRA ANALISTA DO MP ATIVO BELO HORIZONTE - COMARCA; DIRETORIA DE REDES E BANCOS DE DADOS 7.356,10 735,61 0,00 4.045,85 0,00 0,00 12.137,56 1.780,18 2.136,14 0,00 3.916,32 8.221,24 2.247,35 152,20 31/12/2012
878 103500 FERNANDO LUIZ DA SILVA JUNIOR OFICIAL DO MP ATIVO BELO HORIZONTE - COMARCA; DIVISAO DE ATENDIMENTO E CONSULTA JURIDICA 9.814,62 3.925,85 0,00 6.870,23 0,00 0,00 20.610,70 3.022,90 5.178,85 0,00 8.201,75 12.408,95 3.567,68 294,77 31/12/2012
879 287300 FERNANDO MARCIO ALVES MARTINS OFICIAL DO MP ATIVO LEOPOLDINA - COMARCA; LEOPOLDINA-PJ-01PJ 4.195,87 419,59 0,00 2.307,73 1.538,49 0,00 8.461,68 1.015,40 881,28 0,00 1.896,68 6.565,00 352,00 0,00 31/12/2012
880 262200 FERNANDO MARCIO RESENDE PEREIRA COORDENADOR/OFICIAL ATIVO BELO HORIZONTE - COMARCA; BH-12PJ JUIZO CRIMINAL-SECRETARIA 0,00 809,82 8.098,20 4.454,01 0,00 0,00 13.362,03 900,37 2.258,11 0,00 3.158,48 10.203,55 352,00 0,00 31/12/2012
881 472900 FERNANDO RODRIGUES DE FREITAS ANALISTA DO MP ATIVO SANTA BÁRBARA - COMARCA; SANTA BARBARA-PJ-UNPJ 4.063,61 0,00 0,00 2.031,80 1.354,54 0,00 7.449,95 894,00 753,75 0,00 1.647,75 5.802,20 3.567,68 241,18 31/12/2012
882 219600 FERNANDO SOARES MIRANDA COORDENADOR/ANALISTA ATIVO BELO HORIZONTE - COMARCA; PROCON-MG-GAB DO COORDENADOR DO PROCON-MG 10.464,02 12.997,10 0,00 12.126,11 7.820,37 2.186,98 45.594,58 4.373,96 13.322,02 0,00 17.695,98 27.898,60 352,00 2.186,98 31/12/2012
883 421400 FERNANDO TEODORO MACIEL ANALISTA DO MP ATIVO SANTA VITÓRIA - COMARCA; SANTA VITORIA-PJ-UNPJ 5.085,23 305,11 0,00 2.695,17 1.796,78 0,00 9.882,29 1.236,70 1.606,10 0,00 2.842,80 7.039,49 587,00 462,00 31/12/2012
884 446300 FERNANDO VITOR DE OLIVEIRA ANALISTA DO MP ATIVO MONTES CLAROS - COMARCA; COORD REG BACIA RIOS VERDE GRANDE E PARDO 5.421,69 325,30 0,00 2.710,84 0,00 0,00 8.457,83 1.453,99 1.608,40 0,00 3.062,39 5.395,44 3.567,68 2.344,17 31/12/2012
885 398400 FLAVIA ALVARES GUIMARAES OFICIAL DO MP ATIVO RIBEIRÃO DAS NEVES - COMARCA; RIBEIRAO DAS NEVES-PJ-01PJ 3.300,91 198,05 0,00 1.749,48 1.166,32 0,00 6.414,76 769,78 546,84 0,00 1.316,62 5.098,14 352,00 0,00 31/12/2012
886 398200 FLAVIA ALVES DE ASSUNCAO RODRIGUES ANALISTA DO MP ATIVO DIVINÓPOLIS - COMARCA; COORD REG DO MA DA BACIA DO ALTO SAO FRANC 5.598,22 335,89 0,00 5.934,11 0,00 0,00 11.868,22 1.305,50 1.357,63 0,00 2.663,13 9.205,09 352,00 0,00 31/12/2012
887 318500 FLAVIA BEATRIZ NUNES CRUZ VIEIRA ANALISTA DO MP ATIVO BARBACENA - COMARCA; BARBACENA-PJ-SECRETARIA 7.595,56 759,56 0,00 8.091,71 0,00 0,00 16.446,83 1.896,08 2.385,70 0,00 4.281,78 12.165,05 587,00 790,23 31/12/2012
888 496500 FLAVIA CARAM BORLIDO ANALISTA DO MP ATIVO BELO HORIZONTE - COMARCA; EXTINTA - DIVISAO DE SERVICOS GERAIS 4.924,85 0,00 0,00 2.758,60 0,00 0,00 7.683,45 845,17 705,89 0,00 1.551,06 6.132,39 352,00 0,00 31/12/2012
889 219500 FLAVIA CRISTINA ANCELMO OFICIAL DO MP ATIVO BELO HORIZONTE - COMARCA; BH-17PJ PATRIMONIO PUBLICO-SECRETARIA 4.332,50 866,50 0,00 2.517,52 1.733,00 0,00 9.449,52 1.179,85 1.434,25 0,00 2.614,10 6.835,42 352,00 491,88 31/12/2012
890 329600 FLAVIA CRISTINA DE MATOS XAVIER ANALISTA DO MP ATIVO UBERABA - COMARCA; UBERABA-PJ-15PJ 7.595,56 1.519,11 0,00 4.413,66 0,00 0,00 13.528,33 2.068,45 2.659,10 0,00 4.727,55 8.800,78 587,00 862,05 31/12/2012
891 207600 FLAVIA DE ANDRADE MANCINI ANALISTA DO MP ATIVO BELO HORIZONTE - COMARCA; ASSESSORIA JURIDICO-ADMINISTRATIVA 9.814,62 1.962,92 0,00 6.074,44 3.925,85 0,00 21.777,83 2.591,06 5.205,06 0,00 7.796,12 13.981,71 822,00 0,00 31/12/2012
892 402801 FLAVIA MARIA DE RESENDE NASCIMENTO ANALISTA DO MP ATIVO SÃO JOÃO DEL REI - COMARCA; SAO JOAO DEL REI-PJ-04PJ 4.769,54 0,00 0,00 2.384,77 0,00 0,00 7.154,31 1.049,30 788,91 0,00 1.838,21 5.316,10 352,00 0,00 31/12/2012
893 437500 FLAVIA MARIA TORRES MARCHETTI ANALISTA DO MP ATIVO BELO HORIZONTE - COMARCA; BH-13ª PJ JUÍXO DE TÓXICOS 5.598,22 335,89 0,00 3.223,26 1.978,04 0,00 11.135,41 1.495,76 2.324,91 0,00 3.820,67 7.314,74 3.567,68 2.024,35 31/12/2012
894 386000 FLAVIA NEVES BRIGIDO OFICIAL DO MP ATIVO OURO PRETO - COMARCA; OURO PRETO-PJ-04PJ 3.300,91 198,05 0,00 1.749,48 0,00 0,00 5.248,44 769,78 306,82 0,00 1.076,60 4.171,84 352,00 0,00 31/12/2012
895 488600 FLAVIA PEREIRA COSTA ANALISTA DO MP ATIVO BELO HORIZONTE - COMARCA; SERVICO MEDICO-DEPTO PERIC MEDICA SAUDE OCUP 4.924,85 0,00 0,00 2.540,08 0,00 0,00 7.464,93 1.083,46 863,61 0,00 1.947,07 5.517,86 352,00 0,00 31/12/2012
896 365400 FLAVIA PEREIRA DA SILVA OFICIAL DO MP ATIVO BELO HORIZONTE - COMARCA; BH-15PJ M AMB 16PJ HAB URB-SECRETARIA 4.332,50 433,25 0,00 2.439,82 0,00 0,00 7.205,57 1.113,54 720,30 0,00 1.833,84 5.371,73 352,00 887,34 31/12/2012
897 515400 FLAVIA RODRIGUES DE OLIVEIRA E SILVA PAIVA ANALISTA DO MP ATIVO CARATINGA - COMARCA; CARATINGA-PJ-01PJ 4.332,50 0,00 0,00 2.166,25 0,00 0,00 6.498,75 953,16 327,46 0,00 1.280,62 5.218,13 352,00 0,00 31/12/2012
898 515300 FLAVIA VIEIRA OLIVEIRA ANALISTA DO MP ATIVO BELO HORIZONTE - COMARCA; CAO-CRIMINAL-SECRETARIA 4.769,54 0,00 0,00 2.384,77 0,00 0,00 7.154,31 1.049,30 788,91 0,00 1.838,21 5.316,10 352,00 0,00 31/12/2012
899 377500 FLAVIANA GONCALVES DE OLIVEIRA ANALISTA DO MP ATIVO AÇUCENA - COMARCA; ACUCENA-PJ-UNPJ 6.069,59 364,18 0,00 3.216,88 0,00 0,00 9.650,65 1.415,42 1.602,23 0,00 3.017,65 6.633,00 352,00 0,00 31/12/2012
900 273100 FLAVIANE DOS SANTOS CASTRO OFICIAL DO MP ATIVO NATÉRCIA - COMARCA 4.769,54 476,95 0,00 2.938,76 1.748,83 0,00 9.934,08 900,37 1.093,83 0,00 1.994,20 7.939,88 822,00 0,00 31/12/2012
901 310600 FLAVIANE NAVES ALCANTARA ASSESSOR/OFICIAL ATIVO BELO HORIZONTE - COMARCA; COMB CRIMES PRAT POR AG POL MUN-SECRETARIA 0,00 712,41 7.124,13 3.918,27 2.612,18 0,00 14.366,99 1.250,04 3.137,57 0,00 4.387,61 9.979,38 352,00 0,00 31/12/2012
902 378200 FLAVIANE RIBEIRO BORGES OFICIAL DO MP ATIVO SÃO GONÇALO DO SAPUCAÍ - COMARCA; SAO GONCALO DO SAPUCAI-PJ-02PJ 3.300,91 198,05 0,00 1.749,48 1.166,32 0,00 6.414,76 769,78 546,84 0,00 1.316,62 5.098,14 352,00 0,00 31/12/2012
903 455800 FLAVIO ANTONIO RIBEIRO OFICIAL DO MP ATIVO PASSA TEMPO - COMARCA; PASSA TEMPO-PJ-SECRETARIA 2.903,86 0,00 0,00 2.903,86 0,00 0,00 5.807,72 638,84 147,94 0,00 786,78 5.020,94 352,00 0,00 31/12/2012
904 458200 FLAVIO AUGUSTO BRAGA SOARES ANALISTA DO MP ATIVO BELO HORIZONTE - COMARCA; DIRETORIA DE MANUTENCAO PREDIAL 5.421,69 0,00 0,00 2.959,26 0,00 0,00 8.380,95 1.192,78 1.106,81 0,00 2.299,59 6.081,36 352,00 0,00 31/12/2012
905 516500 FLAVIO AUGUSTO RODRIGUES CORREA ANALISTA DO MP ATIVO BELO HORIZONTE - COMARCA; COORD REG BACIAS RIO VELHAS E PARAOPEBA 4.332,50 0,00 0,00 4.332,50 0,00 0,00 8.665,00 953,16 606,01 0,00 1.559,17 7.105,83 352,00 0,00 31/12/2012
906 84300 FLAVIO DE FARIA BELTRAO OFICIAL DO MP ATIVO BELO HORIZONTE - COMARCA; DIRETORIA DE ADMINISTRACAO FINANCEIRA 16.277,88 8.138,94 0,00 24.117,62 8.039,21 0,00 56.573,65 5.305,88 12.376,70 299,20 17.981,78 38.591,87 352,00 0,00 31/12/2012
907 266600 FLAVIO GUIMARAES LANA ANALISTA DO MP ATIVO BELO HORIZONTE - COMARCA; CENTRAL DE APOIO TECN-SETOR DE MEIO AMBIENTE 6.681,94 668,19 0,00 3.790,92 0,00 0,00 11.141,05 1.225,50 1.557,94 0,00 2.783,44 8.357,61 352,00 0,00 31/12/2012
908 241500 FLAVIO HENRIQUE SILVA MARTINS LAGE OFICIAL DO MP ATIVO BELO HORIZONTE - COMARCA; CAO-DIREITOS HUMANOS E APOIO COMUNITARIO 4.619,20 1.385,76 0,00 3.233,44 2.001,65 0,00 11.240,05 1.321,10 1.942,77 0,00 3.263,87 7.976,18 352,00 0,00 31/12/2012
909 86700 FLAVIO LUCAS TOMAZ AGENTE DO MP ATIVO BELO HORIZONTE - COMARCA; BH-06PJ JUIZO CIVEL-SECRETARIA 4.473,58 2.236,79 0,00 3.249,37 2.236,79 0,00 12.196,53 1.522,84 1.467,15 0,00 2.989,99 9.206,54 352,00 634,86 31/12/2012
910 407200 FLAVIO LUCIO MONTEIRO PENA ANALISTA DO MP ATIVO BELO HORIZONTE - COMARCA; DIRETORIA DE IMPRENSA 5.085,23 305,11 0,00 2.942,16 0,00 0,00 8.332,50 1.185,88 1.091,47 0,00 2.277,35 6.055,15 352,00 0,00 31/12/2012
911 451700 FLAVIO MAGALHAES PEREIRA ANALISTA DO MP ATIVO BELO HORIZONTE - COMARCA; BH-12PJ JUIZO CRIMINAL-GAB 098PJ 5.421,69 0,00 0,00 2.710,84 0,00 0,00 8.132,53 1.192,78 1.106,81 0,00 2.299,59 5.832,94 352,00 0,00 31/12/2012
912 481500 FLAVIO NEVES GUELBER DE MACEDO OFICIAL DO MP ATIVO SÃO JOÃO NEPOMUCENO - COMARCA; SAO JOAO NEPOMUCENO-PJ-02PJ 2.903,86 0,00 0,00 1.585,00 0,00 0,00 4.488,86 638,84 147,94 0,00 786,78 3.702,08 352,00 0,00 31/12/2012
913 278100 FRANCIANE MARY DE SOUZA DOMENICI DE BRITO E CASTRO ANALISTA DO MP ATIVO BELO HORIZONTE - COMARCA; BH-12PJ JUIZO CRIMINAL 8.361,90 836,19 0,00 4.454,01 3.066,03 0,00 16.718,13 2.087,40 3.634,97 0,00 5.722,37 10.995,76 352,00 870,21 31/12/2012
914 192501 FRANCIELLE REIS DE OLIVEIRA ANALISTA DO MP ATIVO PASSOS - COMARCA; PASSOS-PJ-04PJ 8.361,90 836,19 0,00 5.020,53 0,00 0,00 14.218,62 2.023,58 2.677,72 0,00 4.701,30 9.517,32 587,00 0,00 31/12/2012
915 523600 FRANCINE MOURA LIMIRIO OFICIAL DO MP ATIVO UBERABA - COMARCA; UBERABA-PJ-02PJ 2.554,55 0,00 0,00 1.277,27 0,00 0,00 3.831,82 421,50 66,08 0,00 487,58 3.344,24 352,00 0,00 31/12/2012
916 467200 FRANCINI RENNO ANALISTA DO MP ATIVO SILVIANÓPOLIS - COMARCA; SILVIANOPOLIS-PJ-UNPJ 4.924,85 0,00 0,00 2.236,79 0,00 0,00 7.161,64 1.138,06 758,47 0,00 1.896,53 5.265,11 352,00 1.098,09 31/12/2012
917 189300 FRANCIS BERNARDO DO NASCIMENTO OFICIAL DO MP ATIVO VARGINHA - COMARCA; VARGINHA-PJ-05PJ 7.356,10 1.471,22 0,00 4.274,48 2.942,44 0,00 16.044,24 2.003,26 3.514,91 0,00 5.518,17 10.526,07 822,00 835,08 31/12/2012
918 207800 FRANCISCO CAMPOS PIRES DE MORAIS ANALISTA DO MP ATIVO BELO HORIZONTE - COMARCA; CENTRAL DE APOIO TECN-SETOR DE MEIO AMBIENTE 10.464,02 2.092,80 0,00 6.278,41 0,00 0,00 18.835,23 2.762,50 4.599,45 0,00 7.361,95 11.473,28 352,00 0,00 31/12/2012
919 424200 FRANCISCO DE FREITAS JUNIOR ANALISTA DO MP ATIVO MONTE AZUL - COMARCA; MONTE AZUL-PJ-UNPJ 2.155,63 129,34 0,00 4.080,29 1.632,12 0,00 7.997,38 700,18 512,72 0,00 1.212,90 6.784,48 192,00 0,00 31/12/2012
920 204600 FRANCISCO FERREIRA NOVAIS OFICIAL DO MP ATIVO IPATINGA - COMARCA; IPATINGA-PJ-08PJ 5.421,69 1.626,51 0,00 3.524,10 2.349,40 0,00 12.921,70 1.550,60 2.363,98 0,00 3.914,58 9.007,12 587,00 0,00 31/12/2012
921 124100 FRANCISCO MARCOS DE CARVALHO RIBEIRO OFICIAL DO MP ATIVO BELO HORIZONTE - COMARCA; COMB CRIMES PRAT POR AG POL MUN-SECRETARIA 10.464,02 9.417,62 0,00 10.464,02 0,00 2.186,98 32.532,64 4.373,96 9.202,70 0,00 13.576,66 18.955,98 352,00 2.186,98 31/12/2012
922 60500 FRANCISCO OLIMPIO TEIXEIRA AGENTE DO MP ATIVO BELO HORIZONTE - COMARCA; EXTINTA - DIVISAO DE TRANSPORTES 4.195,87 3.356,70 0,00 3.776,28 2.517,52 0,00 13.846,37 2.017,63 3.356,81 0,00 5.374,44 8.471,93 587,00 3.237,00 31/12/2012
923 411600 FRANCISCO PAIVA BRITO ANALISTA DO MP ATIVO BELO HORIZONTE - COMARCA; TRIBUNAL DO JURI-07 PJ-02 TRIBUNAL 5.598,22 335,89 0,00 2.695,17 0,00 0,00 8.629,28 1.381,27 1.224,55 0,00 2.605,82 6.023,46 352,00 1.232,55 31/12/2012
924 515800 FRANCISCO RAFAEL DA SILVA NETO ANALISTA DO MP ATIVO SACRAMENTO - COMARCA; SACRAMENTO-PJ-01PJ 3.935,44 0,00 0,00 1.967,72 0,00 0,00 5.903,16 865,80 271,92 0,00 1.137,72 4.765,44 1.071,76 17,99 31/12/2012
925 515200 FRANCISLEI ELIAS GONCALVES OFICIAL DO MP ATIVO PASSOS - COMARCA; PASSOS-PJ-01PJ 2.554,55 510,91 0,00 3.065,46 0,00 0,00 6.130,92 674,40 82,43 0,00 756,83 5.374,09 3.417,46 76,64 31/12/2012
926 443600 FRANCISLEI MARTINS DE SOUSA ANALISTA DO MP ATIVO TIMÓTEO - COMARCA; TIMOTEO-PJ-01PJ 5.598,22 335,89 0,00 3.036,14 0,00 0,00 8.970,25 1.334,32 1.311,84 0,00 2.646,16 6.324,09 352,00 449,09 31/12/2012
927 424500 FREDERICO AUGUSTO COBRA MULLER ANALISTA DO MP ATIVO POUSO ALEGRE - COMARCA; POUSO ALEGRE-PJ-03PJ 5.598,22 335,89 0,00 2.967,05 1.978,04 0,00 10.879,20 979,12 1.553,68 0,00 2.532,80 8.346,40 352,00 0,00 31/12/2012
928 473100 FREDERICO AUGUSTO LIMA FELICIO ANALISTA DO MP ATIVO CONCEIÇÃO DO MATO DENTRO - COMARCA; CONCEICAO DO MATO DENTRO-PJ-UNPJ 4.473,58 0,00 0,00 2.236,79 0,00 0,00 6.710,37 984,18 662,53 0,00 1.646,71 5.063,66 352,00 0,00 31/12/2012
929 318100 FREDERICO BIANCHINI JOVIANO DOS SANTOS ASSESSOR/OFICIAL ATIVO BELO HORIZONTE - COMARCA; PROMOT ESTADUAL DE DEF PATRI CULT E TUR DE MG 0,00 712,41 7.124,13 3.918,27 2.612,18 0,00 14.366,99 761,55 2.572,65 0,00 3.334,20 11.032,79 352,00 0,00 31/12/2012
930 124200 FREDERICO DE SOUZA ROCHA OFICIAL DO MP ATIVO ESPINOSA - COMARCA; ESPINOSA-PJ-SECRETARIA 8.098,20 5.668,74 0,00 6.666,41 4.588,98 0,00 25.022,33 3.366,89 6.497,24 0,00 9.864,13 15.158,20 587,00 3.508,40 31/12/2012
931 177100 FREDERICO FERNANDES DE ANDRADE ASSESSOR/OFICIAL ATIVO BELO HORIZONTE - COMARCA; DIRETORIA DE SUPORTE E MANUTENCAO 0,00 1.424,83 7.124,13 4.274,48 2.849,65 0,00 15.673,09 1.108,44 2.836,43 0,00 3.944,87 11.728,22 352,00 0,00 31/12/2012
932 456200 FREDERICO FERNANDES PASSOS ANALISTA DO MP ATIVO BELO HORIZONTE - COMARCA; DIRETORIA DE REDES E BANCOS DE DADOS 5.421,69 0,00 0,00 2.959,26 0,00 0,00 8.380,95 1.192,78 1.014,26 0,00 2.207,04 6.173,91 389,33 3,42 31/12/2012
933 400900 FREDERICO LUCIANO BORGES REIS ANALISTA DO MP ATIVO BELO HORIZONTE - COMARCA; DIRETORIA DE SISTEMAS DE INFORMACAO 6.069,59 364,18 0,00 3.466,71 0,00 0,00 9.900,48 1.433,62 1.642,71 0,00 3.076,33 6.824,15 2.925,51 401,33 31/12/2012
934 466200 FREDERICO LUIS FERNANDES ANALISTA DO MP ATIVO BELO HORIZONTE - COMARCA; BH-12PJ JUIZO CRIMINAL 4.473,58 0,00 0,00 2.031,80 1.491,19 0,00 7.996,57 1.047,33 976,00 0,00 2.023,33 5.973,24 352,00 983,93 31/12/2012
935 419700 FREDERICO MECKLER SANTOS ANALISTA DO MP ATIVO CLÁUDIO - COMARCA; CLAUDIO-PJ-UNPJ 5.598,22 335,89 0,00 3.238,94 0,00 0,00 9.173,05 1.305,50 1.357,63 0,00 2.663,13 6.509,92 352,00 0,00 31/12/2012
936 257100 FULVIA HERONVILLE DA SILVA OFICIAL DO MP ATIVO BELO HORIZONTE - COMARCA; DIVISAO DE MEMORIA INSTITUCIONAL 5.421,69 1.084,34 0,00 5.775,83 2.168,68 0,00 14.450,54 1.532,45 2.095,54 0,00 3.627,99 10.822,55 587,00 1.649,47 31/12/2012
937 405500 GABRIEL CARVALHO DE ASSIS OFICIAL DO MP ATIVO JUIZ DE FORA - COMARCA; COORD REG PJ ORDEM ECON TRIB ZONA DA MATA-SEC 3.300,91 198,05 0,00 3.498,96 1.166,32 0,00 8.164,24 769,78 546,84 0,00 1.316,62 6.847,62 352,00 0,00 31/12/2012
938 397200 GABRIEL DEIVID MARTINS LEITE OFICIAL DO MP ATIVO MONTE CARMELO - COMARCA; MONTE CARMELO-PJ-02PJ 4.332,50 259,95 0,00 1.894,64 0,00 0,00 6.487,09 1.231,89 549,30 0,00 1.781,19 4.705,90 352,00 2.817,24 31/12/2012
939 386800 GABRIELA SIMOES CHAVES ANALISTA DO MP ATIVO BELO HORIZONTE - COMARCA; EXTINTA - DIVISÃO DE COMPRAS 6.069,59 364,18 0,00 3.216,88 0,00 0,00 9.650,65 1.554,93 1.912,62 0,00 3.467,55 6.183,10 352,00 1.268,22 31/12/2012
940 449700 GABRIELE COSTA FERREIRA OFICIAL DO MP ATIVO BELO HORIZONTE - COMARCA; DIRETORIA DE ORCAMENTO-DIOR/SPC 2.903,86 0,00 0,00 1.451,93 0,00 0,00 4.355,79 638,84 147,94 0,00 786,78 3.569,01 352,00 0,00 31/12/2012
941 357600 GABRIELLA CRUZ EMRICH OFICIAL DO MP ATIVO BELO HORIZONTE - COMARCA; BH-12PJ JUIZO CRIMINAL 3.691,17 369,12 0,00 2.185,68 1.353,43 0,00 7.599,40 893,26 836,29 0,00 1.729,55 5.869,85 352,00 0,00 31/12/2012
942 470600 GABRIELLA SPIRANDELLI COIMBRA ANALISTA DO MP ATIVO UBERLÂNDIA - COMARCA; UBERLANDIA-PJ-19PJ 4.924,85 0,00 0,00 2.462,42 0,00 0,00 7.387,27 1.083,46 863,61 0,00 1.947,07 5.440,20 352,00 0,00 31/12/2012
943 86000 GASPAR GOMES DE SOUSA AGENTE DO MP ATIVO BELO HORIZONTE - COMARCA; BH-15PJ M AMB PAT HIST CULT-RECEPCAO 16.277,88 11.394,51 0,00 12.058,81 0,00 0,00 39.731,20 5.305,88 10.258,47 3.554,77 19.119,12 20.612,08 352,00 0,00 31/12/2012
944 183100 GECIELLE FERNANDA SILVA OFICIAL DO MP ATIVO PITANGUI - COMARCA; PITANGUI-PJ-02PJ 7.356,10 1.471,22 0,00 4.274,48 2.942,44 0,00 16.044,24 2.003,26 3.329,81 0,00 5.333,07 10.711,17 352,00 835,08 31/12/2012
945 387300 GEOFFREY GIULLIANO OLIVEIRA ALMEIDA ANALISTA DO MP ATIVO JANAÚBA - COMARCA; JANAUBA-PJ-03PJ 5.598,22 335,89 0,00 5.934,11 1.978,04 0,00 13.846,26 1.305,50 1.901,60 0,00 3.207,10 10.639,16 352,00 0,00 31/12/2012
946 277700 GEORGIA CRISTINA BASILIO MEDRADO ANALISTA DO MP ATIVO BELO HORIZONTE - COMARCA; SERVICO MEDICO-DEPTO PERIC MEDICA SAUDE OCUP 8.361,90 836,19 0,00 5.020,53 3.066,03 0,00 17.284,65 2.023,58 3.705,97 0,00 5.729,55 11.555,10 352,00 0,00 31/12/2012
947 512100 GEOVANI VICENTIN ANALISTA DO MP ATIVO SANTA RITA DE CALDAS - COMARCA; SANTA RITA DE CALDAS-PJ-UNPJ 4.473,58 0,00 0,00 2.166,25 0,00 0,00 6.639,83 768,14 476,55 0,00 1.244,69 5.395,14 352,00 390,32 31/12/2012
948 116300 GEOVANNA DAS GRACAS ROSA REQUEIJO AGENTE DO MP ATIVO SANTA LUZIA - COMARCA; SANTA LUZIA-PJ-06PJ 10.619,67 3.185,90 0,00 6.902,78 0,00 0,00 20.708,35 3.037,22 4.933,08 0,00 7.970,30 12.738,05 587,00 0,00 31/12/2012
949 207200 GERALDO AFONSO DE MOURA CALDEIRA ANALISTA DO MP ATIVO BELO HORIZONTE - COMARCA; BH-17PJ PATRIMONIO PUBLICO 10.464,02 2.092,80 0,00 6.278,41 0,00 1.381,25 20.216,48 2.762,50 5.359,15 0,00 8.121,65 12.094,83 352,00 1.381,25 31/12/2012
950 274901 GERALDO ANDRE DE OLIVEIRA ANALISTA DO MP ATIVO CONTAGEM - COMARCA; CONTAGEM-PJ-18PJ 4.063,61 406,36 0,00 2.305,48 0,00 0,00 6.775,45 983,40 661,07 0,00 1.644,47 5.130,98 352,00 0,00 31/12/2012
951 270900 GERALDO BATISTA BRITES OFICIAL DO MP ATIVO BOM DESPACHO - COMARCA; BOM DESPACHO-PJ-01PJ 5.085,23 1.017,05 0,00 3.051,14 0,00 0,00 9.153,42 1.342,50 1.254,87 0,00 2.597,37 6.556,05 587,00 0,00 31/12/2012
952 204200 GERALDO CELIO ARAUJO SOARES OFICIAL DO MP ATIVO GOVERNADOR VALADARES - COMARCA; GOVERNADOR VALADARES-PJ-12PJ 7.356,10 1.471,22 0,00 4.274,48 2.942,44 0,00 16.044,24 2.003,26 3.422,35 0,00 5.425,61 10.618,63 587,00 835,08 31/12/2012
953 66900 GERALDO DIAS CYRINO OFICIAL DO MP ATIVO BELO HORIZONTE - COMARCA; CAO-CRIM EXEC PENAL TRIB JURI AUD MILITAR 10.619,67 5.309,83 0,00 7.848,01 5.309,83 0,00 29.087,34 3.536,17 7.560,90 0,00 11.097,07 17.990,27 352,00 521,44 31/12/2012
954 366500 GERALDO LEVY ROMUALDO DA SILVA OFICIAL DO MP ATIVO RIO POMBA - COMARCA; RIO POMBA-PJ-SECRETARIA 3.408,38 340,84 0,00 1.874,61 0,00 0,00 5.623,83 824,82 378,55 0,00 1.203,37 4.420,46 352,00 0,00 31/12/2012
955 278400 GERALDO MAGELA RAMALHO OFICIAL DO MP ATIVO VISCONDE DO RIO BRANCO - COMARCA; VISCONDE DO RIO BRANCO-PJ-03PJ 3.811,39 381,14 0,00 2.162,38 0,00 0,00 6.354,91 922,36 549,95 0,00 1.472,31 4.882,60 352,00 0,00 31/12/2012
956 124300 GERALDO MARCIO GOMES DA SILVA COORDENADOR/ANALISTA ATIVO BELO HORIZONTE - COMARCA; EXTINTA - DIRETORIA SERVIÇOS GERAIS E TRANS 15.658,01 15.103,93 0,00 12.058,81 8.039,21 0,00 50.859,96 5.305,88 12.006,52 6.644,32 23.956,72 26.903,24 352,00 0,00 31/12/2012
957 124400 GERALDO MAURICIO DE FARIA ROCHA OFICIAL DO MP ATIVO BELO HORIZONTE - COMARCA; CAO-CONFLITOS AGRARIOS 6.471,28 4.529,89 0,00 6.592,52 0,00 0,00 17.593,69 1.935,31 2.997,37 0,00 4.932,68 12.661,01 352,00 0,00 31/12/2012
958 472800 GERALDO MONTEIRO CAMARGO JUNIOR ANALISTA DO MP ATIVO ESPINOSA - COMARCA; ESPINOSA-PJ-UNPJ 4.063,61 812,72 0,00 2.641,34 0,00 0,00 7.517,67 1.072,80 839,85 0,00 1.912,65 5.605,02 2.302,53 178,80 31/12/2012
959 124500 GERALDO ROGERIO GOMES SILVEIRA COORDENADOR/OFICIAL ATIVO BELO HORIZONTE - COMARCA; DIRETORIA DE PESSOAL ADMINISTRATIVO - DPAD 8.098,20 8.062,16 0,00 8.080,18 5.386,79 0,00 29.627,33 3.028,72 7.897,02 0,00 10.925,74 18.701,59 352,00 0,00 31/12/2012
960 445900 GERALDO TAVARES FERREIRA ANALISTA DO MP ATIVO FORMIGA - COMARCA; FORMIGA-PJ-SECRETARIA 4.924,85 295,49 0,00 2.462,42 0,00 0,00 7.682,76 1.148,47 935,93 0,00 2.084,40 5.598,36 352,00 295,49 31/12/2012
961 521000 GERALDO VINICIUS IRENO ANALISTA DO MP ATIVO CURVELO - COMARCA; CURVELO-PJ-01PJ 4.332,50 0,00 0,00 4.332,50 0,00 0,00 8.665,00 953,16 606,01 0,00 1.559,17 7.105,83 352,00 0,00 31/12/2012
962 325400 GERSONI FERREIRA LUCENA OFICIAL DO MP ATIVO POÇOS DE CALDAS - COMARCA; POCOS DE CALDAS-PJ-01PJ 4.332,50 433,25 0,00 2.519,19 1.588,58 0,00 8.873,52 1.154,27 1.171,07 0,00 2.325,34 6.548,18 587,00 1.112,17 31/12/2012
963 445600 GERUSA E SILVA CASTRO LOPEZ ANALISTA DO MP ATIVO BELO HORIZONTE - COMARCA; ASSESSORIA JURIDICO-ADMINISTRATIVA 5.085,23 305,11 0,00 2.757,91 0,00 0,00 8.148,25 1.206,45 1.049,86 0,00 2.256,31 5.891,94 352,00 357,00 31/12/2012
964 468600 GILDA MARIA SANTOS DE FILIPPO ANDRADE OFICIAL DO MP ATIVO UBÁ - COMARCA; COORD REG BACIA DO RIO PARAIBA DO SUL 3.519,31 0,00 0,00 3.196,81 0,00 0,00 6.716,12 814,46 269,20 0,00 1.083,66 5.632,46 352,00 688,00 31/12/2012
965 508300 GILMAR ALVES FERREIRA OFICIAL DO MP ATIVO BELO HORIZONTE - COMARCA; BH-13ª PJ JUÍXO DE TÓXICOS 2.637,71 0,00 0,00 1.360,43 0,00 0,00 3.998,14 580,30 101,05 0,00 681,35 3.316,79 352,00 0,00 31/12/2012
966 455400 GILMAR DIAS NASCIMENTO OFICIAL DO MP ATIVO SÃO FRANCISCO - COMARCA; SAO FRANCISCO-PJ-01PJ 2.903,86 0,00 0,00 1.585,00 0,00 0,00 4.488,86 638,84 147,94 0,00 786,78 3.702,08 352,00 0,00 31/12/2012
967 213000 GILMAR JOSE DA SILVA OFICIAL DO MP ATIVO DIVINÓPOLIS - COMARCA; DIVINOPOLIS-PJ-SECRETARIA 7.356,10 1.471,22 0,00 4.274,48 2.942,44 0,00 16.044,24 2.003,26 3.514,91 0,00 5.518,17 10.526,07 352,00 835,08 31/12/2012
968 496900 GILSON NOGUEIRA GUIMARAES ANALISTA DO MP ATIVO MANHUMIRIM - COMARCA; MANHUMIRIM-PJ-01PJ 4.924,85 0,00 0,00 2.540,08 0,00 0,00 7.464,93 1.083,46 863,61 0,00 1.947,07 5.517,86 352,00 0,00 31/12/2012
969 476600 GIMENNI JULIANA VILELA MACHADO MOREIRA OFICIAL DO MP ATIVO CONTAGEM - COMARCA; CONTAGEM-PJ-12PJ 2.903,86 0,00 0,00 1.451,93 0,00 0,00 4.355,79 638,84 111,34 0,00 750,18 3.605,61 587,00 0,00 31/12/2012
970 391700 GIORDANI LOPES TAVARES ANALISTA DO MP ATIVO BELO HORIZONTE - COMARCA; SUPERINTENDÊNCIA DE ENGENHARIA E ARQUITETURA 6.069,59 364,18 0,00 6.433,77 2.144,59 0,00 15.012,13 1.415,42 2.191,99 0,00 3.607,41 11.404,72 352,00 0,00 31/12/2012
971 251300 GIOVANE SOUZA PEREIRA OFICIAL DO MP ATIVO PARAGUAÇU - COMARCA; PARAGUACU-PJ-SECRETARIA 4.332,50 866,50 0,00 2.891,27 0,00 0,00 8.090,27 1.143,78 997,81 0,00 2.141,59 5.948,68 352,00 0,00 31/12/2012
972 438800 GIOVANNA BRANDAO DE ARAUJO ANALISTA DO MP ATIVO ALMENARA - COMARCA; ALMENARA-PJ-01PJ 5.085,23 305,11 0,00 2.927,91 0,00 0,00 8.318,25 1.185,88 1.091,47 0,00 2.277,35 6.040,90 352,00 0,00 31/12/2012
973 243400 GIOVANNA FRANCA BISTENE OFICIAL DO MP ATIVO BELO HORIZONTE - COMARCA; ASSESS EXECUTIVA DO CONSELHO SUPERIOR DO MP 5.780,51 1.156,10 0,00 6.936,61 0,00 0,00 13.873,22 1.526,06 1.663,27 0,00 3.189,33 10.683,89 822,00 0,00 31/12/2012
974 124600 GIOVANNI ANANIAS CAMILO DO VALLE ANALISTA DO MP ATIVO OLIVEIRA - COMARCA; OLIVEIRA-PJ-01PJ 11.931,59 5.965,80 0,00 8.948,69 0,00 0,00 26.846,08 3.937,42 7.213,67 0,00 11.151,09 15.694,99 352,00 0,00 31/12/2012
975 366700 GIOVANNI DE SOUZA ANDRADE OFICIAL DO MP ATIVO PASSOS - COMARCA; PASSOS-PJ-01PJ 3.691,17 369,12 0,00 3.749,22 1.353,43 0,00 9.162,94 934,32 553,16 0,00 1.487,48 7.675,46 352,00 684,36 31/12/2012
976 124700 GIOVANNI REIS CONDE OFICIAL DO MP ATIVO MERCÊS - COMARCA; MERCES-PJ-SECRETARIA 5.085,23 3.559,66 0,00 7.852,64 2.881,63 0,00 19.379,16 2.378,29 1.956,07 0,00 4.334,36 15.044,80 352,00 5.123,21 31/12/2012
977 219000 GIRLEI DE FATIMA SOUSA ASSESSOR ATIVO BELO HORIZONTE - COMARCA; BH-17PJ PATRIMONIO PUBLICO 0,00 1.568,57 7.842,84 4.705,70 0,00 0,00 14.117,11 861,56 3.392,23 0,00 4.253,79 9.863,32 352,00 0,00 31/12/2012
978 444600 GISELE ADRIANE FONSECA ANALISTA DO MP ATIVO BETIM - COMARCA; BETIM-PJ-03PJ 5.598,22 335,89 0,00 3.036,14 0,00 0,00 8.970,25 1.432,98 1.535,95 0,00 2.968,93 6.001,32 352,00 1.346,04 31/12/2012
979 445100 GISELE DE CAMPOS VERSIANI ASSESSOR/OFICIAL ATIVO BELO HORIZONTE - COMARCA; DIRET DE INFORMACAO E EXPEDICAO DE PROCESSOS 0,00 427,45 7.124,13 3.562,06 2.517,19 0,00 13.630,83 771,42 2.981,73 0,00 3.753,15 9.877,68 352,00 427,45 31/12/2012
980 423000 GISELE MEGALE SANTINI ANALISTA DO MP ATIVO BELO HORIZONTE - COMARCA; BH-09PJ AUDITORIA MILITAR-SECRETARIA 5.598,22 335,89 0,00 2.967,05 0,00 0,00 8.901,16 1.305,50 1.357,63 0,00 2.663,13 6.238,03 352,00 0,00 31/12/2012
981 425300 GISELE MENEZES RIBEIRO DE OLIVEIRA ANALISTA DO MP ATIVO SANTA LUZIA - COMARCA; SANTA LUZIA-PJ-01PJ 5.085,23 305,11 0,00 2.695,17 1.796,78 0,00 9.882,29 1.185,88 1.493,03 0,00 2.678,91 7.203,38 352,00 0,00 31/12/2012
982 116500 GISELIA MARIA GABRIEL DE PAULA OFICIAL DO MP ATIVO BELO HORIZONTE - COMARCA; BH-14PJ DEFESA CONSUMIDOR-SECRETARIA 7.595,56 5.316,90 0,00 7.215,79 0,00 1.420,37 21.548,62 2.214,10 4.538,75 0,00 6.752,85 14.795,77 352,00 1.420,37 31/12/2012
983 478200 GISELLE BRESCIA SOARES DE SOUZA CUNHA ANALISTA DO MP ATIVO ITAÚNA - COMARCA; ITAUNA-PJ-04PJ 4.473,58 0,00 0,00 2.236,79 0,00 0,00 6.710,37 984,18 586,80 0,00 1.570,98 5.139,39 587,00 0,00 31/12/2012
984 289300 GISELLE CASTRO MACHADO ANALISTA DO MP ATIVO BELO HORIZONTE - COMARCA; EXTINTA - SECRETARIA ADMINISTRATIVA 5.421,69 542,17 0,00 2.981,93 1.987,95 0,00 10.933,74 1.312,04 1.918,89 0,00 3.230,93 7.702,81 352,00 0,00 31/12/2012
985 399100 GISELLE DE VIVEIROS LEITAO OFICIAL DO MP ATIVO MATIAS BARBOSA - COMARCA; MATIAS BARBOSA-PJ-SECRETARIA 3.300,91 198,05 0,00 1.909,82 0,00 0,00 5.408,78 769,78 306,82 0,00 1.076,60 4.332,18 352,00 0,00 31/12/2012
986 357401 GISELLE GUIMARAES DE OLIVEIRA REZENDE ANALISTA DO MP ATIVO BELO HORIZONTE - COMARCA; COMB CRIMES PRAT POR AG POL MUN-ASSESSORIA 6.069,59 364,18 0,00 3.216,88 2.144,59 0,00 11.795,24 1.415,42 2.191,99 0,00 3.607,41 8.187,83 352,00 0,00 31/12/2012
987 492200 GISELLE MUNIZ DE AGUIAR ANALISTA DO MP ATIVO BRASÍLIA DE MINAS - COMARCA; BRASILIA DE MINAS-PJ-02PJ 4.473,58 0,00 0,00 2.307,33 0,00 0,00 6.780,91 745,89 504,81 0,00 1.250,70 5.530,21 352,00 0,00 31/12/2012
988 520300 GISELLE NORMANDIA GONCALVES ANALISTA DO MP ATIVO SANTO ANTÔNIO DO MONTE - COMARCA; SANTO ANTONIO DO MONTE-PJ-UNPJ 4.769,54 0,00 0,00 2.603,29 1.589,85 0,00 8.962,68 1.049,30 1.224,78 0,00 2.274,08 6.688,60 352,00 0,00 31/12/2012
989 112300 GISELLE VILELA RIBEIRO AGENTE DO MP ATIVO BELO HORIZONTE - COMARCA; BH-07PJ 01 TRIBUNAL DO JURI 7.595,56 3.797,78 0,00 5.696,67 3.797,78 0,00 20.887,79 2.506,54 5.074,32 0,00 7.580,86 13.306,93 756,64 37,09 31/12/2012
990 459800 GISELLI FERNANDES COSTA ANALISTA DO MP ATIVO GOVERNADOR VALADARES - COMARCA; GOVERNADOR VALADARES-PJ-08PJ 5.421,69 1.084,34 0,00 3.551,12 2.168,68 0,00 12.225,83 1.106,28 1.889,03 0,00 2.995,31 9.230,52 352,00 0,00 31/12/2012
991 149600 GISLAINE FERNANDES MAGNO OFICIAL DO MP ATIVO BELO HORIZONTE - COMARCA; SUPRIN DE FORMACAO E APERFEICOAMENTO-SFA/CEAF 8.361,90 2.508,57 0,00 5.933,35 3.623,49 0,00 20.427,31 2.391,50 4.585,35 0,00 6.976,85 13.450,46 352,00 0,00 31/12/2012
992 85800 GISLANDIA MARTINS ABREU E SILVA OFICIAL DO MP ATIVO BELO HORIZONTE - COMARCA; JUNTA RECURSAL DO PROCON ESTADUAL 18.757,35 7.502,95 0,00 12.058,81 8.039,21 0,00 46.358,32 5.305,88 12.284,16 2.142,68 19.732,72 26.625,60 352,00 0,00 31/12/2012
993 112700 GISLEIA MARTINS DA SILVA OFICIAL DO MP ATIVO BELO HORIZONTE - COMARCA; ASSESSORIA ESPECIAL DO PGJ 8.361,90 3.344,76 0,00 6.389,76 3.902,22 0,00 21.998,64 2.575,46 4.978,77 0,00 7.554,23 14.444,41 587,00 0,00 31/12/2012
994 250100 GISLEIDE GONALVES DE OLIVEIRA OFICIAL DO MP ATIVO JANAÚBA - COMARCA; JANAUBA-PJ-01PJ 4.924,85 984,97 0,00 3.201,15 0,00 0,00 9.110,97 1.300,16 1.345,75 0,00 2.645,91 6.465,06 3.567,68 294,77 31/12/2012
995 335300 GISLENE FAUSTINO DIAS DE ALMEIDA OFICIAL DO MP ATIVO UBERLÂNDIA - COMARCA; UBERLANDIA-COORD CONJ-FAMÍLIA E JUIZ ESP CRIM 5.085,23 508,52 0,00 3.053,19 1.864,58 0,00 10.511,52 1.230,62 1.703,79 0,00 2.934,41 7.577,11 352,00 0,00 31/12/2012
996 492400 GISLENE GOMIDE GUIMARAES CREPALDE ANALISTA DO MP ATIVO CARATINGA - COMARCA; CARATINGA-PJ-05PJ 4.924,85 0,00 0,00 2.758,60 0,00 0,00 7.683,45 1.083,46 863,61 0,00 1.947,07 5.736,38 352,00 0,00 31/12/2012
997 329800 GISLENE MENDES MARTINS OFICIAL DO MP ATIVO BELO HORIZONTE - COMARCA; BH-17PJ PATRIMONIO PUBLICO-SECRETARIA 4.769,54 476,95 0,00 3.011,50 1.748,83 0,00 10.006,82 1.154,22 1.501,98 0,00 2.656,20 7.350,62 352,00 0,00 31/12/2012
998 327200 GISLEY CERQUEIRA SCAPOLATEMPORE BERNIS ASSESSOR/OFICIAL ATIVO BELO HORIZONTE - COMARCA; CGMP-DIVIS DE APOIO FISC ORIENTACAO FUNCIONAL 0,00 784,28 7.842,84 4.313,56 2.875,71 0,00 15.816,39 1.154,22 3.671,21 0,00 4.825,43 10.990,96 352,00 0,00 31/12/2012
999 525300 GIULIANO LOMBARDI ASSUMPCAO OFICIAL DO MP ATIVO CONTAGEM - COMARCA; CONTAGEM-PJ-01PJ 2.554,55 0,00 0,00 1.277,27 0,00 0,00 3.831,82 555,44 85,97 0,00 641,41 3.190,41 352,00 153,30 31/12/2012
1000 503100 GIULLIANA MATTIOLI OFICIAL DO MP ATIVO ITAJUBA - COMARCA; ITAJUBA-PJ-02PJ 2.903,86 0,00 0,00 1.497,72 967,95 0,00 5.369,53 484,16 218,87 0,00 703,03 4.666,50 683,00 0,00 31/12/2012
1001 459300 GLADSON LIMA DE SOUZA OFICIAL DO MP ATIVO PATOS DE MINAS - COMARCA; PATOS DE MINAS-PJ-05PJ 2.903,86 0,00 0,00 1.585,00 0,00 0,00 4.488,86 638,84 147,94 0,00 786,78 3.702,08 352,00 0,00 31/12/2012
1002 148300 GLADSTON ALMEIDA CAJA AGENTE DO MP ATIVO BELO HORIZONTE - COMARCA; PROCON-MG-SECRETARIA DE FISCALIZACOES 5.250,75 2.100,30 0,00 3.791,39 2.450,35 0,00 13.592,79 1.707,35 2.740,50 0,00 4.447,85 9.144,94 352,00 819,26 31/12/2012
1003 333800 GLADSTON CIRILO TAVARES GOMES OFICIAL DO MP ATIVO JUIZ DE FORA - COMARCA; JUIZ DE FORA-PJ-24PJ 4.332,50 433,25 0,00 2.380,47 1.588,58 0,00 8.734,80 835,67 1.014,32 0,00 1.849,99 6.884,81 352,00 450,87 31/12/2012
1004 391600 GLAUBER COELHO CARVALHO ANALISTA DO MP ATIVO JANUÁRIA - COMARCA; JANUARIA-PJ-02PJ 6.069,59 364,18 0,00 3.216,88 2.144,59 0,00 11.795,24 1.415,42 2.191,99 0,00 3.607,41 8.187,83 352,00 0,00 31/12/2012
1005 478700 GLAUCIA TAVARES ANALISTA DO MP ATIVO RIBEIRÃO DAS NEVES - COMARCA; RIBEIRAO DAS NEVES-PJ-03PJ 4.063,61 0,00 0,00 2.031,80 0,00 0,00 6.095,41 894,00 498,33 0,00 1.392,33 4.703,08 352,00 0,00 31/12/2012
1006 263800 GLAUDITON FERREIRA DE MATOS ASSESSOR ATIVO BELO HORIZONTE - COMARCA; DIRETORIA DE SUPORTE E MANUTENCAO 0,00 351,93 3.519,31 1.935,62 1.290,41 0,00 7.097,27 856,62 733,48 0,00 1.590,10 5.507,17 352,00 0,00 31/12/2012
1007 444500 GLAYSSON PEREIRA DA COSTA ANALISTA DO MP ATIVO CONTAGEM - COMARCA; CONTAGEM-PJ-APO TECNICO 5.598,22 1.119,64 0,00 3.253,01 0,00 0,00 9.970,87 1.508,21 1.689,44 0,00 3.197,65 6.773,22 352,00 487,23 31/12/2012
1008 238900 GLEICE LUCIA FRANCO OFICIAL DO MP ATIVO BELO HORIZONTE - COMARCA; BH-13ª PJ JUÍXO DE TÓXICOS 5.780,51 1.156,10 0,00 3.577,68 0,00 0,00 10.514,29 1.156,58 1.404,51 0,00 2.561,09 7.953,20 352,00 0,00 31/12/2012
1009 276400 GLEICE RENATA DE AMORIM FREITAS OFICIAL DO MP ATIVO BELO HORIZONTE - COMARCA; CGMP-DIVISAO DE APOIO ADMINISTRATIVO 5.250,75 525,08 0,00 2.978,95 1.925,28 0,00 10.680,06 1.270,68 1.809,61 0,00 3.080,29 7.599,77 352,00 0,00 31/12/2012
1010 410900 GLEICIANE GARCIA LAGARES RESENDE ANALISTA DO MP ATIVO IPATINGA - COMARCA; IPATINGA-PJ-03PJ 5.085,23 305,11 0,00 2.448,17 0,00 0,00 7.838,51 1.271,01 970,56 0,00 2.241,57 5.596,94 587,00 1.267,91 31/12/2012
1011 423200 GLEISON SOUZA CREPALDE ANALISTA DO MP ATIVO RAUL SOARES - COMARCA; RAUL SOARES-PJ-UNPJ 5.598,22 335,89 0,00 2.967,05 0,00 0,00 8.901,16 1.305,50 1.357,63 0,00 2.663,13 6.238,03 352,00 0,00 31/12/2012
1012 452200 GLEISY ANDRADE MORAIS ANALISTA DO MP ATIVO BELO HORIZONTE - COMARCA; COMB CRIMES PRAT POR AG POL MUN-ASSESSORIA 5.421,69 0,00 0,00 2.710,84 0,00 0,00 8.132,53 1.192,78 1.106,81 0,00 2.299,59 5.832,94 352,00 0,00 31/12/2012
1013 476500 GRACIELLY MARTINS PARREIRA PORTO ANALISTA DO MP ATIVO PASSOS - COMARCA; PASSOS-PJ-03PJ 4.924,85 0,00 0,00 2.462,42 1.641,62 0,00 9.028,89 1.083,46 1.222,50 0,00 2.305,96 6.722,93 352,00 0,00 31/12/2012
1014 491700 GRAZIELA COLARES LUZ SUSKI ANALISTA DO MP ATIVO BELO HORIZONTE - COMARCA; BH-18PJ VIOLENCIA DOMESTICA-SECRETARIA 4.924,85 0,00 0,00 2.540,08 1.641,62 0,00 9.106,55 821,13 1.109,64 0,00 1.930,77 7.175,78 352,00 0,00 31/12/2012
1015 421700 GRAZIELI DE SOUSA OLIVEIRA ANALISTA DO MP ATIVO RIBEIRÃO DAS NEVES - COMARCA; RIBEIRAO DAS NEVES-PJ-02PJ 5.598,22 335,89 0,00 5.934,11 0,00 0,00 11.868,22 1.305,50 1.357,63 0,00 2.663,13 9.205,09 352,00 0,00 31/12/2012
1016 401800 GRAZIELLA CRISTINA DE SOUZA COUTO ANALISTA DO MP ATIVO ALÉM PARAÍBA - COMARCA; ALEM PARAIBA-PJ-01PJ 6.069,59 364,18 0,00 3.466,71 0,00 0,00 9.900,48 1.415,42 1.602,23 0,00 3.017,65 6.882,83 352,00 0,00 31/12/2012
1017 518000 GRAZIELLA LEDO DE PAULA OFICIAL DO MP ATIVO PALMA - COMARCA; PALMA-PJ-UNPJ 2.554,55 0,00 0,00 1.277,27 851,52 0,00 4.683,34 605,36 252,82 0,00 858,18 3.825,16 352,00 394,20 31/12/2012
1018 489100 GRAZIELLE HELEN FERREIRA BRANDAO OFICIAL DO MP ATIVO BELO HORIZONTE - COMARCA; EXTINTA - PROTOCOLO DA PGJ 3.196,81 0,00 0,00 1.648,81 0,00 0,00 4.845,62 703,30 226,14 0,00 929,44 3.916,18 352,00 0,00 31/12/2012
1019 465400 GRAZZIELA DE OLIVEIRA E SOUSA LACERDA ANALISTA DO MP ATIVO ALMENARA - COMARCA; ALMENARA-PJ-03PJ 4.473,58 0,00 0,00 2.236,79 0,00 0,00 6.710,37 984,18 662,53 0,00 1.646,71 5.063,66 352,00 0,00 31/12/2012
1020 124800 GUARACI BARBOZA RIBEIRO OFICIAL DO MP ATIVO UBERLÂNDIA - COMARCA; UBERLANDIA-PJ-13PJ 8.361,90 5.853,33 0,00 7.759,00 4.738,41 0,00 26.712,64 3.127,36 6.436,66 0,00 9.564,02 17.148,62 352,00 0,00 31/12/2012
1021 116100 GUILHERME ANTONIO FURTADO OLIVEIRA OFICIAL DO MP ATIVO BELO HORIZONTE - COMARCA; DIRET DE INFORMACAO E EXPEDICAO DE PROCESSOS 10.134,20 5.067,10 0,00 8.107,36 0,00 0,00 23.308,66 3.344,28 5.893,93 0,00 9.238,21 14.070,45 3.567,68 294,77 31/12/2012
1022 422900 GUILHERME CORREA LAGROTTA ANALISTA DO MP ATIVO LAMBARI - COMARCA; LAMBARI-PJ-UNPJ 5.085,23 305,11 0,00 2.695,17 1.796,78 0,00 9.882,29 1.185,88 1.585,58 0,00 2.771,46 7.110,83 352,00 0,00 31/12/2012
1023 502300 GUILHERME DAHER DE ALMEIDA JUNQUEIRA ANALISTA DO MP ATIVO LAVRAS - COMARCA; COORD REG DO MA DA BACIA DO RIO GRANDE 4.063,61 0,00 0,00 2.095,89 0,00 0,00 6.159,50 677,55 380,37 0,00 1.057,92 5.101,58 587,00 0,00 31/12/2012
1024 476100 GUILHERME FIDELIS MARQUES ANALISTA DO MP ATIVO JABOTICATUBAS - COMARCA; JABOTICATUBAS-PJ-UNPJ 4.332,50 0,00 0,00 4.332,50 0,00 0,00 8.665,00 953,16 606,01 0,00 1.559,17 7.105,83 352,00 0,00 31/12/2012
1025 448000 GUILHERME LACERDA RIBEIRO ANALISTA DO MP ATIVO BELO HORIZONTE - COMARCA; DIRETORIA DE SISTEMAS DE INFORMACAO 5.421,69 0,00 0,00 2.710,84 0,00 0,00 8.132,53 1.274,56 1.288,79 0,00 2.563,35 5.569,18 352,00 743,52 31/12/2012
1026 380600 GUILHERME RIBEIRO JOAQUIM OFICIAL DO MP ATIVO CACHOEIRA DE MINAS - COMARCA; CACHOEIRA DE MINAS-PJ-SECRETARIA 2.998,37 179,90 0,00 1.589,13 1.059,42 0,00 5.826,82 699,22 415,32 0,00 1.114,54 4.712,28 583,68 0,00 31/12/2012
1027 490900 GUSTAVO DE CARVALHO HERZOG ANALISTA DO MP ATIVO BELO HORIZONTE - COMARCA; BH-18PJ VIOLENCIA DOMESTICA-SECRETARIA 4.924,85 0,00 0,00 2.758,60 0,00 0,00 7.683,45 1.083,46 863,61 0,00 1.947,07 5.736,38 352,00 0,00 31/12/2012
1028 431100 GUSTAVO DE SOUZA RIBEIRO ANALISTA DO MP ATIVO UBERLÂNDIA - COMARCA; UBERLANDIA-PJ-19PJ 5.085,23 305,11 0,00 2.780,17 1.796,78 0,00 9.967,29 1.185,88 1.585,58 0,00 2.771,46 7.195,83 352,00 0,00 31/12/2012
1029 506300 GUSTAVO GOMES FREIRE OFICIAL DO MP ATIVO OURO PRETO - COMARCA; OURO PRETO-PJ-02PJ 2.637,71 0,00 0,00 1.360,43 0,00 0,00 3.998,14 580,30 101,05 0,00 681,35 3.316,79 352,00 0,00 31/12/2012
1030 368200 GUSTAVO MESQUITA PEREIRA VARGAS ANALISTA DO MP ATIVO BELO HORIZONTE - COMARCA; ASSESS TECNICO-JUR JUNTO AS PROC. DE JUST 4.769,54 476,95 0,00 2.623,24 0,00 0,00 7.869,73 1.154,22 1.021,05 0,00 2.175,27 5.694,46 352,00 0,00 31/12/2012
1031 523100 GUSTAVO PORTO DINIZ REIS OFICIAL DO MP ATIVO BELO HORIZONTE - COMARCA; DIRETORIA DE SERVICO CRIMINAL 2.812,27 0,00 0,00 2.577,91 0,00 0,00 5.390,18 592,92 108,71 0,00 701,63 4.688,55 352,00 0,00 31/12/2012
1032 475400 GUSTAVO RICCIARDI CRUVINEL ANALISTA DO MP ATIVO GUAXUPÉ - COMARCA; GUAXUPE-PJ-03PJ 4.924,85 0,00 0,00 2.688,06 0,00 0,00 7.612,91 1.083,46 691,82 0,00 1.775,28 5.837,63 352,00 0,00 31/12/2012
1033 386200 GUSTHAVO CARVALHO NAVARRO OFICIAL DO MP ATIVO LAGOA SANTA - COMARCA; LAGOA SANTA-PJ-01PJ 4.332,50 259,95 0,00 2.506,66 1.530,82 0,00 8.629,93 1.010,34 1.121,89 0,00 2.132,23 6.497,70 352,00 0,00 31/12/2012
1034 275500 HEBER SOUZA FRANCA OFICIAL DO MP ATIVO BELO HORIZONTE - COMARCA; DIRET DE INFORMACAO E EXPEDICAO DE PROCESSOS 4.195,87 839,17 0,00 2.517,52 1.678,35 0,00 9.230,91 1.107,70 1.286,54 0,00 2.394,24 6.836,67 2.171,36 166,77 31/12/2012
1035 251701 HEBIA LUIZA MACHADO ASSIS ANALISTA DO MP ATIVO ITAÚNA - COMARCA; ITAUNA-PJ-03PJ 4.924,85 984,97 0,00 3.286,57 0,00 0,00 9.196,39 1.300,16 1.345,75 0,00 2.645,91 6.550,48 352,00 0,00 31/12/2012
1036 242000 HELAINE GUARNIERI AGOSTINHO OFICIAL DO MP ATIVO JUIZ DE FORA - COMARCA; JUIZ DE FORA-PJ-13PJ 5.780,51 1.156,10 0,00 3.577,68 2.312,20 0,00 12.826,49 1.526,06 2.391,67 0,00 3.917,73 8.908,76 587,00 0,00 31/12/2012
1037 511900 HELBERTH ELIAS CUNHA ANALISTA DO MP ATIVO CONTAGEM - COMARCA; CONTAGEM-PJ-04PJ 3.935,44 787,09 0,00 4.722,53 0,00 0,00 9.445,06 1.038,96 768,00 0,00 1.806,96 7.638,10 3.802,68 241,18 31/12/2012
1038 524900 HELDER DA COSTA RODRIGUES ANALISTA DO MP ATIVO BELO HORIZONTE - COMARCA; COORD REG BACIAS RIO VELHAS E PARAOPEBA 4.332,50 0,00 0,00 2.166,25 0,00 0,00 6.498,75 913,45 533,71 0,00 1.447,16 5.051,59 352,00 0,00 31/12/2012
1039 397000 HELEN CRISTINA TABELINI DE ANDRADE ASSESSOR ATIVO BELO HORIZONTE - COMARCA; CENT DE ATENDIMENTO AS PROMOTORIAS DE JUSTICA 0,00 0,00 3.519,31 3.048,81 1.173,10 0,00 7.741,22 856,62 683,83 0,00 1.540,45 6.200,77 587,00 0,00 31/12/2012
1040 465300 HELEN GOULART MAGALHAES DA FONSECA OFICIAL DO MP ATIVO CONTAGEM - COMARCA; CONTAGEM-PJ-10PJ 3.196,81 0,00 0,00 1.451,93 0,00 0,00 4.648,74 592,99 146,60 0,00 739,59 3.909,15 352,00 742,14 31/12/2012
1041 310801 HELEN ROCHA DO VALLE ANALISTA DO MP ATIVO BELO HORIZONTE - COMARCA; DIRETORIA DE CONTABILIDADE 7.356,10 1.471,22 0,00 4.630,69 2.942,44 0,00 16.400,45 2.003,26 3.514,91 0,00 5.518,17 10.882,28 352,00 835,08 31/12/2012
1042 498600 HELENA CARVALHO MOYSES OFICIAL DO MP ATIVO BELO HORIZONTE - COMARCA; DIRETORIA DE PRODUCAO EDITORIAL 2.903,86 0,00 0,00 1.497,72 0,00 0,00 4.401,58 484,16 113,62 0,00 597,78 3.803,80 822,00 0,00 31/12/2012
1043 324000 HELENA DO CARMO FERREIRA RAMOS OFICIAL DO MP ATIVO BURITIS - COMARCA; BURITIS-PJ-SECRETARIA 4.619,20 3.233,44 0,00 3.926,32 0,00 0,00 11.778,96 1.295,68 1.504,30 0,00 2.799,98 8.978,98 352,00 0,00 31/12/2012
1044 327800 HELENO TADEU TUCCI DE ALMEIDA OFICIAL DO MP ATIVO ITAJUBA - COMARCA; ITAJUBA-PJ-01PJ 3.811,39 381,14 0,00 2.096,26 0,00 0,00 6.288,79 922,36 400,86 0,00 1.323,22 4.965,57 587,00 0,00 31/12/2012
1045 204300 HELIANE DAS GRAAS MACHADO SANTOS VIEIRA OFICIAL DO MP ATIVO GOVERNADOR VALADARES - COMARCA; GOVERNADOR VALADARES-PJ-11PJ 5.878,19 1.175,64 0,00 3.585,52 0,00 0,00 10.639,35 1.551,84 1.813,19 0,00 3.365,03 7.274,32 352,00 0,00 31/12/2012
1046 374500 HELIONARDO FEITOZA GONCALVES ANALISTA DO MP ATIVO JEQUITINHONHA - COMARCA; JEQUITINHONHA-PJ-SECRETARIA 5.598,22 335,89 0,00 2.967,05 0,00 0,00 8.901,16 1.305,50 1.357,63 0,00 2.663,13 6.238,03 352,00 0,00 31/12/2012
1047 488500 HELLEN QUEIROZ ARAUJO ANALISTA DO MP ATIVO MONTES CLAROS - COMARCA; COORD REG PATRI PUB ORD TRIB-NORTE MINAS 4.473,58 0,00 0,00 2.307,33 0,00 0,00 6.780,91 984,18 662,53 0,00 1.646,71 5.134,20 587,00 0,00 31/12/2012
1048 374000 HELOISA HELENA RODRIGUES OFICIAL DO MP ATIVO CAMPOS ALTOS - COMARCA; CAMPOS ALTOS-PJ-SECRETARIA 3.574,80 214,49 0,00 1.894,64 0,00 0,00 5.683,93 625,23 208,53 0,00 833,76 4.850,17 352,00 0,00 31/12/2012
1049 497700 HELOISA MARIA FERREIRA DURAES ANALISTA DO MP ATIVO BELO HORIZONTE - COMARCA; ASSESS TECNICO-JUR JUNTO AS PROC. DE JUST 4.924,85 0,00 0,00 2.540,08 0,00 0,00 7.464,93 1.083,46 863,61 0,00 1.947,07 5.517,86 352,00 0,00 31/12/2012
1050 444300 HELVES RODRIGUES DA SILVA ANALISTA DO MP ATIVO SETE LAGOAS - COMARCA; SETE LAGOAS-PJ-08PJ 5.598,22 335,89 0,00 3.036,14 0,00 0,00 8.970,25 1.449,10 1.468,30 0,00 2.917,40 6.052,85 352,00 1.492,50 31/12/2012
1051 521400 HENRIQUE EDUARDO BRUZZI OFICIAL DO MP ATIVO BELO HORIZONTE - COMARCA; DIRETORIA DE ADMINISTRACAO FINANCEIRA 2.554,55 0,00 0,00 1.277,27 851,52 0,00 4.683,34 562,00 365,47 0,00 927,47 3.755,87 352,00 851,52 31/12/2012
1052 515700 HENRIQUE FLORES MENDES ANALISTA DO MP ATIVO PARÁ DE MINAS - COMARCA; PARA DE MINAS-PJ-02PJ 4.332,50 0,00 0,00 2.166,25 0,00 0,00 6.498,75 953,16 606,01 0,00 1.559,17 4.939,58 352,00 0,00 31/12/2012
1053 445500 HENRIQUE MATHEUS LONDERO DOS SANTOS ANALISTA DO MP ATIVO UBERLÂNDIA - COMARCA; UBERLANDIA-PJ-21PJ 5.421,69 325,30 0,00 2.710,84 0,00 0,00 8.457,83 1.264,34 1.186,43 0,00 2.450,77 6.007,06 587,00 325,30 31/12/2012
1054 504500 HENRIQUE MOREIRA DE MELO SILVA ANALISTA DO MP ATIVO DIAMANTINA - COMARCA; COORD REG BACIAS RIOS JEQUITINHONHA E MUCURI 4.063,61 0,00 0,00 2.095,89 0,00 0,00 6.159,50 894,00 498,33 0,00 1.392,33 4.767,17 587,00 0,00 31/12/2012
1055 310700 HENRIQUE RODRIGUES VALLE OFICIAL DO MP ATIVO BELO HORIZONTE - COMARCA; DIRETORIA DE SISTEMAS DE INFORMACAO 4.195,87 1.258,76 0,00 2.977,22 0,00 0,00 8.431,85 927,50 894,85 0,00 1.822,35 6.609,50 352,00 0,00 31/12/2012
1056 493100 HENRIQUE YUKIO PEREIRA DE SOUZA ANALISTA DO MP ATIVO BELO HORIZONTE - COMARCA; BH-07PJ TRIBUNAL DO JURI 4.924,85 0,00 0,00 2.540,08 0,00 0,00 7.464,93 1.083,46 863,61 0,00 1.947,07 5.517,86 352,00 0,00 31/12/2012
1057 478300 HERNANE LOPES SOUZA ANALISTA DO MP ATIVO MONTES CLAROS - COMARCA; MONTES CLAROS-PJ-12PJ 4.473,58 0,00 0,00 2.236,79 0,00 0,00 6.710,37 738,13 490,68 0,00 1.228,81 5.481,56 352,00 0,00 31/12/2012
1058 490000 HERNANI GANDRA DE ALMEIDA ANALISTA DO MP ATIVO VIRGINÓPOLIS - COMARCA; VIRGINOPOLIS-PJ-UNPJ 4.473,58 0,00 0,00 2.505,86 1.491,19 0,00 8.470,63 984,18 1.058,10 0,00 2.042,28 6.428,35 352,00 0,00 31/12/2012
1059 124900 HILARINO NOGUEIRA DE CARVALHO OFICIAL DO MP ATIVO SÃO JOÃO DEL REI - COMARCA; SAO JOAO DEL REI-PJ-03PJ 7.595,56 5.316,90 0,00 6.252,68 4.304,15 0,00 23.469,29 2.930,30 5.765,00 0,00 8.695,30 14.773,99 352,00 1.221,27 31/12/2012
1060 474700 HORTELIA MARIA DE MIRANDA GONCALVES ANALISTA DO MP ATIVO ARCOS - COMARCA; ARCOS-PJ-02PJ 4.063,61 0,00 0,00 2.031,80 0,00 0,00 6.095,41 894,00 498,33 0,00 1.392,33 4.703,08 352,00 0,00 31/12/2012
1061 504200 HUGO CESAR ROCHA DE PAIVA OFICIAL DO MP ATIVO BELO HORIZONTE - COMARCA; BH-19PJ SAUDE-ASS TECNICA 2.637,71 0,00 0,00 1.360,43 0,00 0,00 3.998,14 595,22 110,10 0,00 705,32 3.292,82 352,00 135,66 31/12/2012
1062 412000 HUMBERTO AUGUSTO DA SILVA GOMES ANALISTA DO MP ATIVO CONCEICAO DAS ALAGOAS - COMARCA; CONCEICAO DAS ALAGOAS-PJ-01PJ 5.598,22 335,89 0,00 5.390,34 0,00 0,00 11.324,45 1.387,25 1.132,00 0,00 2.519,25 8.805,20 1.130,77 1.518,04 31/12/2012
1063 297500 HUMBERTO JOSE TRIVELATO ANALISTA DO MP ATIVO JUIZ DE FORA - COMARCA; JUIZ DE FORA-PJ-22PJ 8.634,11 863,41 0,00 5.938,31 0,00 0,00 15.435,83 2.089,46 3.101,93 0,00 5.191,39 10.244,44 352,00 0,00 31/12/2012
1064 300400 HUMBERTO PEREIRA LANDIM ANALISTA DO MP ATIVO BELO HORIZONTE - COMARCA; BH-07PJ 01 TRIBUNAL JURI-SECRETARIA 8.361,90 836,19 0,00 5.020,53 3.066,03 0,00 17.284,65 2.023,58 3.798,51 0,00 5.822,09 11.462,56 352,00 0,00 31/12/2012
1065 125100 HYARBAS DELPHUS FERREIRA OFICIAL DO MP ATIVO BELO HORIZONTE - COMARCA; DIRETORIA DE SERVICO CIVEL 8.361,90 5.853,33 0,00 7.107,61 4.738,41 0,00 26.061,25 3.127,36 6.714,31 0,00 9.841,67 16.219,58 352,00 0,00 31/12/2012
1066 458100 IARA CAROLINA DE OLIVEIRA ANALISTA DO MP ATIVO NOVA SERRANA - COMARCA; NOVA SERRANA-PJ-01PJ 5.421,69 0,00 0,00 2.959,26 1.807,23 0,00 10.188,18 1.192,78 1.511,24 0,00 2.704,02 7.484,16 352,00 0,00 31/12/2012
1067 256000 IARA FERREIRA ARAUJO OFICIAL DO MP ATIVO DIVINÓPOLIS - COMARCA; COORD REG DO MA DA BACIA DO ALTO SAO FRANC 3.574,80 714,96 0,00 2.287,55 0,00 0,00 6.577,31 958,39 575,57 0,00 1.533,96 5.043,35 352,00 199,77 31/12/2012
1068 93100 IARA MARCIA ALVES OFICIAL DO MP ATIVO BELO HORIZONTE - COMARCA; BH-19PJ SAUDE 8.915,18 4.457,59 0,00 6.686,38 0,00 0,00 20.059,15 2.206,50 3.670,72 0,00 5.877,22 14.181,93 352,00 0,00 31/12/2012
1069 404100 IARA ROCHA BARBALHO ANALISTA DO MP ATIVO BELO HORIZONTE - COMARCA; SUPERINTENDÊNCIA DE ENGENHARIA E ARQUITETURA 6.069,59 364,18 0,00 3.466,71 0,00 0,00 9.900,48 1.415,42 1.509,67 0,00 2.925,09 6.975,39 352,00 0,00 31/12/2012
1070 248500 IDELSON MENDES BOTELHO ANALISTA DO MP ATIVO JUIZ DE FORA - COMARCA; COORD REG PJ ORDEM ECON TRIB ZONA DA MATA-SEC 6.899,47 1.379,89 0,00 4.604,29 2.759,79 0,00 15.643,44 1.821,46 3.264,58 0,00 5.086,04 10.557,40 352,00 0,00 31/12/2012
1071 205600 IDELZIA RANGEL OFICIAL DO MP ATIVO SÃO JOÃO EVANGELISTA - COMARCA; SAO JOAO EVANGELISTA-PJ-SECRETARIA 7.124,13 2.849,65 0,00 4.855,40 3.324,59 0,00 18.153,77 2.027,09 3.304,93 0,00 5.332,02 12.821,75 352,00 3.598,89 31/12/2012
1072 429400 IEDA ALVES DA SILVA RABELO OFICIAL DO MP ATIVO BELO HORIZONTE - COMARCA; DIRET DE ESTAGIOS E CONVENIOS ACADEMICOS 2.998,37 179,90 0,00 1.589,13 0,00 0,00 4.767,40 699,22 221,20 0,00 920,42 3.846,98 352,00 0,00 31/12/2012
1073 507200 IGGOR LEONARDO COSTA GONTIJO ASSESSOR/ANALISTA ATIVO BELO HORIZONTE - COMARCA; DIRETORIA DE SISTEMAS DE INFORMACAO 0,00 0,00 7.124,13 3.562,06 2.374,71 0,00 13.060,90 1.083,46 2.726,26 0,00 3.809,72 9.251,18 352,00 0,00 31/12/2012
1074 434700 IGOR DE OLIVEIRA PACHECO ANALISTA DO MP ATIVO BELO HORIZONTE - COMARCA; PROC. JUSTICA DE HABEAS CORPUS 5.598,22 335,89 0,00 3.223,26 0,00 0,00 9.157,37 1.305,50 1.357,63 0,00 2.663,13 6.494,24 352,00 0,00 31/12/2012
1075 369700 IGOR DE OLIVEIRA RODRIGUES OFICIAL DO MP ATIVO UBERLÂNDIA - COMARCA; UBERLANDIA-PJ-10PJ 3.408,38 340,84